<?xml version="1.0" encoding="UTF-8" standalone="no" ?>
<gpx xmlns="http://www.topografix.com/GPX/1/1" xmlns:xsi="http://www.w3.org/2001/XMLSchema-instance" xsi:schemaLocation="http://www.topografix.com/GPX/1/1 http://www.topografix.com/GPX/1/1/gpx.xsd" version="1.1" creator="VisuGPX - https://www.visugpx.com">
  <metadata>
    <name>Sentier du Littoral</name>
    <desc><![CDATA[
Difficulté moyenne,rivage de la mer magnifique!!!]]></desc>
  </metadata>
  <trk>
    <name><![CDATA[Sentier du Littoral_1]]></name>
    <trkseg>
      <trkpt lat="43.16048" lon="5.70424">
        <ele>129</ele>
        <time>2020-02-12T08:19:59Z</time>
      </trkpt>
      <trkpt lat="43.16041" lon="5.70422">
        <ele>127</ele>
        <time>2020-02-12T08:24:09Z</time>
      </trkpt>
      <trkpt lat="43.16037" lon="5.7042">
        <ele>125</ele>
        <time>2020-02-12T08:24:15Z</time>
      </trkpt>
      <trkpt lat="43.1604" lon="5.70413">
        <ele>124</ele>
        <time>2020-02-12T08:24:21Z</time>
      </trkpt>
      <trkpt lat="43.16044" lon="5.70409">
        <ele>121</ele>
        <time>2020-02-12T08:24:29Z</time>
      </trkpt>
      <trkpt lat="43.16047" lon="5.70405">
        <ele>119</ele>
        <time>2020-02-12T08:24:45Z</time>
      </trkpt>
      <trkpt lat="43.16052" lon="5.70403">
        <ele>116</ele>
        <time>2020-02-12T08:24:51Z</time>
      </trkpt>
      <trkpt lat="43.16057" lon="5.70402">
        <ele>120</ele>
        <time>2020-02-12T08:24:55Z</time>
      </trkpt>
      <trkpt lat="43.16061" lon="5.704">
        <ele>118</ele>
        <time>2020-02-12T08:25:01Z</time>
      </trkpt>
      <trkpt lat="43.16064" lon="5.70394">
        <ele>112</ele>
        <time>2020-02-12T08:25:09Z</time>
      </trkpt>
      <trkpt lat="43.16065" lon="5.70388">
        <ele>114</ele>
        <time>2020-02-12T08:25:13Z</time>
      </trkpt>
      <trkpt lat="43.16063" lon="5.70381">
        <ele>116</ele>
        <time>2020-02-12T08:25:21Z</time>
      </trkpt>
      <trkpt lat="43.16062" lon="5.70375">
        <ele>118</ele>
        <time>2020-02-12T08:25:27Z</time>
      </trkpt>
      <trkpt lat="43.16059" lon="5.70367">
        <ele>115</ele>
        <time>2020-02-12T08:25:33Z</time>
      </trkpt>
      <trkpt lat="43.16058" lon="5.7036">
        <ele>111</ele>
        <time>2020-02-12T08:25:39Z</time>
      </trkpt>
      <trkpt lat="43.16058" lon="5.70353">
        <ele>108</ele>
        <time>2020-02-12T08:25:45Z</time>
      </trkpt>
      <trkpt lat="43.16056" lon="5.70346">
        <ele>106</ele>
        <time>2020-02-12T08:25:51Z</time>
      </trkpt>
      <trkpt lat="43.16053" lon="5.70339">
        <ele>105</ele>
        <time>2020-02-12T08:25:57Z</time>
      </trkpt>
      <trkpt lat="43.1605" lon="5.70333">
        <ele>105</ele>
        <time>2020-02-12T08:26:03Z</time>
      </trkpt>
      <trkpt lat="43.16047" lon="5.70325">
        <ele>106</ele>
        <time>2020-02-12T08:26:09Z</time>
      </trkpt>
      <trkpt lat="43.16043" lon="5.70318">
        <ele>105</ele>
        <time>2020-02-12T08:26:15Z</time>
      </trkpt>
      <trkpt lat="43.16041" lon="5.70312">
        <ele>105</ele>
        <time>2020-02-12T08:26:19Z</time>
      </trkpt>
      <trkpt lat="43.16036" lon="5.70306">
        <ele>106</ele>
        <time>2020-02-12T08:26:25Z</time>
      </trkpt>
      <trkpt lat="43.16031" lon="5.70302">
        <ele>106</ele>
        <time>2020-02-12T08:26:31Z</time>
      </trkpt>
      <trkpt lat="43.16028" lon="5.70296">
        <ele>106</ele>
        <time>2020-02-12T08:26:39Z</time>
      </trkpt>
      <trkpt lat="43.16026" lon="5.7029">
        <ele>107</ele>
        <time>2020-02-12T08:26:45Z</time>
      </trkpt>
      <trkpt lat="43.16023" lon="5.70285">
        <ele>103</ele>
        <time>2020-02-12T08:26:53Z</time>
      </trkpt>
      <trkpt lat="43.16021" lon="5.70279">
        <ele>105</ele>
        <time>2020-02-12T08:26:59Z</time>
      </trkpt>
      <trkpt lat="43.16018" lon="5.70274">
        <ele>106</ele>
        <time>2020-02-12T08:27:03Z</time>
      </trkpt>
      <trkpt lat="43.16015" lon="5.70269">
        <ele>102</ele>
        <time>2020-02-12T08:27:07Z</time>
      </trkpt>
      <trkpt lat="43.16011" lon="5.70263">
        <ele>106</ele>
        <time>2020-02-12T08:27:11Z</time>
      </trkpt>
      <trkpt lat="43.16009" lon="5.70257">
        <ele>106</ele>
        <time>2020-02-12T08:27:15Z</time>
      </trkpt>
      <trkpt lat="43.16007" lon="5.7025">
        <ele>105</ele>
        <time>2020-02-12T08:27:19Z</time>
      </trkpt>
      <trkpt lat="43.16007" lon="5.70243">
        <ele>103</ele>
        <time>2020-02-12T08:27:25Z</time>
      </trkpt>
      <trkpt lat="43.16007" lon="5.70235">
        <ele>102</ele>
        <time>2020-02-12T08:27:33Z</time>
      </trkpt>
      <trkpt lat="43.16009" lon="5.70226">
        <ele>104</ele>
        <time>2020-02-12T08:27:39Z</time>
      </trkpt>
      <trkpt lat="43.16013" lon="5.7022">
        <ele>105</ele>
        <time>2020-02-12T08:27:45Z</time>
      </trkpt>
      <trkpt lat="43.16017" lon="5.70216">
        <ele>105</ele>
        <time>2020-02-12T08:27:51Z</time>
      </trkpt>
      <trkpt lat="43.1602" lon="5.7021">
        <ele>106</ele>
        <time>2020-02-12T08:27:57Z</time>
      </trkpt>
      <trkpt lat="43.16024" lon="5.70204">
        <ele>105</ele>
        <time>2020-02-12T08:28:03Z</time>
      </trkpt>
      <trkpt lat="43.16025" lon="5.70196">
        <ele>98</ele>
        <time>2020-02-12T08:28:09Z</time>
      </trkpt>
      <trkpt lat="43.16029" lon="5.70193">
        <ele>105</ele>
        <time>2020-02-12T08:28:13Z</time>
      </trkpt>
      <trkpt lat="43.16034" lon="5.70186">
        <ele>103</ele>
        <time>2020-02-12T08:28:19Z</time>
      </trkpt>
      <trkpt lat="43.16034" lon="5.7018">
        <ele>106</ele>
        <time>2020-02-12T08:28:23Z</time>
      </trkpt>
      <trkpt lat="43.16033" lon="5.70173">
        <ele>103</ele>
        <time>2020-02-12T08:28:27Z</time>
      </trkpt>
      <trkpt lat="43.16034" lon="5.70164">
        <ele>103</ele>
        <time>2020-02-12T08:28:33Z</time>
      </trkpt>
      <trkpt lat="43.16036" lon="5.70155">
        <ele>104</ele>
        <time>2020-02-12T08:28:39Z</time>
      </trkpt>
      <trkpt lat="43.16039" lon="5.70149">
        <ele>108</ele>
        <time>2020-02-12T08:28:49Z</time>
      </trkpt>
      <trkpt lat="43.16041" lon="5.70142">
        <ele>108</ele>
        <time>2020-02-12T08:28:53Z</time>
      </trkpt>
      <trkpt lat="43.16043" lon="5.70134">
        <ele>108</ele>
        <time>2020-02-12T08:28:57Z</time>
      </trkpt>
      <trkpt lat="43.16044" lon="5.70128">
        <ele>109</ele>
        <time>2020-02-12T08:29:01Z</time>
      </trkpt>
      <trkpt lat="43.16045" lon="5.7012">
        <ele>108</ele>
        <time>2020-02-12T08:29:07Z</time>
      </trkpt>
      <trkpt lat="43.16047" lon="5.70113">
        <ele>103</ele>
        <time>2020-02-12T08:29:13Z</time>
      </trkpt>
      <trkpt lat="43.16051" lon="5.70107">
        <ele>100</ele>
        <time>2020-02-12T08:29:19Z</time>
      </trkpt>
      <trkpt lat="43.16054" lon="5.701">
        <ele>103</ele>
        <time>2020-02-12T08:29:25Z</time>
      </trkpt>
      <trkpt lat="43.16057" lon="5.70094">
        <ele>104</ele>
        <time>2020-02-12T08:29:29Z</time>
      </trkpt>
      <trkpt lat="43.16059" lon="5.70088">
        <ele>103</ele>
        <time>2020-02-12T08:29:33Z</time>
      </trkpt>
      <trkpt lat="43.16063" lon="5.7008">
        <ele>104</ele>
        <time>2020-02-12T08:29:39Z</time>
      </trkpt>
      <trkpt lat="43.16065" lon="5.70073">
        <ele>107</ele>
        <time>2020-02-12T08:29:43Z</time>
      </trkpt>
      <trkpt lat="43.16067" lon="5.70067">
        <ele>106</ele>
        <time>2020-02-12T08:29:47Z</time>
      </trkpt>
      <trkpt lat="43.16069" lon="5.70059">
        <ele>100</ele>
        <time>2020-02-12T08:29:53Z</time>
      </trkpt>
      <trkpt lat="43.16069" lon="5.70052">
        <ele>101</ele>
        <time>2020-02-12T08:29:59Z</time>
      </trkpt>
      <trkpt lat="43.16069" lon="5.70045">
        <ele>101</ele>
        <time>2020-02-12T08:30:05Z</time>
      </trkpt>
      <trkpt lat="43.16072" lon="5.7004">
        <ele>102</ele>
        <time>2020-02-12T08:30:11Z</time>
      </trkpt>
      <trkpt lat="43.16075" lon="5.70033">
        <ele>102</ele>
        <time>2020-02-12T08:30:17Z</time>
      </trkpt>
      <trkpt lat="43.16078" lon="5.70026">
        <ele>98</ele>
        <time>2020-02-12T08:30:23Z</time>
      </trkpt>
      <trkpt lat="43.16081" lon="5.70018">
        <ele>96</ele>
        <time>2020-02-12T08:30:29Z</time>
      </trkpt>
      <trkpt lat="43.16084" lon="5.70011">
        <ele>94</ele>
        <time>2020-02-12T08:30:35Z</time>
      </trkpt>
      <trkpt lat="43.16085" lon="5.70005">
        <ele>95</ele>
        <time>2020-02-12T08:30:39Z</time>
      </trkpt>
      <trkpt lat="43.16085" lon="5.69999">
        <ele>93</ele>
        <time>2020-02-12T08:30:43Z</time>
      </trkpt>
      <trkpt lat="43.16087" lon="5.69992">
        <ele>95</ele>
        <time>2020-02-12T08:30:49Z</time>
      </trkpt>
      <trkpt lat="43.16089" lon="5.69986">
        <ele>95</ele>
        <time>2020-02-12T08:30:53Z</time>
      </trkpt>
      <trkpt lat="43.16091" lon="5.69979">
        <ele>94</ele>
        <time>2020-02-12T08:30:57Z</time>
      </trkpt>
      <trkpt lat="43.16093" lon="5.69971">
        <ele>93</ele>
        <time>2020-02-12T08:31:03Z</time>
      </trkpt>
      <trkpt lat="43.16094" lon="5.69965">
        <ele>90</ele>
        <time>2020-02-12T08:31:09Z</time>
      </trkpt>
      <trkpt lat="43.16098" lon="5.69959">
        <ele>89</ele>
        <time>2020-02-12T08:31:15Z</time>
      </trkpt>
      <trkpt lat="43.16102" lon="5.69954">
        <ele>91</ele>
        <time>2020-02-12T08:31:21Z</time>
      </trkpt>
      <trkpt lat="43.16105" lon="5.6995">
        <ele>95</ele>
        <time>2020-02-12T08:31:25Z</time>
      </trkpt>
      <trkpt lat="43.16109" lon="5.69945">
        <ele>97</ele>
        <time>2020-02-12T08:31:29Z</time>
      </trkpt>
      <trkpt lat="43.16112" lon="5.69938">
        <ele>103</ele>
        <time>2020-02-12T08:31:35Z</time>
      </trkpt>
      <trkpt lat="43.16115" lon="5.6993">
        <ele>103</ele>
        <time>2020-02-12T08:31:41Z</time>
      </trkpt>
      <trkpt lat="43.16118" lon="5.69926">
        <ele>103</ele>
        <time>2020-02-12T08:31:45Z</time>
      </trkpt>
      <trkpt lat="43.16123" lon="5.69919">
        <ele>101</ele>
        <time>2020-02-12T08:31:51Z</time>
      </trkpt>
      <trkpt lat="43.16123" lon="5.69911">
        <ele>99</ele>
        <time>2020-02-12T08:31:57Z</time>
      </trkpt>
      <trkpt lat="43.16124" lon="5.69905">
        <ele>99</ele>
        <time>2020-02-12T08:32:03Z</time>
      </trkpt>
      <trkpt lat="43.16126" lon="5.69896">
        <ele>100</ele>
        <time>2020-02-12T08:32:09Z</time>
      </trkpt>
      <trkpt lat="43.16127" lon="5.69889">
        <ele>99</ele>
        <time>2020-02-12T08:32:15Z</time>
      </trkpt>
      <trkpt lat="43.16127" lon="5.6988">
        <ele>98</ele>
        <time>2020-02-12T08:32:21Z</time>
      </trkpt>
      <trkpt lat="43.16127" lon="5.69873">
        <ele>94</ele>
        <time>2020-02-12T08:32:29Z</time>
      </trkpt>
      <trkpt lat="43.16128" lon="5.69866">
        <ele>89</ele>
        <time>2020-02-12T08:32:45Z</time>
      </trkpt>
      <trkpt lat="43.16126" lon="5.69861">
        <ele>87</ele>
        <time>2020-02-12T08:32:51Z</time>
      </trkpt>
      <trkpt lat="43.16124" lon="5.69853">
        <ele>88</ele>
        <time>2020-02-12T08:32:57Z</time>
      </trkpt>
      <trkpt lat="43.16125" lon="5.69846">
        <ele>86</ele>
        <time>2020-02-12T08:33:03Z</time>
      </trkpt>
      <trkpt lat="43.16124" lon="5.69838">
        <ele>86</ele>
        <time>2020-02-12T08:33:09Z</time>
      </trkpt>
      <trkpt lat="43.16122" lon="5.69829">
        <ele>89</ele>
        <time>2020-02-12T08:33:15Z</time>
      </trkpt>
      <trkpt lat="43.16119" lon="5.69823">
        <ele>88</ele>
        <time>2020-02-12T08:33:21Z</time>
      </trkpt>
      <trkpt lat="43.16115" lon="5.69818">
        <ele>86</ele>
        <time>2020-02-12T08:33:27Z</time>
      </trkpt>
      <trkpt lat="43.16113" lon="5.69812">
        <ele>86</ele>
        <time>2020-02-12T08:33:31Z</time>
      </trkpt>
      <trkpt lat="43.1611" lon="5.69807">
        <ele>84</ele>
        <time>2020-02-12T08:33:43Z</time>
      </trkpt>
      <trkpt lat="43.16114" lon="5.69799">
        <ele>87</ele>
        <time>2020-02-12T08:33:51Z</time>
      </trkpt>
      <trkpt lat="43.16117" lon="5.69795">
        <ele>86</ele>
        <time>2020-02-12T08:33:55Z</time>
      </trkpt>
      <trkpt lat="43.16121" lon="5.69791">
        <ele>87</ele>
        <time>2020-02-12T08:33:59Z</time>
      </trkpt>
      <trkpt lat="43.16125" lon="5.69787">
        <ele>88</ele>
        <time>2020-02-12T08:34:05Z</time>
      </trkpt>
      <trkpt lat="43.1613" lon="5.69782">
        <ele>90</ele>
        <time>2020-02-12T08:34:11Z</time>
      </trkpt>
      <trkpt lat="43.16128" lon="5.69773">
        <ele>90</ele>
        <time>2020-02-12T08:34:19Z</time>
      </trkpt>
      <trkpt lat="43.16129" lon="5.69764">
        <ele>95</ele>
        <time>2020-02-12T08:34:23Z</time>
      </trkpt>
      <trkpt lat="43.16131" lon="5.69758">
        <ele>94</ele>
        <time>2020-02-12T08:34:27Z</time>
      </trkpt>
      <trkpt lat="43.16135" lon="5.69754">
        <ele>92</ele>
        <time>2020-02-12T08:34:31Z</time>
      </trkpt>
      <trkpt lat="43.16138" lon="5.69748">
        <ele>89</ele>
        <time>2020-02-12T08:34:39Z</time>
      </trkpt>
      <trkpt lat="43.16141" lon="5.69741">
        <ele>90</ele>
        <time>2020-02-12T08:34:45Z</time>
      </trkpt>
      <trkpt lat="43.16145" lon="5.69734">
        <ele>87</ele>
        <time>2020-02-12T08:34:53Z</time>
      </trkpt>
      <trkpt lat="43.16148" lon="5.69729">
        <ele>87</ele>
        <time>2020-02-12T08:34:57Z</time>
      </trkpt>
      <trkpt lat="43.16151" lon="5.69724">
        <ele>87</ele>
        <time>2020-02-12T08:35:01Z</time>
      </trkpt>
      <trkpt lat="43.16155" lon="5.69718">
        <ele>88</ele>
        <time>2020-02-12T08:35:07Z</time>
      </trkpt>
      <trkpt lat="43.16157" lon="5.69711">
        <ele>91</ele>
        <time>2020-02-12T08:35:11Z</time>
      </trkpt>
      <trkpt lat="43.16153" lon="5.69707">
        <ele>93</ele>
        <time>2020-02-12T08:35:23Z</time>
      </trkpt>
      <trkpt lat="43.16148" lon="5.69709">
        <ele>95</ele>
        <time>2020-02-12T08:35:29Z</time>
      </trkpt>
      <trkpt lat="43.16142" lon="5.6971">
        <ele>95</ele>
        <time>2020-02-12T08:35:35Z</time>
      </trkpt>
      <trkpt lat="43.16136" lon="5.6971">
        <ele>96</ele>
        <time>2020-02-12T08:35:41Z</time>
      </trkpt>
      <trkpt lat="43.1613" lon="5.69707">
        <ele>97</ele>
        <time>2020-02-12T08:35:47Z</time>
      </trkpt>
      <trkpt lat="43.16126" lon="5.69701">
        <ele>97</ele>
        <time>2020-02-12T08:35:53Z</time>
      </trkpt>
      <trkpt lat="43.16125" lon="5.69695">
        <ele>96</ele>
        <time>2020-02-12T08:36:11Z</time>
      </trkpt>
      <trkpt lat="43.16125" lon="5.69688">
        <ele>96</ele>
        <time>2020-02-12T08:36:23Z</time>
      </trkpt>
      <trkpt lat="43.16126" lon="5.69682">
        <ele>99</ele>
        <time>2020-02-12T08:36:31Z</time>
      </trkpt>
      <trkpt lat="43.16126" lon="5.69675">
        <ele>102</ele>
        <time>2020-02-12T08:36:39Z</time>
      </trkpt>
      <trkpt lat="43.16127" lon="5.69668">
        <ele>106</ele>
        <time>2020-02-12T08:36:47Z</time>
      </trkpt>
      <trkpt lat="43.16128" lon="5.69661">
        <ele>106</ele>
        <time>2020-02-12T08:36:57Z</time>
      </trkpt>
      <trkpt lat="43.16131" lon="5.69655">
        <ele>109</ele>
        <time>2020-02-12T08:37:03Z</time>
      </trkpt>
      <trkpt lat="43.1613" lon="5.69647">
        <ele>108</ele>
        <time>2020-02-12T08:37:11Z</time>
      </trkpt>
      <trkpt lat="43.1613" lon="5.69641">
        <ele>108</ele>
        <time>2020-02-12T08:37:19Z</time>
      </trkpt>
      <trkpt lat="43.1613" lon="5.69634">
        <ele>107</ele>
        <time>2020-02-12T08:37:29Z</time>
      </trkpt>
      <trkpt lat="43.16129" lon="5.69627">
        <ele>111</ele>
        <time>2020-02-12T08:37:39Z</time>
      </trkpt>
      <trkpt lat="43.16129" lon="5.6962">
        <ele>110</ele>
        <time>2020-02-12T08:37:55Z</time>
      </trkpt>
      <trkpt lat="43.16127" lon="5.69614">
        <ele>110</ele>
        <time>2020-02-12T08:38:03Z</time>
      </trkpt>
      <trkpt lat="43.16127" lon="5.69607">
        <ele>111</ele>
        <time>2020-02-12T08:38:11Z</time>
      </trkpt>
      <trkpt lat="43.16131" lon="5.69603">
        <ele>117</ele>
        <time>2020-02-12T08:38:25Z</time>
      </trkpt>
      <trkpt lat="43.16132" lon="5.69596">
        <ele>119</ele>
        <time>2020-02-12T08:38:35Z</time>
      </trkpt>
      <trkpt lat="43.16137" lon="5.69597">
        <ele>121</ele>
        <time>2020-02-12T08:39:03Z</time>
      </trkpt>
      <trkpt lat="43.16139" lon="5.6959">
        <ele>124</ele>
        <time>2020-02-12T08:40:43Z</time>
      </trkpt>
      <trkpt lat="43.16143" lon="5.69586">
        <ele>123</ele>
        <time>2020-02-12T08:40:49Z</time>
      </trkpt>
      <trkpt lat="43.16147" lon="5.69581">
        <ele>124</ele>
        <time>2020-02-12T08:40:55Z</time>
      </trkpt>
      <trkpt lat="43.16152" lon="5.69576">
        <ele>122</ele>
        <time>2020-02-12T08:41:01Z</time>
      </trkpt>
      <trkpt lat="43.16158" lon="5.69572">
        <ele>125</ele>
        <time>2020-02-12T08:41:09Z</time>
      </trkpt>
      <trkpt lat="43.16161" lon="5.69567">
        <ele>125</ele>
        <time>2020-02-12T08:41:15Z</time>
      </trkpt>
      <trkpt lat="43.16166" lon="5.6956">
        <ele>120</ele>
        <time>2020-02-12T08:41:23Z</time>
      </trkpt>
      <trkpt lat="43.16171" lon="5.69557">
        <ele>119</ele>
        <time>2020-02-12T08:41:27Z</time>
      </trkpt>
      <trkpt lat="43.16175" lon="5.69554">
        <ele>117</ele>
        <time>2020-02-12T08:41:31Z</time>
      </trkpt>
      <trkpt lat="43.16178" lon="5.69547">
        <ele>118</ele>
        <time>2020-02-12T08:41:35Z</time>
      </trkpt>
      <trkpt lat="43.16181" lon="5.69542">
        <ele>119</ele>
        <time>2020-02-12T08:41:39Z</time>
      </trkpt>
      <trkpt lat="43.16185" lon="5.69538">
        <ele>122</ele>
        <time>2020-02-12T08:41:43Z</time>
      </trkpt>
      <trkpt lat="43.16189" lon="5.69533">
        <ele>122</ele>
        <time>2020-02-12T08:41:49Z</time>
      </trkpt>
      <trkpt lat="43.16194" lon="5.69529">
        <ele>125</ele>
        <time>2020-02-12T08:41:55Z</time>
      </trkpt>
      <trkpt lat="43.16199" lon="5.69525">
        <ele>124</ele>
        <time>2020-02-12T08:42:01Z</time>
      </trkpt>
      <trkpt lat="43.16204" lon="5.69525">
        <ele>126</ele>
        <time>2020-02-12T08:42:05Z</time>
      </trkpt>
      <trkpt lat="43.1621" lon="5.6952">
        <ele>125</ele>
        <time>2020-02-12T08:42:11Z</time>
      </trkpt>
      <trkpt lat="43.16215" lon="5.69514">
        <ele>124</ele>
        <time>2020-02-12T08:42:17Z</time>
      </trkpt>
      <trkpt lat="43.1622" lon="5.69511">
        <ele>122</ele>
        <time>2020-02-12T08:42:23Z</time>
      </trkpt>
      <trkpt lat="43.16224" lon="5.69507">
        <ele>124</ele>
        <time>2020-02-12T08:42:29Z</time>
      </trkpt>
      <trkpt lat="43.16228" lon="5.69501">
        <ele>124</ele>
        <time>2020-02-12T08:42:35Z</time>
      </trkpt>
      <trkpt lat="43.16232" lon="5.69495">
        <ele>125</ele>
        <time>2020-02-12T08:42:41Z</time>
      </trkpt>
      <trkpt lat="43.16236" lon="5.69491">
        <ele>126</ele>
        <time>2020-02-12T08:42:45Z</time>
      </trkpt>
      <trkpt lat="43.16238" lon="5.69486">
        <ele>129</ele>
        <time>2020-02-12T08:42:51Z</time>
      </trkpt>
      <trkpt lat="43.16241" lon="5.6948">
        <ele>131</ele>
        <time>2020-02-12T08:42:55Z</time>
      </trkpt>
      <trkpt lat="43.16244" lon="5.69475">
        <ele>132</ele>
        <time>2020-02-12T08:42:59Z</time>
      </trkpt>
      <trkpt lat="43.16249" lon="5.6947">
        <ele>131</ele>
        <time>2020-02-12T08:43:05Z</time>
      </trkpt>
      <trkpt lat="43.16253" lon="5.69463">
        <ele>136</ele>
        <time>2020-02-12T08:43:11Z</time>
      </trkpt>
      <trkpt lat="43.16255" lon="5.69454">
        <ele>138</ele>
        <time>2020-02-12T08:43:17Z</time>
      </trkpt>
      <trkpt lat="43.16256" lon="5.69446">
        <ele>134</ele>
        <time>2020-02-12T08:43:23Z</time>
      </trkpt>
      <trkpt lat="43.16257" lon="5.69438">
        <ele>131</ele>
        <time>2020-02-12T08:43:29Z</time>
      </trkpt>
      <trkpt lat="43.16257" lon="5.69429">
        <ele>130</ele>
        <time>2020-02-12T08:43:35Z</time>
      </trkpt>
      <trkpt lat="43.16255" lon="5.69421">
        <ele>131</ele>
        <time>2020-02-12T08:43:41Z</time>
      </trkpt>
      <trkpt lat="43.16252" lon="5.69414">
        <ele>130</ele>
        <time>2020-02-12T08:43:47Z</time>
      </trkpt>
      <trkpt lat="43.16249" lon="5.69408">
        <ele>129</ele>
        <time>2020-02-12T08:43:53Z</time>
      </trkpt>
      <trkpt lat="43.16244" lon="5.69403">
        <ele>125</ele>
        <time>2020-02-12T08:44:21Z</time>
      </trkpt>
      <trkpt lat="43.16242" lon="5.69395">
        <ele>129</ele>
        <time>2020-02-12T08:44:31Z</time>
      </trkpt>
      <trkpt lat="43.16237" lon="5.69389">
        <ele>129</ele>
        <time>2020-02-12T08:44:37Z</time>
      </trkpt>
      <trkpt lat="43.16234" lon="5.69383">
        <ele>130</ele>
        <time>2020-02-12T08:44:43Z</time>
      </trkpt>
      <trkpt lat="43.16232" lon="5.69377">
        <ele>129</ele>
        <time>2020-02-12T08:44:49Z</time>
      </trkpt>
      <trkpt lat="43.16229" lon="5.69371">
        <ele>129</ele>
        <time>2020-02-12T08:44:55Z</time>
      </trkpt>
      <trkpt lat="43.16226" lon="5.69363">
        <ele>128</ele>
        <time>2020-02-12T08:45:01Z</time>
      </trkpt>
      <trkpt lat="43.16224" lon="5.69358">
        <ele>129</ele>
        <time>2020-02-12T08:45:07Z</time>
      </trkpt>
      <trkpt lat="43.16221" lon="5.69351">
        <ele>130</ele>
        <time>2020-02-12T08:45:13Z</time>
      </trkpt>
      <trkpt lat="43.16216" lon="5.69349">
        <ele>129</ele>
        <time>2020-02-12T08:45:19Z</time>
      </trkpt>
      <trkpt lat="43.1621" lon="5.6935">
        <ele>128</ele>
        <time>2020-02-12T08:45:25Z</time>
      </trkpt>
      <trkpt lat="43.16206" lon="5.69353">
        <ele>128</ele>
        <time>2020-02-12T08:45:29Z</time>
      </trkpt>
      <trkpt lat="43.16201" lon="5.69357">
        <ele>128</ele>
        <time>2020-02-12T08:45:35Z</time>
      </trkpt>
      <trkpt lat="43.16197" lon="5.69362">
        <ele>128</ele>
        <time>2020-02-12T08:45:43Z</time>
      </trkpt>
      <trkpt lat="43.16191" lon="5.69363">
        <ele>129</ele>
        <time>2020-02-12T08:45:51Z</time>
      </trkpt>
      <trkpt lat="43.16187" lon="5.69366">
        <ele>130</ele>
        <time>2020-02-12T08:45:59Z</time>
      </trkpt>
      <trkpt lat="43.16182" lon="5.69363">
        <ele>131</ele>
        <time>2020-02-12T08:46:07Z</time>
      </trkpt>
      <trkpt lat="43.16177" lon="5.69361">
        <ele>132</ele>
        <time>2020-02-12T08:46:27Z</time>
      </trkpt>
      <trkpt lat="43.16173" lon="5.69362">
        <ele>133</ele>
        <time>2020-02-12T08:46:35Z</time>
      </trkpt>
      <trkpt lat="43.16168" lon="5.6936">
        <ele>132</ele>
        <time>2020-02-12T08:46:43Z</time>
      </trkpt>
      <trkpt lat="43.16162" lon="5.69359">
        <ele>132</ele>
        <time>2020-02-12T08:46:49Z</time>
      </trkpt>
      <trkpt lat="43.16157" lon="5.69354">
        <ele>132</ele>
        <time>2020-02-12T08:46:57Z</time>
      </trkpt>
      <trkpt lat="43.16153" lon="5.6935">
        <ele>131</ele>
        <time>2020-02-12T08:47:01Z</time>
      </trkpt>
      <trkpt lat="43.1615" lon="5.69343">
        <ele>130</ele>
        <time>2020-02-12T08:47:07Z</time>
      </trkpt>
      <trkpt lat="43.16148" lon="5.69336">
        <ele>130</ele>
        <time>2020-02-12T08:47:13Z</time>
      </trkpt>
      <trkpt lat="43.16145" lon="5.69328">
        <ele>128</ele>
        <time>2020-02-12T08:47:19Z</time>
      </trkpt>
      <trkpt lat="43.16143" lon="5.69322">
        <ele>129</ele>
        <time>2020-02-12T08:47:25Z</time>
      </trkpt>
      <trkpt lat="43.1614" lon="5.69316">
        <ele>129</ele>
        <time>2020-02-12T08:47:33Z</time>
      </trkpt>
      <trkpt lat="43.16136" lon="5.69308">
        <ele>130</ele>
        <time>2020-02-12T08:47:39Z</time>
      </trkpt>
      <trkpt lat="43.16132" lon="5.69304">
        <ele>130</ele>
        <time>2020-02-12T08:47:43Z</time>
      </trkpt>
      <trkpt lat="43.16127" lon="5.693">
        <ele>130</ele>
        <time>2020-02-12T08:47:49Z</time>
      </trkpt>
      <trkpt lat="43.16122" lon="5.69298">
        <ele>128</ele>
        <time>2020-02-12T08:47:55Z</time>
      </trkpt>
      <trkpt lat="43.16118" lon="5.69294">
        <ele>128</ele>
        <time>2020-02-12T08:48:01Z</time>
      </trkpt>
      <trkpt lat="43.16113" lon="5.69291">
        <ele>128</ele>
        <time>2020-02-12T08:48:07Z</time>
      </trkpt>
      <trkpt lat="43.16109" lon="5.69288">
        <ele>129</ele>
        <time>2020-02-12T08:48:13Z</time>
      </trkpt>
      <trkpt lat="43.16104" lon="5.69284">
        <ele>128</ele>
        <time>2020-02-12T08:48:19Z</time>
      </trkpt>
      <trkpt lat="43.161" lon="5.69281">
        <ele>124</ele>
        <time>2020-02-12T08:48:29Z</time>
      </trkpt>
      <trkpt lat="43.16096" lon="5.69277">
        <ele>123</ele>
        <time>2020-02-12T08:48:35Z</time>
      </trkpt>
      <trkpt lat="43.16091" lon="5.69274">
        <ele>124</ele>
        <time>2020-02-12T08:48:41Z</time>
      </trkpt>
      <trkpt lat="43.16087" lon="5.69269">
        <ele>125</ele>
        <time>2020-02-12T08:48:47Z</time>
      </trkpt>
      <trkpt lat="43.16083" lon="5.69263">
        <ele>126</ele>
        <time>2020-02-12T08:48:53Z</time>
      </trkpt>
      <trkpt lat="43.16079" lon="5.69259">
        <ele>126</ele>
        <time>2020-02-12T08:48:59Z</time>
      </trkpt>
      <trkpt lat="43.16075" lon="5.69257">
        <ele>130</ele>
        <time>2020-02-12T08:49:07Z</time>
      </trkpt>
      <trkpt lat="43.16069" lon="5.69255">
        <ele>130</ele>
        <time>2020-02-12T08:49:13Z</time>
      </trkpt>
      <trkpt lat="43.16065" lon="5.69257">
        <ele>131</ele>
        <time>2020-02-12T08:49:19Z</time>
      </trkpt>
      <trkpt lat="43.1606" lon="5.69259">
        <ele>132</ele>
        <time>2020-02-12T08:49:27Z</time>
      </trkpt>
      <trkpt lat="43.16056" lon="5.6926">
        <ele>133</ele>
        <time>2020-02-12T08:49:31Z</time>
      </trkpt>
      <trkpt lat="43.16051" lon="5.6926">
        <ele>132</ele>
        <time>2020-02-12T08:49:37Z</time>
      </trkpt>
      <trkpt lat="43.16047" lon="5.69255">
        <ele>132</ele>
        <time>2020-02-12T08:49:43Z</time>
      </trkpt>
      <trkpt lat="43.16045" lon="5.69249">
        <ele>132</ele>
        <time>2020-02-12T08:49:49Z</time>
      </trkpt>
      <trkpt lat="43.16042" lon="5.69243">
        <ele>131</ele>
        <time>2020-02-12T08:49:55Z</time>
      </trkpt>
      <trkpt lat="43.16038" lon="5.69236">
        <ele>132</ele>
        <time>2020-02-12T08:50:01Z</time>
      </trkpt>
      <trkpt lat="43.16033" lon="5.69231">
        <ele>132</ele>
        <time>2020-02-12T08:50:07Z</time>
      </trkpt>
      <trkpt lat="43.16028" lon="5.69227">
        <ele>132</ele>
        <time>2020-02-12T08:50:13Z</time>
      </trkpt>
      <trkpt lat="43.16025" lon="5.69221">
        <ele>132</ele>
        <time>2020-02-12T08:50:19Z</time>
      </trkpt>
      <trkpt lat="43.16021" lon="5.69218">
        <ele>133</ele>
        <time>2020-02-12T08:50:25Z</time>
      </trkpt>
      <trkpt lat="43.16016" lon="5.69212">
        <ele>134</ele>
        <time>2020-02-12T08:50:31Z</time>
      </trkpt>
      <trkpt lat="43.16012" lon="5.69205">
        <ele>134</ele>
        <time>2020-02-12T08:50:37Z</time>
      </trkpt>
      <trkpt lat="43.16009" lon="5.69199">
        <ele>134</ele>
        <time>2020-02-12T08:50:43Z</time>
      </trkpt>
      <trkpt lat="43.16006" lon="5.69193">
        <ele>133</ele>
        <time>2020-02-12T08:50:49Z</time>
      </trkpt>
      <trkpt lat="43.16002" lon="5.69187">
        <ele>133</ele>
        <time>2020-02-12T08:50:55Z</time>
      </trkpt>
      <trkpt lat="43.15999" lon="5.69182">
        <ele>136</ele>
        <time>2020-02-12T08:50:59Z</time>
      </trkpt>
      <trkpt lat="43.15996" lon="5.69177">
        <ele>138</ele>
        <time>2020-02-12T08:51:03Z</time>
      </trkpt>
      <trkpt lat="43.15993" lon="5.69172">
        <ele>136</ele>
        <time>2020-02-12T08:51:07Z</time>
      </trkpt>
      <trkpt lat="43.15989" lon="5.69166">
        <ele>134</ele>
        <time>2020-02-12T08:51:13Z</time>
      </trkpt>
      <trkpt lat="43.15986" lon="5.69161">
        <ele>134</ele>
        <time>2020-02-12T08:51:17Z</time>
      </trkpt>
      <trkpt lat="43.15982" lon="5.69155">
        <ele>135</ele>
        <time>2020-02-12T08:51:23Z</time>
      </trkpt>
      <trkpt lat="43.15977" lon="5.69149">
        <ele>135</ele>
        <time>2020-02-12T08:51:29Z</time>
      </trkpt>
      <trkpt lat="43.15973" lon="5.69144">
        <ele>132</ele>
        <time>2020-02-12T08:51:35Z</time>
      </trkpt>
      <trkpt lat="43.15969" lon="5.6914">
        <ele>134</ele>
        <time>2020-02-12T08:51:39Z</time>
      </trkpt>
      <trkpt lat="43.15965" lon="5.69138">
        <ele>134</ele>
        <time>2020-02-12T08:51:43Z</time>
      </trkpt>
      <trkpt lat="43.1596" lon="5.69136">
        <ele>133</ele>
        <time>2020-02-12T08:51:47Z</time>
      </trkpt>
      <trkpt lat="43.15955" lon="5.69134">
        <ele>134</ele>
        <time>2020-02-12T08:51:51Z</time>
      </trkpt>
      <trkpt lat="43.1595" lon="5.69132">
        <ele>134</ele>
        <time>2020-02-12T08:51:57Z</time>
      </trkpt>
      <trkpt lat="43.15945" lon="5.69131">
        <ele>134</ele>
        <time>2020-02-12T08:52:01Z</time>
      </trkpt>
      <trkpt lat="43.15941" lon="5.69129">
        <ele>135</ele>
        <time>2020-02-12T08:52:05Z</time>
      </trkpt>
      <trkpt lat="43.15935" lon="5.69125">
        <ele>136</ele>
        <time>2020-02-12T08:52:11Z</time>
      </trkpt>
      <trkpt lat="43.1593" lon="5.69121">
        <ele>137</ele>
        <time>2020-02-12T08:52:17Z</time>
      </trkpt>
      <trkpt lat="43.15924" lon="5.69118">
        <ele>139</ele>
        <time>2020-02-12T08:52:23Z</time>
      </trkpt>
      <trkpt lat="43.15919" lon="5.69113">
        <ele>140</ele>
        <time>2020-02-12T08:52:29Z</time>
      </trkpt>
      <trkpt lat="43.15914" lon="5.69108">
        <ele>143</ele>
        <time>2020-02-12T08:52:35Z</time>
      </trkpt>
      <trkpt lat="43.1591" lon="5.69102">
        <ele>143</ele>
        <time>2020-02-12T08:52:41Z</time>
      </trkpt>
      <trkpt lat="43.15905" lon="5.69097">
        <ele>144</ele>
        <time>2020-02-12T08:52:49Z</time>
      </trkpt>
      <trkpt lat="43.159" lon="5.69094">
        <ele>144</ele>
        <time>2020-02-12T08:52:55Z</time>
      </trkpt>
      <trkpt lat="43.15895" lon="5.69088">
        <ele>144</ele>
        <time>2020-02-12T08:53:03Z</time>
      </trkpt>
      <trkpt lat="43.15891" lon="5.69085">
        <ele>144</ele>
        <time>2020-02-12T08:53:07Z</time>
      </trkpt>
      <trkpt lat="43.15888" lon="5.6908">
        <ele>146</ele>
        <time>2020-02-12T08:53:11Z</time>
      </trkpt>
      <trkpt lat="43.15883" lon="5.69076">
        <ele>148</ele>
        <time>2020-02-12T08:53:15Z</time>
      </trkpt>
      <trkpt lat="43.15878" lon="5.6907">
        <ele>148</ele>
        <time>2020-02-12T08:53:21Z</time>
      </trkpt>
      <trkpt lat="43.15873" lon="5.69066">
        <ele>152</ele>
        <time>2020-02-12T08:53:27Z</time>
      </trkpt>
      <trkpt lat="43.15869" lon="5.69061">
        <ele>151</ele>
        <time>2020-02-12T08:53:33Z</time>
      </trkpt>
      <trkpt lat="43.15863" lon="5.69057">
        <ele>150</ele>
        <time>2020-02-12T08:53:39Z</time>
      </trkpt>
      <trkpt lat="43.15859" lon="5.69055">
        <ele>151</ele>
        <time>2020-02-12T08:53:43Z</time>
      </trkpt>
      <trkpt lat="43.15855" lon="5.69051">
        <ele>150</ele>
        <time>2020-02-12T08:53:47Z</time>
      </trkpt>
      <trkpt lat="43.15852" lon="5.69047">
        <ele>150</ele>
        <time>2020-02-12T08:53:51Z</time>
      </trkpt>
      <trkpt lat="43.15846" lon="5.69043">
        <ele>150</ele>
        <time>2020-02-12T08:53:57Z</time>
      </trkpt>
      <trkpt lat="43.15841" lon="5.69039">
        <ele>149</ele>
        <time>2020-02-12T08:54:03Z</time>
      </trkpt>
      <trkpt lat="43.15836" lon="5.69034">
        <ele>149</ele>
        <time>2020-02-12T08:54:09Z</time>
      </trkpt>
      <trkpt lat="43.15831" lon="5.6903">
        <ele>149</ele>
        <time>2020-02-12T08:54:15Z</time>
      </trkpt>
      <trkpt lat="43.15826" lon="5.69026">
        <ele>148</ele>
        <time>2020-02-12T08:54:21Z</time>
      </trkpt>
      <trkpt lat="43.1582" lon="5.69024">
        <ele>147</ele>
        <time>2020-02-12T08:54:27Z</time>
      </trkpt>
      <trkpt lat="43.15816" lon="5.69022">
        <ele>148</ele>
        <time>2020-02-12T08:54:33Z</time>
      </trkpt>
      <trkpt lat="43.15813" lon="5.69017">
        <ele>148</ele>
        <time>2020-02-12T08:55:29Z</time>
      </trkpt>
      <trkpt lat="43.15815" lon="5.69009">
        <ele>146</ele>
        <time>2020-02-12T08:56:03Z</time>
      </trkpt>
      <trkpt lat="43.15814" lon="5.69001">
        <ele>144</ele>
        <time>2020-02-12T08:56:09Z</time>
      </trkpt>
      <trkpt lat="43.15814" lon="5.68995">
        <ele>139</ele>
        <time>2020-02-12T08:56:15Z</time>
      </trkpt>
      <trkpt lat="43.15814" lon="5.68986">
        <ele>138</ele>
        <time>2020-02-12T08:56:21Z</time>
      </trkpt>
      <trkpt lat="43.15809" lon="5.68982">
        <ele>141</ele>
        <time>2020-02-12T08:56:27Z</time>
      </trkpt>
      <trkpt lat="43.15805" lon="5.68983">
        <ele>141</ele>
        <time>2020-02-12T08:56:31Z</time>
      </trkpt>
      <trkpt lat="43.15809" lon="5.6898">
        <ele>142</ele>
        <time>2020-02-12T08:56:51Z</time>
      </trkpt>
      <trkpt lat="43.15812" lon="5.68973">
        <ele>142</ele>
        <time>2020-02-12T08:57:05Z</time>
      </trkpt>
      <trkpt lat="43.15812" lon="5.68967">
        <ele>140</ele>
        <time>2020-02-12T08:57:11Z</time>
      </trkpt>
      <trkpt lat="43.15812" lon="5.68959">
        <ele>140</ele>
        <time>2020-02-12T08:57:15Z</time>
      </trkpt>
      <trkpt lat="43.1581" lon="5.68951">
        <ele>139</ele>
        <time>2020-02-12T08:57:21Z</time>
      </trkpt>
      <trkpt lat="43.15808" lon="5.68943">
        <ele>138</ele>
        <time>2020-02-12T08:57:27Z</time>
      </trkpt>
      <trkpt lat="43.15809" lon="5.68935">
        <ele>136</ele>
        <time>2020-02-12T08:57:33Z</time>
      </trkpt>
      <trkpt lat="43.1581" lon="5.68929">
        <ele>135</ele>
        <time>2020-02-12T08:57:39Z</time>
      </trkpt>
      <trkpt lat="43.15813" lon="5.68923">
        <ele>134</ele>
        <time>2020-02-12T08:57:45Z</time>
      </trkpt>
      <trkpt lat="43.15815" lon="5.68916">
        <ele>132</ele>
        <time>2020-02-12T08:57:51Z</time>
      </trkpt>
      <trkpt lat="43.15815" lon="5.68907">
        <ele>133</ele>
        <time>2020-02-12T08:57:57Z</time>
      </trkpt>
      <trkpt lat="43.15813" lon="5.68901">
        <ele>135</ele>
        <time>2020-02-12T08:58:01Z</time>
      </trkpt>
      <trkpt lat="43.15809" lon="5.68894">
        <ele>137</ele>
        <time>2020-02-12T08:58:05Z</time>
      </trkpt>
      <trkpt lat="43.15806" lon="5.68888">
        <ele>141</ele>
        <time>2020-02-12T08:58:09Z</time>
      </trkpt>
      <trkpt lat="43.15802" lon="5.68884">
        <ele>141</ele>
        <time>2020-02-12T08:58:13Z</time>
      </trkpt>
      <trkpt lat="43.15797" lon="5.6888">
        <ele>141</ele>
        <time>2020-02-12T08:58:19Z</time>
      </trkpt>
      <trkpt lat="43.15792" lon="5.68876">
        <ele>140</ele>
        <time>2020-02-12T08:58:25Z</time>
      </trkpt>
      <trkpt lat="43.15789" lon="5.6887">
        <ele>138</ele>
        <time>2020-02-12T08:58:31Z</time>
      </trkpt>
      <trkpt lat="43.15785" lon="5.68863">
        <ele>142</ele>
        <time>2020-02-12T08:58:37Z</time>
      </trkpt>
      <trkpt lat="43.15781" lon="5.68855">
        <ele>142</ele>
        <time>2020-02-12T08:58:43Z</time>
      </trkpt>
      <trkpt lat="43.15777" lon="5.68849">
        <ele>144</ele>
        <time>2020-02-12T08:58:49Z</time>
      </trkpt>
      <trkpt lat="43.15774" lon="5.68844">
        <ele>145</ele>
        <time>2020-02-12T08:58:55Z</time>
      </trkpt>
      <trkpt lat="43.15771" lon="5.68838">
        <ele>144</ele>
        <time>2020-02-12T08:59:01Z</time>
      </trkpt>
      <trkpt lat="43.15767" lon="5.68831">
        <ele>147</ele>
        <time>2020-02-12T08:59:07Z</time>
      </trkpt>
      <trkpt lat="43.15764" lon="5.68825">
        <ele>146</ele>
        <time>2020-02-12T08:59:13Z</time>
      </trkpt>
      <trkpt lat="43.15761" lon="5.68818">
        <ele>147</ele>
        <time>2020-02-12T08:59:19Z</time>
      </trkpt>
      <trkpt lat="43.15757" lon="5.68812">
        <ele>148</ele>
        <time>2020-02-12T08:59:25Z</time>
      </trkpt>
      <trkpt lat="43.15753" lon="5.68807">
        <ele>150</ele>
        <time>2020-02-12T08:59:31Z</time>
      </trkpt>
      <trkpt lat="43.15749" lon="5.68802">
        <ele>150</ele>
        <time>2020-02-12T08:59:37Z</time>
      </trkpt>
      <trkpt lat="43.15746" lon="5.68796">
        <ele>150</ele>
        <time>2020-02-12T08:59:43Z</time>
      </trkpt>
      <trkpt lat="43.15742" lon="5.68791">
        <ele>152</ele>
        <time>2020-02-12T08:59:49Z</time>
      </trkpt>
      <trkpt lat="43.15738" lon="5.68784">
        <ele>155</ele>
        <time>2020-02-12T08:59:55Z</time>
      </trkpt>
      <trkpt lat="43.15733" lon="5.68779">
        <ele>154</ele>
        <time>2020-02-12T09:00:01Z</time>
      </trkpt>
      <trkpt lat="43.15729" lon="5.68774">
        <ele>152</ele>
        <time>2020-02-12T09:00:07Z</time>
      </trkpt>
      <trkpt lat="43.15724" lon="5.68767">
        <ele>155</ele>
        <time>2020-02-12T09:00:13Z</time>
      </trkpt>
      <trkpt lat="43.15722" lon="5.6876">
        <ele>154</ele>
        <time>2020-02-12T09:00:19Z</time>
      </trkpt>
      <trkpt lat="43.15722" lon="5.68751">
        <ele>155</ele>
        <time>2020-02-12T09:00:25Z</time>
      </trkpt>
      <trkpt lat="43.15725" lon="5.68744">
        <ele>155</ele>
        <time>2020-02-12T09:00:31Z</time>
      </trkpt>
      <trkpt lat="43.15728" lon="5.68736">
        <ele>155</ele>
        <time>2020-02-12T09:00:37Z</time>
      </trkpt>
      <trkpt lat="43.15731" lon="5.68731">
        <ele>153</ele>
        <time>2020-02-12T09:00:43Z</time>
      </trkpt>
      <trkpt lat="43.15735" lon="5.68724">
        <ele>153</ele>
        <time>2020-02-12T09:00:49Z</time>
      </trkpt>
      <trkpt lat="43.15738" lon="5.68719">
        <ele>151</ele>
        <time>2020-02-12T09:00:55Z</time>
      </trkpt>
      <trkpt lat="43.15741" lon="5.68713">
        <ele>151</ele>
        <time>2020-02-12T09:01:01Z</time>
      </trkpt>
      <trkpt lat="43.15745" lon="5.68707">
        <ele>151</ele>
        <time>2020-02-12T09:01:07Z</time>
      </trkpt>
      <trkpt lat="43.15748" lon="5.68701">
        <ele>153</ele>
        <time>2020-02-12T09:01:13Z</time>
      </trkpt>
      <trkpt lat="43.15752" lon="5.68694">
        <ele>152</ele>
        <time>2020-02-12T09:01:19Z</time>
      </trkpt>
      <trkpt lat="43.15756" lon="5.68689">
        <ele>150</ele>
        <time>2020-02-12T09:01:25Z</time>
      </trkpt>
      <trkpt lat="43.15759" lon="5.68683">
        <ele>151</ele>
        <time>2020-02-12T09:01:29Z</time>
      </trkpt>
      <trkpt lat="43.15762" lon="5.68678">
        <ele>151</ele>
        <time>2020-02-12T09:01:33Z</time>
      </trkpt>
      <trkpt lat="43.15766" lon="5.68672">
        <ele>151</ele>
        <time>2020-02-12T09:01:39Z</time>
      </trkpt>
      <trkpt lat="43.1577" lon="5.68665">
        <ele>151</ele>
        <time>2020-02-12T09:01:45Z</time>
      </trkpt>
      <trkpt lat="43.15772" lon="5.68658">
        <ele>149</ele>
        <time>2020-02-12T09:01:51Z</time>
      </trkpt>
      <trkpt lat="43.15773" lon="5.6865">
        <ele>147</ele>
        <time>2020-02-12T09:01:59Z</time>
      </trkpt>
      <trkpt lat="43.15772" lon="5.68643">
        <ele>147</ele>
        <time>2020-02-12T09:02:05Z</time>
      </trkpt>
      <trkpt lat="43.1577" lon="5.68635">
        <ele>145</ele>
        <time>2020-02-12T09:02:11Z</time>
      </trkpt>
      <trkpt lat="43.15768" lon="5.68628">
        <ele>144</ele>
        <time>2020-02-12T09:02:17Z</time>
      </trkpt>
      <trkpt lat="43.15765" lon="5.68621">
        <ele>141</ele>
        <time>2020-02-12T09:02:23Z</time>
      </trkpt>
      <trkpt lat="43.15763" lon="5.68615">
        <ele>140</ele>
        <time>2020-02-12T09:02:27Z</time>
      </trkpt>
      <trkpt lat="43.15758" lon="5.68609">
        <ele>139</ele>
        <time>2020-02-12T09:02:33Z</time>
      </trkpt>
      <trkpt lat="43.15754" lon="5.68605">
        <ele>140</ele>
        <time>2020-02-12T09:02:37Z</time>
      </trkpt>
      <trkpt lat="43.1575" lon="5.68601">
        <ele>142</ele>
        <time>2020-02-12T09:02:41Z</time>
      </trkpt>
      <trkpt lat="43.15746" lon="5.68597">
        <ele>141</ele>
        <time>2020-02-12T09:02:45Z</time>
      </trkpt>
      <trkpt lat="43.15742" lon="5.68592">
        <ele>140</ele>
        <time>2020-02-12T09:02:51Z</time>
      </trkpt>
      <trkpt lat="43.15736" lon="5.68585">
        <ele>142</ele>
        <time>2020-02-12T09:02:57Z</time>
      </trkpt>
      <trkpt lat="43.1573" lon="5.68581">
        <ele>143</ele>
        <time>2020-02-12T09:03:01Z</time>
      </trkpt>
      <trkpt lat="43.15726" lon="5.68578">
        <ele>200</ele>
        <time>2020-02-12T09:03:05Z</time>
      </trkpt>
      <trkpt lat="43.15721" lon="5.68575">
        <ele>170</ele>
        <time>2020-02-12T09:03:09Z</time>
      </trkpt>
      <trkpt lat="43.15718" lon="5.6857">
        <ele>158</ele>
        <time>2020-02-12T09:03:13Z</time>
      </trkpt>
      <trkpt lat="43.15713" lon="5.68564">
        <ele>150</ele>
        <time>2020-02-12T09:03:19Z</time>
      </trkpt>
      <trkpt lat="43.1571" lon="5.68559">
        <ele>147</ele>
        <time>2020-02-12T09:03:23Z</time>
      </trkpt>
      <trkpt lat="43.15706" lon="5.68552">
        <ele>146</ele>
        <time>2020-02-12T09:03:27Z</time>
      </trkpt>
      <trkpt lat="43.15703" lon="5.68547">
        <ele>145</ele>
        <time>2020-02-12T09:03:31Z</time>
      </trkpt>
      <trkpt lat="43.15701" lon="5.6854">
        <ele>145</ele>
        <time>2020-02-12T09:03:37Z</time>
      </trkpt>
      <trkpt lat="43.15699" lon="5.68533">
        <ele>145</ele>
        <time>2020-02-12T09:03:41Z</time>
      </trkpt>
      <trkpt lat="43.15696" lon="5.68528">
        <ele>146</ele>
        <time>2020-02-12T09:03:45Z</time>
      </trkpt>
      <trkpt lat="43.15693" lon="5.68522">
        <ele>146</ele>
        <time>2020-02-12T09:03:49Z</time>
      </trkpt>
      <trkpt lat="43.15689" lon="5.68518">
        <ele>144</ele>
        <time>2020-02-12T09:03:53Z</time>
      </trkpt>
      <trkpt lat="43.15686" lon="5.68513">
        <ele>145</ele>
        <time>2020-02-12T09:03:57Z</time>
      </trkpt>
      <trkpt lat="43.15682" lon="5.6851">
        <ele>145</ele>
        <time>2020-02-12T09:04:01Z</time>
      </trkpt>
      <trkpt lat="43.15678" lon="5.68506">
        <ele>144</ele>
        <time>2020-02-12T09:04:05Z</time>
      </trkpt>
      <trkpt lat="43.15672" lon="5.68502">
        <ele>142</ele>
        <time>2020-02-12T09:04:11Z</time>
      </trkpt>
      <trkpt lat="43.15667" lon="5.68498">
        <ele>142</ele>
        <time>2020-02-12T09:04:17Z</time>
      </trkpt>
      <trkpt lat="43.15662" lon="5.68494">
        <ele>144</ele>
        <time>2020-02-12T09:04:21Z</time>
      </trkpt>
      <trkpt lat="43.15658" lon="5.68491">
        <ele>146</ele>
        <time>2020-02-12T09:04:25Z</time>
      </trkpt>
      <trkpt lat="43.15653" lon="5.68488">
        <ele>146</ele>
        <time>2020-02-12T09:04:29Z</time>
      </trkpt>
      <trkpt lat="43.15649" lon="5.68486">
        <ele>146</ele>
        <time>2020-02-12T09:04:33Z</time>
      </trkpt>
      <trkpt lat="43.15644" lon="5.68482">
        <ele>147</ele>
        <time>2020-02-12T09:04:37Z</time>
      </trkpt>
      <trkpt lat="43.1564" lon="5.68479">
        <ele>148</ele>
        <time>2020-02-12T09:04:41Z</time>
      </trkpt>
      <trkpt lat="43.15635" lon="5.68475">
        <ele>149</ele>
        <time>2020-02-12T09:04:47Z</time>
      </trkpt>
      <trkpt lat="43.15632" lon="5.68469">
        <ele>146</ele>
        <time>2020-02-12T09:05:01Z</time>
      </trkpt>
      <trkpt lat="43.15634" lon="5.68463">
        <ele>149</ele>
        <time>2020-02-12T09:05:23Z</time>
      </trkpt>
      <trkpt lat="43.15637" lon="5.68457">
        <ele>147</ele>
        <time>2020-02-12T09:05:29Z</time>
      </trkpt>
      <trkpt lat="43.15638" lon="5.68451">
        <ele>148</ele>
        <time>2020-02-12T09:05:33Z</time>
      </trkpt>
      <trkpt lat="43.15638" lon="5.68459">
        <ele>155</ele>
        <time>2020-02-12T09:06:45Z</time>
      </trkpt>
      <trkpt lat="43.15635" lon="5.68464">
        <ele>152</ele>
        <time>2020-02-12T09:06:53Z</time>
      </trkpt>
      <trkpt lat="43.1563" lon="5.68469">
        <ele>149</ele>
        <time>2020-02-12T09:07:01Z</time>
      </trkpt>
      <trkpt lat="43.15624" lon="5.68472">
        <ele>149</ele>
        <time>2020-02-12T09:07:09Z</time>
      </trkpt>
      <trkpt lat="43.1562" lon="5.68475">
        <ele>147</ele>
        <time>2020-02-12T09:07:19Z</time>
      </trkpt>
      <trkpt lat="43.15619" lon="5.68481">
        <ele>146</ele>
        <time>2020-02-12T09:07:27Z</time>
      </trkpt>
      <trkpt lat="43.15619" lon="5.68489">
        <ele>146</ele>
        <time>2020-02-12T09:07:37Z</time>
      </trkpt>
      <trkpt lat="43.15616" lon="5.68492">
        <ele>144</ele>
        <time>2020-02-12T09:07:53Z</time>
      </trkpt>
      <trkpt lat="43.15613" lon="5.68487">
        <ele>143</ele>
        <time>2020-02-12T09:08:13Z</time>
      </trkpt>
      <trkpt lat="43.1561" lon="5.68481">
        <ele>141</ele>
        <time>2020-02-12T09:08:25Z</time>
      </trkpt>
      <trkpt lat="43.15607" lon="5.68476">
        <ele>141</ele>
        <time>2020-02-12T09:08:35Z</time>
      </trkpt>
      <trkpt lat="43.15603" lon="5.68472">
        <ele>138</ele>
        <time>2020-02-12T09:08:45Z</time>
      </trkpt>
      <trkpt lat="43.15603" lon="5.68465">
        <ele>135</ele>
        <time>2020-02-12T09:08:59Z</time>
      </trkpt>
      <trkpt lat="43.15603" lon="5.68459">
        <ele>135</ele>
        <time>2020-02-12T09:09:07Z</time>
      </trkpt>
      <trkpt lat="43.15602" lon="5.68451">
        <ele>134</ele>
        <time>2020-02-12T09:09:23Z</time>
      </trkpt>
      <trkpt lat="43.156" lon="5.68445">
        <ele>134</ele>
        <time>2020-02-12T09:09:31Z</time>
      </trkpt>
      <trkpt lat="43.15598" lon="5.68437">
        <ele>129</ele>
        <time>2020-02-12T09:09:43Z</time>
      </trkpt>
      <trkpt lat="43.15603" lon="5.68434">
        <ele>127</ele>
        <time>2020-02-12T09:09:55Z</time>
      </trkpt>
      <trkpt lat="43.15608" lon="5.68432">
        <ele>132</ele>
        <time>2020-02-12T09:10:03Z</time>
      </trkpt>
      <trkpt lat="43.15614" lon="5.68431">
        <ele>136</ele>
        <time>2020-02-12T09:10:19Z</time>
      </trkpt>
      <trkpt lat="43.15615" lon="5.68424">
        <ele>132</ele>
        <time>2020-02-12T09:10:33Z</time>
      </trkpt>
      <trkpt lat="43.15617" lon="5.68417">
        <ele>131</ele>
        <time>2020-02-12T09:10:41Z</time>
      </trkpt>
      <trkpt lat="43.1562" lon="5.68413">
        <ele>131</ele>
        <time>2020-02-12T09:10:47Z</time>
      </trkpt>
      <trkpt lat="43.15623" lon="5.68407">
        <ele>129</ele>
        <time>2020-02-12T09:10:55Z</time>
      </trkpt>
      <trkpt lat="43.15627" lon="5.68402">
        <ele>130</ele>
        <time>2020-02-12T09:11:07Z</time>
      </trkpt>
      <trkpt lat="43.15631" lon="5.68402">
        <ele>133</ele>
        <time>2020-02-12T09:11:15Z</time>
      </trkpt>
      <trkpt lat="43.15627" lon="5.68404">
        <ele>130</ele>
        <time>2020-02-12T09:13:03Z</time>
      </trkpt>
      <trkpt lat="43.15622" lon="5.68404">
        <ele>127</ele>
        <time>2020-02-12T09:13:11Z</time>
      </trkpt>
      <trkpt lat="43.1562" lon="5.68398">
        <ele>128</ele>
        <time>2020-02-12T09:14:13Z</time>
      </trkpt>
      <trkpt lat="43.15624" lon="5.68403">
        <ele>128</ele>
        <time>2020-02-12T09:14:37Z</time>
      </trkpt>
      <trkpt lat="43.15629" lon="5.68402">
        <ele>131</ele>
        <time>2020-02-12T09:14:45Z</time>
      </trkpt>
      <trkpt lat="43.15635" lon="5.68401">
        <ele>133</ele>
        <time>2020-02-12T09:14:53Z</time>
      </trkpt>
      <trkpt lat="43.15638" lon="5.68406">
        <ele>137</ele>
        <time>2020-02-12T09:15:23Z</time>
      </trkpt>
      <trkpt lat="43.15642" lon="5.68411">
        <ele>138</ele>
        <time>2020-02-12T09:15:31Z</time>
      </trkpt>
      <trkpt lat="43.15646" lon="5.68408">
        <ele>139</ele>
        <time>2020-02-12T09:15:37Z</time>
      </trkpt>
      <trkpt lat="43.15651" lon="5.68404">
        <ele>139</ele>
        <time>2020-02-12T09:15:45Z</time>
      </trkpt>
      <trkpt lat="43.15655" lon="5.68408">
        <ele>144</ele>
        <time>2020-02-12T09:15:59Z</time>
      </trkpt>
      <trkpt lat="43.1566" lon="5.68411">
        <ele>147</ele>
        <time>2020-02-12T09:16:07Z</time>
      </trkpt>
      <trkpt lat="43.15661" lon="5.68417">
        <ele>148</ele>
        <time>2020-02-12T09:16:25Z</time>
      </trkpt>
      <trkpt lat="43.15666" lon="5.6842">
        <ele>147</ele>
        <time>2020-02-12T09:16:35Z</time>
      </trkpt>
      <trkpt lat="43.1566" lon="5.68419">
        <ele>145</ele>
        <time>2020-02-12T09:16:53Z</time>
      </trkpt>
      <trkpt lat="43.15656" lon="5.68423">
        <ele>146</ele>
        <time>2020-02-12T09:16:59Z</time>
      </trkpt>
      <trkpt lat="43.15651" lon="5.68425">
        <ele>145</ele>
        <time>2020-02-12T09:17:05Z</time>
      </trkpt>
      <trkpt lat="43.15657" lon="5.68421">
        <ele>147</ele>
        <time>2020-02-12T09:17:19Z</time>
      </trkpt>
      <trkpt lat="43.15661" lon="5.68416">
        <ele>146</ele>
        <time>2020-02-12T09:17:23Z</time>
      </trkpt>
      <trkpt lat="43.15658" lon="5.68411">
        <ele>144</ele>
        <time>2020-02-12T09:17:31Z</time>
      </trkpt>
      <trkpt lat="43.15652" lon="5.6841">
        <ele>142</ele>
        <time>2020-02-12T09:17:43Z</time>
      </trkpt>
      <trkpt lat="43.15648" lon="5.68408">
        <ele>137</ele>
        <time>2020-02-12T09:17:59Z</time>
      </trkpt>
      <trkpt lat="43.15644" lon="5.68413">
        <ele>136</ele>
        <time>2020-02-12T09:18:05Z</time>
      </trkpt>
      <trkpt lat="43.15641" lon="5.68409">
        <ele>135</ele>
        <time>2020-02-12T09:18:11Z</time>
      </trkpt>
      <trkpt lat="43.15637" lon="5.68405">
        <ele>132</ele>
        <time>2020-02-12T09:18:19Z</time>
      </trkpt>
      <trkpt lat="43.15632" lon="5.68403">
        <ele>128</ele>
        <time>2020-02-12T09:18:27Z</time>
      </trkpt>
      <trkpt lat="43.15627" lon="5.68405">
        <ele>125</ele>
        <time>2020-02-12T09:18:35Z</time>
      </trkpt>
      <trkpt lat="43.15622" lon="5.684">
        <ele>124</ele>
        <time>2020-02-12T09:18:41Z</time>
      </trkpt>
      <trkpt lat="43.15619" lon="5.68395">
        <ele>121</ele>
        <time>2020-02-12T09:18:49Z</time>
      </trkpt>
      <trkpt lat="43.15615" lon="5.6839">
        <ele>121</ele>
        <time>2020-02-12T09:18:55Z</time>
      </trkpt>
      <trkpt lat="43.15611" lon="5.68389">
        <ele>119</ele>
        <time>2020-02-12T09:19:01Z</time>
      </trkpt>
      <trkpt lat="43.15606" lon="5.68391">
        <ele>117</ele>
        <time>2020-02-12T09:19:07Z</time>
      </trkpt>
      <trkpt lat="43.15601" lon="5.68393">
        <ele>117</ele>
        <time>2020-02-12T09:19:13Z</time>
      </trkpt>
      <trkpt lat="43.15597" lon="5.68395">
        <ele>117</ele>
        <time>2020-02-12T09:19:17Z</time>
      </trkpt>
      <trkpt lat="43.15593" lon="5.68391">
        <ele>114</ele>
        <time>2020-02-12T09:19:25Z</time>
      </trkpt>
      <trkpt lat="43.15592" lon="5.68385">
        <ele>112</ele>
        <time>2020-02-12T09:19:31Z</time>
      </trkpt>
      <trkpt lat="43.15587" lon="5.68384">
        <ele>111</ele>
        <time>2020-02-12T09:19:39Z</time>
      </trkpt>
      <trkpt lat="43.15584" lon="5.68378">
        <ele>110</ele>
        <time>2020-02-12T09:19:47Z</time>
      </trkpt>
      <trkpt lat="43.15581" lon="5.68371">
        <ele>107</ele>
        <time>2020-02-12T09:19:55Z</time>
      </trkpt>
      <trkpt lat="43.15577" lon="5.68368">
        <ele>105</ele>
        <time>2020-02-12T09:20:01Z</time>
      </trkpt>
      <trkpt lat="43.15573" lon="5.68373">
        <ele>103</ele>
        <time>2020-02-12T09:20:07Z</time>
      </trkpt>
      <trkpt lat="43.15571" lon="5.68379">
        <ele>100</ele>
        <time>2020-02-12T09:20:17Z</time>
      </trkpt>
      <trkpt lat="43.15568" lon="5.68384">
        <ele>100</ele>
        <time>2020-02-12T09:20:23Z</time>
      </trkpt>
      <trkpt lat="43.15566" lon="5.68391">
        <ele>98</ele>
        <time>2020-02-12T09:20:31Z</time>
      </trkpt>
      <trkpt lat="43.15564" lon="5.68399">
        <ele>99</ele>
        <time>2020-02-12T09:20:39Z</time>
      </trkpt>
      <trkpt lat="43.15561" lon="5.68405">
        <ele>100</ele>
        <time>2020-02-12T09:20:43Z</time>
      </trkpt>
      <trkpt lat="43.15558" lon="5.6841">
        <ele>100</ele>
        <time>2020-02-12T09:20:47Z</time>
      </trkpt>
      <trkpt lat="43.15556" lon="5.68416">
        <ele>95</ele>
        <time>2020-02-12T09:20:53Z</time>
      </trkpt>
      <trkpt lat="43.15553" lon="5.68421">
        <ele>96</ele>
        <time>2020-02-12T09:20:59Z</time>
      </trkpt>
      <trkpt lat="43.15551" lon="5.68429">
        <ele>98</ele>
        <time>2020-02-12T09:21:05Z</time>
      </trkpt>
      <trkpt lat="43.15547" lon="5.68435">
        <ele>96</ele>
        <time>2020-02-12T09:21:13Z</time>
      </trkpt>
      <trkpt lat="43.15542" lon="5.68441">
        <ele>96</ele>
        <time>2020-02-12T09:21:17Z</time>
      </trkpt>
      <trkpt lat="43.15536" lon="5.68447">
        <ele>95</ele>
        <time>2020-02-12T09:21:21Z</time>
      </trkpt>
      <trkpt lat="43.15531" lon="5.68454">
        <ele>95</ele>
        <time>2020-02-12T09:21:25Z</time>
      </trkpt>
      <trkpt lat="43.15528" lon="5.68461">
        <ele>92</ele>
        <time>2020-02-12T09:21:29Z</time>
      </trkpt>
      <trkpt lat="43.15527" lon="5.6847">
        <ele>94</ele>
        <time>2020-02-12T09:21:33Z</time>
      </trkpt>
      <trkpt lat="43.15528" lon="5.68477">
        <ele>92</ele>
        <time>2020-02-12T09:21:37Z</time>
      </trkpt>
      <trkpt lat="43.15528" lon="5.68485">
        <ele>95</ele>
        <time>2020-02-12T09:21:43Z</time>
      </trkpt>
      <trkpt lat="43.15527" lon="5.68494">
        <ele>93</ele>
        <time>2020-02-12T09:21:49Z</time>
      </trkpt>
      <trkpt lat="43.15527" lon="5.685">
        <ele>93</ele>
        <time>2020-02-12T09:21:57Z</time>
      </trkpt>
      <trkpt lat="43.15528" lon="5.68507">
        <ele>91</ele>
        <time>2020-02-12T09:22:03Z</time>
      </trkpt>
      <trkpt lat="43.1553" lon="5.68513">
        <ele>87</ele>
        <time>2020-02-12T09:24:37Z</time>
      </trkpt>
      <trkpt lat="43.15528" lon="5.68519">
        <ele>86</ele>
        <time>2020-02-12T09:25:35Z</time>
      </trkpt>
      <trkpt lat="43.15531" lon="5.68525">
        <ele>85</ele>
        <time>2020-02-12T09:25:45Z</time>
      </trkpt>
      <trkpt lat="43.15529" lon="5.68532">
        <ele>85</ele>
        <time>2020-02-12T09:25:49Z</time>
      </trkpt>
      <trkpt lat="43.15528" lon="5.68538">
        <ele>86</ele>
        <time>2020-02-12T09:25:53Z</time>
      </trkpt>
      <trkpt lat="43.15529" lon="5.68548">
        <ele>83</ele>
        <time>2020-02-12T09:26:01Z</time>
      </trkpt>
      <trkpt lat="43.15529" lon="5.68554">
        <ele>83</ele>
        <time>2020-02-12T09:26:05Z</time>
      </trkpt>
      <trkpt lat="43.1553" lon="5.68563">
        <ele>84</ele>
        <time>2020-02-12T09:26:11Z</time>
      </trkpt>
      <trkpt lat="43.15531" lon="5.6857">
        <ele>84</ele>
        <time>2020-02-12T09:26:15Z</time>
      </trkpt>
      <trkpt lat="43.15535" lon="5.68575">
        <ele>83</ele>
        <time>2020-02-12T09:26:21Z</time>
      </trkpt>
      <trkpt lat="43.15538" lon="5.68582">
        <ele>84</ele>
        <time>2020-02-12T09:26:27Z</time>
      </trkpt>
      <trkpt lat="43.15541" lon="5.68587">
        <ele>83</ele>
        <time>2020-02-12T09:26:33Z</time>
      </trkpt>
      <trkpt lat="43.15544" lon="5.68593">
        <ele>86</ele>
        <time>2020-02-12T09:26:39Z</time>
      </trkpt>
      <trkpt lat="43.15551" lon="5.68596">
        <ele>85</ele>
        <time>2020-02-12T09:26:45Z</time>
      </trkpt>
      <trkpt lat="43.15555" lon="5.68601">
        <ele>85</ele>
        <time>2020-02-12T09:26:51Z</time>
      </trkpt>
      <trkpt lat="43.15559" lon="5.68603">
        <ele>86</ele>
        <time>2020-02-12T09:26:55Z</time>
      </trkpt>
      <trkpt lat="43.15563" lon="5.68607">
        <ele>83</ele>
        <time>2020-02-12T09:27:01Z</time>
      </trkpt>
      <trkpt lat="43.15567" lon="5.68608">
        <ele>88</ele>
        <time>2020-02-12T09:27:11Z</time>
      </trkpt>
      <trkpt lat="43.15565" lon="5.68615">
        <ele>88</ele>
        <time>2020-02-12T09:27:21Z</time>
      </trkpt>
      <trkpt lat="43.15562" lon="5.68621">
        <ele>90</ele>
        <time>2020-02-12T09:27:25Z</time>
      </trkpt>
      <trkpt lat="43.15558" lon="5.68626">
        <ele>92</ele>
        <time>2020-02-12T09:27:29Z</time>
      </trkpt>
      <trkpt lat="43.15555" lon="5.6863">
        <ele>91</ele>
        <time>2020-02-12T09:27:33Z</time>
      </trkpt>
      <trkpt lat="43.15552" lon="5.68636">
        <ele>90</ele>
        <time>2020-02-12T09:27:39Z</time>
      </trkpt>
      <trkpt lat="43.15549" lon="5.68643">
        <ele>87</ele>
        <time>2020-02-12T09:27:47Z</time>
      </trkpt>
      <trkpt lat="43.15545" lon="5.68647">
        <ele>87</ele>
        <time>2020-02-12T09:27:53Z</time>
      </trkpt>
      <trkpt lat="43.15542" lon="5.68655">
        <ele>85</ele>
        <time>2020-02-12T09:28:01Z</time>
      </trkpt>
      <trkpt lat="43.15538" lon="5.68661">
        <ele>88</ele>
        <time>2020-02-12T09:28:11Z</time>
      </trkpt>
      <trkpt lat="43.15536" lon="5.68669">
        <ele>87</ele>
        <time>2020-02-12T09:28:17Z</time>
      </trkpt>
      <trkpt lat="43.15531" lon="5.68676">
        <ele>87</ele>
        <time>2020-02-12T09:28:23Z</time>
      </trkpt>
      <trkpt lat="43.15526" lon="5.68681">
        <ele>88</ele>
        <time>2020-02-12T09:28:27Z</time>
      </trkpt>
      <trkpt lat="43.1552" lon="5.68685">
        <ele>90</ele>
        <time>2020-02-12T09:28:31Z</time>
      </trkpt>
      <trkpt lat="43.15515" lon="5.68688">
        <ele>91</ele>
        <time>2020-02-12T09:28:35Z</time>
      </trkpt>
      <trkpt lat="43.15511" lon="5.68692">
        <ele>91</ele>
        <time>2020-02-12T09:28:39Z</time>
      </trkpt>
      <trkpt lat="43.15507" lon="5.68696">
        <ele>91</ele>
        <time>2020-02-12T09:28:47Z</time>
      </trkpt>
      <trkpt lat="43.15504" lon="5.68703">
        <ele>89</ele>
        <time>2020-02-12T09:29:07Z</time>
      </trkpt>
      <trkpt lat="43.15501" lon="5.68708">
        <ele>89</ele>
        <time>2020-02-12T09:29:11Z</time>
      </trkpt>
      <trkpt lat="43.15497" lon="5.68714">
        <ele>90</ele>
        <time>2020-02-12T09:29:15Z</time>
      </trkpt>
      <trkpt lat="43.15494" lon="5.68721">
        <ele>91</ele>
        <time>2020-02-12T09:29:19Z</time>
      </trkpt>
      <trkpt lat="43.1549" lon="5.68727">
        <ele>92</ele>
        <time>2020-02-12T09:29:23Z</time>
      </trkpt>
      <trkpt lat="43.15488" lon="5.68733">
        <ele>91</ele>
        <time>2020-02-12T09:29:27Z</time>
      </trkpt>
      <trkpt lat="43.15485" lon="5.68739">
        <ele>92</ele>
        <time>2020-02-12T09:29:31Z</time>
      </trkpt>
      <trkpt lat="43.15482" lon="5.68745">
        <ele>94</ele>
        <time>2020-02-12T09:29:35Z</time>
      </trkpt>
      <trkpt lat="43.15479" lon="5.68753">
        <ele>97</ele>
        <time>2020-02-12T09:29:41Z</time>
      </trkpt>
      <trkpt lat="43.15474" lon="5.68757">
        <ele>94</ele>
        <time>2020-02-12T09:29:51Z</time>
      </trkpt>
      <trkpt lat="43.15471" lon="5.68762">
        <ele>95</ele>
        <time>2020-02-12T09:29:55Z</time>
      </trkpt>
      <trkpt lat="43.15466" lon="5.68768">
        <ele>94</ele>
        <time>2020-02-12T09:30:01Z</time>
      </trkpt>
      <trkpt lat="43.15462" lon="5.68773">
        <ele>96</ele>
        <time>2020-02-12T09:30:05Z</time>
      </trkpt>
      <trkpt lat="43.15459" lon="5.68777">
        <ele>99</ele>
        <time>2020-02-12T09:30:11Z</time>
      </trkpt>
      <trkpt lat="43.15456" lon="5.68783">
        <ele>97</ele>
        <time>2020-02-12T09:30:19Z</time>
      </trkpt>
      <trkpt lat="43.15451" lon="5.68786">
        <ele>95</ele>
        <time>2020-02-12T09:30:31Z</time>
      </trkpt>
      <trkpt lat="43.15447" lon="5.68788">
        <ele>93</ele>
        <time>2020-02-12T09:30:37Z</time>
      </trkpt>
      <trkpt lat="43.1544" lon="5.68791">
        <ele>94</ele>
        <time>2020-02-12T09:30:43Z</time>
      </trkpt>
      <trkpt lat="43.15436" lon="5.68794">
        <ele>95</ele>
        <time>2020-02-12T09:30:47Z</time>
      </trkpt>
      <trkpt lat="43.15432" lon="5.68797">
        <ele>95</ele>
        <time>2020-02-12T09:30:51Z</time>
      </trkpt>
      <trkpt lat="43.15427" lon="5.68801">
        <ele>95</ele>
        <time>2020-02-12T09:30:55Z</time>
      </trkpt>
      <trkpt lat="43.15423" lon="5.68807">
        <ele>92</ele>
        <time>2020-02-12T09:31:01Z</time>
      </trkpt>
      <trkpt lat="43.15419" lon="5.68811">
        <ele>90</ele>
        <time>2020-02-12T09:31:09Z</time>
      </trkpt>
      <trkpt lat="43.15413" lon="5.68816">
        <ele>87</ele>
        <time>2020-02-12T09:31:17Z</time>
      </trkpt>
      <trkpt lat="43.15407" lon="5.68819">
        <ele>89</ele>
        <time>2020-02-12T09:31:23Z</time>
      </trkpt>
      <trkpt lat="43.154" lon="5.68819">
        <ele>91</ele>
        <time>2020-02-12T09:31:29Z</time>
      </trkpt>
      <trkpt lat="43.15396" lon="5.68819">
        <ele>91</ele>
        <time>2020-02-12T09:31:33Z</time>
      </trkpt>
      <trkpt lat="43.1539" lon="5.68819">
        <ele>90</ele>
        <time>2020-02-12T09:31:39Z</time>
      </trkpt>
      <trkpt lat="43.15386" lon="5.68821">
        <ele>89</ele>
        <time>2020-02-12T09:31:45Z</time>
      </trkpt>
      <trkpt lat="43.15381" lon="5.68821">
        <ele>89</ele>
        <time>2020-02-12T09:31:53Z</time>
      </trkpt>
      <trkpt lat="43.15376" lon="5.68821">
        <ele>88</ele>
        <time>2020-02-12T09:32:03Z</time>
      </trkpt>
      <trkpt lat="43.15371" lon="5.68822">
        <ele>87</ele>
        <time>2020-02-12T09:32:13Z</time>
      </trkpt>
      <trkpt lat="43.15368" lon="5.68829">
        <ele>88</ele>
        <time>2020-02-12T09:32:21Z</time>
      </trkpt>
      <trkpt lat="43.15366" lon="5.68836">
        <ele>87</ele>
        <time>2020-02-12T09:32:31Z</time>
      </trkpt>
      <trkpt lat="43.15367" lon="5.68843">
        <ele>87</ele>
        <time>2020-02-12T09:32:37Z</time>
      </trkpt>
      <trkpt lat="43.15368" lon="5.68849">
        <ele>88</ele>
        <time>2020-02-12T09:32:41Z</time>
      </trkpt>
      <trkpt lat="43.15369" lon="5.68857">
        <ele>89</ele>
        <time>2020-02-12T09:32:45Z</time>
      </trkpt>
      <trkpt lat="43.15371" lon="5.68864">
        <ele>90</ele>
        <time>2020-02-12T09:32:49Z</time>
      </trkpt>
      <trkpt lat="43.15376" lon="5.68872">
        <ele>91</ele>
        <time>2020-02-12T09:32:53Z</time>
      </trkpt>
      <trkpt lat="43.15378" lon="5.68879">
        <ele>92</ele>
        <time>2020-02-12T09:32:57Z</time>
      </trkpt>
      <trkpt lat="43.15378" lon="5.68887">
        <ele>91</ele>
        <time>2020-02-12T09:33:03Z</time>
      </trkpt>
      <trkpt lat="43.15378" lon="5.68895">
        <ele>91</ele>
        <time>2020-02-12T09:33:09Z</time>
      </trkpt>
      <trkpt lat="43.15376" lon="5.68901">
        <ele>89</ele>
        <time>2020-02-12T09:33:15Z</time>
      </trkpt>
      <trkpt lat="43.15375" lon="5.68907">
        <ele>89</ele>
        <time>2020-02-12T09:33:19Z</time>
      </trkpt>
      <trkpt lat="43.15373" lon="5.68915">
        <ele>88</ele>
        <time>2020-02-12T09:33:25Z</time>
      </trkpt>
      <trkpt lat="43.15371" lon="5.68921">
        <ele>91</ele>
        <time>2020-02-12T09:33:31Z</time>
      </trkpt>
      <trkpt lat="43.1537" lon="5.68928">
        <ele>128</ele>
        <time>2020-02-12T09:33:37Z</time>
      </trkpt>
      <trkpt lat="43.15368" lon="5.68934">
        <ele>100</ele>
        <time>2020-02-12T09:33:45Z</time>
      </trkpt>
      <trkpt lat="43.15368" lon="5.68942">
        <ele>97</ele>
        <time>2020-02-12T09:33:51Z</time>
      </trkpt>
      <trkpt lat="43.15367" lon="5.68949">
        <ele>92</ele>
        <time>2020-02-12T09:33:57Z</time>
      </trkpt>
      <trkpt lat="43.15365" lon="5.68957">
        <ele>90</ele>
        <time>2020-02-12T09:34:05Z</time>
      </trkpt>
      <trkpt lat="43.15364" lon="5.68964">
        <ele>88</ele>
        <time>2020-02-12T09:34:11Z</time>
      </trkpt>
      <trkpt lat="43.15364" lon="5.68972">
        <ele>87</ele>
        <time>2020-02-12T09:34:17Z</time>
      </trkpt>
      <trkpt lat="43.15366" lon="5.68978">
        <ele>85</ele>
        <time>2020-02-12T09:34:23Z</time>
      </trkpt>
      <trkpt lat="43.15371" lon="5.68979">
        <ele>84</ele>
        <time>2020-02-12T09:34:29Z</time>
      </trkpt>
      <trkpt lat="43.15376" lon="5.6898">
        <ele>82</ele>
        <time>2020-02-12T09:34:37Z</time>
      </trkpt>
      <trkpt lat="43.15382" lon="5.68981">
        <ele>82</ele>
        <time>2020-02-12T09:34:43Z</time>
      </trkpt>
      <trkpt lat="43.15386" lon="5.68984">
        <ele>84</ele>
        <time>2020-02-12T09:34:49Z</time>
      </trkpt>
      <trkpt lat="43.1539" lon="5.68987">
        <ele>85</ele>
        <time>2020-02-12T09:35:05Z</time>
      </trkpt>
      <trkpt lat="43.15395" lon="5.68992">
        <ele>83</ele>
        <time>2020-02-12T09:35:11Z</time>
      </trkpt>
      <trkpt lat="43.15396" lon="5.68999">
        <ele>82</ele>
        <time>2020-02-12T09:35:19Z</time>
      </trkpt>
      <trkpt lat="43.15392" lon="5.69004">
        <ele>81</ele>
        <time>2020-02-12T09:35:23Z</time>
      </trkpt>
      <trkpt lat="43.15388" lon="5.69008">
        <ele>81</ele>
        <time>2020-02-12T09:35:27Z</time>
      </trkpt>
      <trkpt lat="43.15383" lon="5.69011">
        <ele>83</ele>
        <time>2020-02-12T09:35:31Z</time>
      </trkpt>
      <trkpt lat="43.15378" lon="5.69016">
        <ele>84</ele>
        <time>2020-02-12T09:35:39Z</time>
      </trkpt>
      <trkpt lat="43.15376" lon="5.69023">
        <ele>83</ele>
        <time>2020-02-12T09:35:45Z</time>
      </trkpt>
      <trkpt lat="43.15374" lon="5.6903">
        <ele>84</ele>
        <time>2020-02-12T09:35:51Z</time>
      </trkpt>
      <trkpt lat="43.1537" lon="5.69035">
        <ele>81</ele>
        <time>2020-02-12T09:35:57Z</time>
      </trkpt>
      <trkpt lat="43.15366" lon="5.6904">
        <ele>81</ele>
        <time>2020-02-12T09:36:03Z</time>
      </trkpt>
      <trkpt lat="43.15362" lon="5.69047">
        <ele>81</ele>
        <time>2020-02-12T09:36:09Z</time>
      </trkpt>
      <trkpt lat="43.15358" lon="5.6905">
        <ele>82</ele>
        <time>2020-02-12T09:36:21Z</time>
      </trkpt>
      <trkpt lat="43.15354" lon="5.69055">
        <ele>81</ele>
        <time>2020-02-12T09:36:27Z</time>
      </trkpt>
      <trkpt lat="43.1535" lon="5.69062">
        <ele>82</ele>
        <time>2020-02-12T09:36:33Z</time>
      </trkpt>
      <trkpt lat="43.15347" lon="5.69069">
        <ele>83</ele>
        <time>2020-02-12T09:36:39Z</time>
      </trkpt>
      <trkpt lat="43.15344" lon="5.69076">
        <ele>84</ele>
        <time>2020-02-12T09:36:45Z</time>
      </trkpt>
      <trkpt lat="43.15342" lon="5.69083">
        <ele>82</ele>
        <time>2020-02-12T09:36:51Z</time>
      </trkpt>
      <trkpt lat="43.15341" lon="5.6909">
        <ele>82</ele>
        <time>2020-02-12T09:36:57Z</time>
      </trkpt>
      <trkpt lat="43.15341" lon="5.69098">
        <ele>84</ele>
        <time>2020-02-12T09:37:03Z</time>
      </trkpt>
      <trkpt lat="43.1534" lon="5.69104">
        <ele>83</ele>
        <time>2020-02-12T09:37:09Z</time>
      </trkpt>
      <trkpt lat="43.15339" lon="5.69112">
        <ele>85</ele>
        <time>2020-02-12T09:37:17Z</time>
      </trkpt>
      <trkpt lat="43.1534" lon="5.69118">
        <ele>84</ele>
        <time>2020-02-12T09:37:23Z</time>
      </trkpt>
      <trkpt lat="43.15342" lon="5.69124">
        <ele>86</ele>
        <time>2020-02-12T09:37:29Z</time>
      </trkpt>
      <trkpt lat="43.15344" lon="5.6913">
        <ele>88</ele>
        <time>2020-02-12T09:37:33Z</time>
      </trkpt>
      <trkpt lat="43.15347" lon="5.69138">
        <ele>86</ele>
        <time>2020-02-12T09:37:39Z</time>
      </trkpt>
      <trkpt lat="43.15349" lon="5.69146">
        <ele>86</ele>
        <time>2020-02-12T09:37:45Z</time>
      </trkpt>
      <trkpt lat="43.15353" lon="5.69153">
        <ele>87</ele>
        <time>2020-02-12T09:37:51Z</time>
      </trkpt>
      <trkpt lat="43.15353" lon="5.6916">
        <ele>85</ele>
        <time>2020-02-12T09:37:57Z</time>
      </trkpt>
      <trkpt lat="43.15356" lon="5.69169">
        <ele>86</ele>
        <time>2020-02-12T09:38:03Z</time>
      </trkpt>
      <trkpt lat="43.15358" lon="5.69176">
        <ele>86</ele>
        <time>2020-02-12T09:38:07Z</time>
      </trkpt>
      <trkpt lat="43.15356" lon="5.69183">
        <ele>88</ele>
        <time>2020-02-12T09:38:11Z</time>
      </trkpt>
      <trkpt lat="43.15353" lon="5.69189">
        <ele>88</ele>
        <time>2020-02-12T09:38:15Z</time>
      </trkpt>
      <trkpt lat="43.1535" lon="5.69195">
        <ele>87</ele>
        <time>2020-02-12T09:38:19Z</time>
      </trkpt>
      <trkpt lat="43.15348" lon="5.69201">
        <ele>86</ele>
        <time>2020-02-12T09:38:23Z</time>
      </trkpt>
      <trkpt lat="43.15344" lon="5.69205">
        <ele>87</ele>
        <time>2020-02-12T09:38:27Z</time>
      </trkpt>
      <trkpt lat="43.1534" lon="5.69209">
        <ele>86</ele>
        <time>2020-02-12T09:38:33Z</time>
      </trkpt>
      <trkpt lat="43.15336" lon="5.69216">
        <ele>84</ele>
        <time>2020-02-12T09:38:41Z</time>
      </trkpt>
      <trkpt lat="43.15334" lon="5.69223">
        <ele>81</ele>
        <time>2020-02-12T09:38:49Z</time>
      </trkpt>
      <trkpt lat="43.15332" lon="5.6923">
        <ele>82</ele>
        <time>2020-02-12T09:38:57Z</time>
      </trkpt>
      <trkpt lat="43.15328" lon="5.69233">
        <ele>82</ele>
        <time>2020-02-12T09:39:05Z</time>
      </trkpt>
      <trkpt lat="43.15322" lon="5.69237">
        <ele>85</ele>
        <time>2020-02-12T09:39:15Z</time>
      </trkpt>
      <trkpt lat="43.15316" lon="5.69239">
        <ele>85</ele>
        <time>2020-02-12T09:39:21Z</time>
      </trkpt>
      <trkpt lat="43.15311" lon="5.6924">
        <ele>84</ele>
        <time>2020-02-12T09:39:25Z</time>
      </trkpt>
      <trkpt lat="43.15307" lon="5.69241">
        <ele>85</ele>
        <time>2020-02-12T09:39:29Z</time>
      </trkpt>
      <trkpt lat="43.15301" lon="5.69244">
        <ele>84</ele>
        <time>2020-02-12T09:39:35Z</time>
      </trkpt>
      <trkpt lat="43.15296" lon="5.69245">
        <ele>85</ele>
        <time>2020-02-12T09:39:39Z</time>
      </trkpt>
      <trkpt lat="43.1529" lon="5.69249">
        <ele>84</ele>
        <time>2020-02-12T09:39:45Z</time>
      </trkpt>
      <trkpt lat="43.15287" lon="5.69255">
        <ele>85</ele>
        <time>2020-02-12T09:39:49Z</time>
      </trkpt>
      <trkpt lat="43.15281" lon="5.69257">
        <ele>84</ele>
        <time>2020-02-12T09:39:55Z</time>
      </trkpt>
      <trkpt lat="43.15275" lon="5.69262">
        <ele>86</ele>
        <time>2020-02-12T09:40:01Z</time>
      </trkpt>
      <trkpt lat="43.15272" lon="5.69268">
        <ele>86</ele>
        <time>2020-02-12T09:40:07Z</time>
      </trkpt>
      <trkpt lat="43.15269" lon="5.69273">
        <ele>86</ele>
        <time>2020-02-12T09:40:13Z</time>
      </trkpt>
      <trkpt lat="43.15267" lon="5.6928">
        <ele>85</ele>
        <time>2020-02-12T09:40:19Z</time>
      </trkpt>
      <trkpt lat="43.15263" lon="5.69287">
        <ele>85</ele>
        <time>2020-02-12T09:40:25Z</time>
      </trkpt>
      <trkpt lat="43.1526" lon="5.69295">
        <ele>87</ele>
        <time>2020-02-12T09:40:31Z</time>
      </trkpt>
      <trkpt lat="43.15257" lon="5.69301">
        <ele>85</ele>
        <time>2020-02-12T09:40:37Z</time>
      </trkpt>
      <trkpt lat="43.15254" lon="5.69306">
        <ele>85</ele>
        <time>2020-02-12T09:40:43Z</time>
      </trkpt>
      <trkpt lat="43.15252" lon="5.69312">
        <ele>83</ele>
        <time>2020-02-12T09:40:49Z</time>
      </trkpt>
      <trkpt lat="43.1525" lon="5.6932">
        <ele>82</ele>
        <time>2020-02-12T09:40:57Z</time>
      </trkpt>
      <trkpt lat="43.15251" lon="5.69328">
        <ele>83</ele>
        <time>2020-02-12T09:41:03Z</time>
      </trkpt>
      <trkpt lat="43.15247" lon="5.69335">
        <ele>84</ele>
        <time>2020-02-12T09:41:09Z</time>
      </trkpt>
      <trkpt lat="43.15242" lon="5.69337">
        <ele>84</ele>
        <time>2020-02-12T09:41:15Z</time>
      </trkpt>
      <trkpt lat="43.15237" lon="5.69341">
        <ele>86</ele>
        <time>2020-02-12T09:41:19Z</time>
      </trkpt>
      <trkpt lat="43.15231" lon="5.69343">
        <ele>85</ele>
        <time>2020-02-12T09:41:25Z</time>
      </trkpt>
      <trkpt lat="43.15237" lon="5.69344">
        <ele>83</ele>
        <time>2020-02-12T09:42:21Z</time>
      </trkpt>
      <trkpt lat="43.15235" lon="5.69351">
        <ele>80</ele>
        <time>2020-02-12T09:42:49Z</time>
      </trkpt>
      <trkpt lat="43.1523" lon="5.69351">
        <ele>83</ele>
        <time>2020-02-12T09:42:53Z</time>
      </trkpt>
      <trkpt lat="43.15224" lon="5.6935">
        <ele>81</ele>
        <time>2020-02-12T09:42:59Z</time>
      </trkpt>
      <trkpt lat="43.15218" lon="5.6935">
        <ele>80</ele>
        <time>2020-02-12T09:43:05Z</time>
      </trkpt>
      <trkpt lat="43.15212" lon="5.69352">
        <ele>84</ele>
        <time>2020-02-12T09:43:11Z</time>
      </trkpt>
      <trkpt lat="43.15208" lon="5.69355">
        <ele>84</ele>
        <time>2020-02-12T09:43:17Z</time>
      </trkpt>
      <trkpt lat="43.15204" lon="5.69357">
        <ele>86</ele>
        <time>2020-02-12T09:43:21Z</time>
      </trkpt>
      <trkpt lat="43.15199" lon="5.69363">
        <ele>86</ele>
        <time>2020-02-12T09:43:27Z</time>
      </trkpt>
      <trkpt lat="43.15196" lon="5.69368">
        <ele>83</ele>
        <time>2020-02-12T09:43:33Z</time>
      </trkpt>
      <trkpt lat="43.15197" lon="5.69375">
        <ele>81</ele>
        <time>2020-02-12T09:43:41Z</time>
      </trkpt>
      <trkpt lat="43.15197" lon="5.69381">
        <ele>80</ele>
        <time>2020-02-12T09:43:53Z</time>
      </trkpt>
      <trkpt lat="43.15193" lon="5.69384">
        <ele>79</ele>
        <time>2020-02-12T09:44:01Z</time>
      </trkpt>
      <trkpt lat="43.15188" lon="5.69388">
        <ele>77</ele>
        <time>2020-02-12T09:44:09Z</time>
      </trkpt>
      <trkpt lat="43.15184" lon="5.69391">
        <ele>79</ele>
        <time>2020-02-12T09:44:13Z</time>
      </trkpt>
      <trkpt lat="43.15178" lon="5.69392">
        <ele>76</ele>
        <time>2020-02-12T09:44:19Z</time>
      </trkpt>
      <trkpt lat="43.15176" lon="5.69398">
        <ele>75</ele>
        <time>2020-02-12T09:44:33Z</time>
      </trkpt>
      <trkpt lat="43.15171" lon="5.69401">
        <ele>71</ele>
        <time>2020-02-12T09:44:47Z</time>
      </trkpt>
      <trkpt lat="43.15167" lon="5.69404">
        <ele>70</ele>
        <time>2020-02-12T09:44:55Z</time>
      </trkpt>
      <trkpt lat="43.15163" lon="5.69408">
        <ele>70</ele>
        <time>2020-02-12T09:45:01Z</time>
      </trkpt>
      <trkpt lat="43.15157" lon="5.69412">
        <ele>71</ele>
        <time>2020-02-12T09:45:09Z</time>
      </trkpt>
      <trkpt lat="43.15151" lon="5.69417">
        <ele>69</ele>
        <time>2020-02-12T09:45:15Z</time>
      </trkpt>
      <trkpt lat="43.15147" lon="5.69422">
        <ele>68</ele>
        <time>2020-02-12T09:45:21Z</time>
      </trkpt>
      <trkpt lat="43.15144" lon="5.69426">
        <ele>67</ele>
        <time>2020-02-12T09:45:27Z</time>
      </trkpt>
      <trkpt lat="43.1514" lon="5.6943">
        <ele>66</ele>
        <time>2020-02-12T09:45:33Z</time>
      </trkpt>
      <trkpt lat="43.15138" lon="5.69436">
        <ele>61</ele>
        <time>2020-02-12T09:45:47Z</time>
      </trkpt>
      <trkpt lat="43.15138" lon="5.69443">
        <ele>62</ele>
        <time>2020-02-12T09:45:55Z</time>
      </trkpt>
      <trkpt lat="43.15141" lon="5.69449">
        <ele>63</ele>
        <time>2020-02-12T09:46:03Z</time>
      </trkpt>
      <trkpt lat="43.15136" lon="5.6945">
        <ele>57</ele>
        <time>2020-02-12T09:46:17Z</time>
      </trkpt>
      <trkpt lat="43.15131" lon="5.6945">
        <ele>57</ele>
        <time>2020-02-12T09:46:23Z</time>
      </trkpt>
      <trkpt lat="43.15126" lon="5.6945">
        <ele>56</ele>
        <time>2020-02-12T09:46:29Z</time>
      </trkpt>
      <trkpt lat="43.15121" lon="5.69447">
        <ele>56</ele>
        <time>2020-02-12T09:46:37Z</time>
      </trkpt>
      <trkpt lat="43.15119" lon="5.69442">
        <ele>56</ele>
        <time>2020-02-12T09:46:43Z</time>
      </trkpt>
      <trkpt lat="43.15118" lon="5.69435">
        <ele>57</ele>
        <time>2020-02-12T09:46:51Z</time>
      </trkpt>
      <trkpt lat="43.15113" lon="5.69432">
        <ele>53</ele>
        <time>2020-02-12T09:46:57Z</time>
      </trkpt>
      <trkpt lat="43.1511" lon="5.69427">
        <ele>54</ele>
        <time>2020-02-12T09:47:03Z</time>
      </trkpt>
      <trkpt lat="43.15111" lon="5.6942">
        <ele>55</ele>
        <time>2020-02-12T09:47:11Z</time>
      </trkpt>
      <trkpt lat="43.15112" lon="5.69411">
        <ele>59</ele>
        <time>2020-02-12T09:47:17Z</time>
      </trkpt>
      <trkpt lat="43.15113" lon="5.69404">
        <ele>59</ele>
        <time>2020-02-12T09:47:23Z</time>
      </trkpt>
      <trkpt lat="43.15109" lon="5.69401">
        <ele>56</ele>
        <time>2020-02-12T09:47:29Z</time>
      </trkpt>
      <trkpt lat="43.15104" lon="5.69401">
        <ele>57</ele>
        <time>2020-02-12T09:47:39Z</time>
      </trkpt>
      <trkpt lat="43.151" lon="5.69403">
        <ele>60</ele>
        <time>2020-02-12T09:47:47Z</time>
      </trkpt>
      <trkpt lat="43.15096" lon="5.69407">
        <ele>60</ele>
        <time>2020-02-12T09:47:55Z</time>
      </trkpt>
      <trkpt lat="43.15092" lon="5.69409">
        <ele>64</ele>
        <time>2020-02-12T09:48:05Z</time>
      </trkpt>
      <trkpt lat="43.15088" lon="5.69414">
        <ele>66</ele>
        <time>2020-02-12T09:48:11Z</time>
      </trkpt>
      <trkpt lat="43.15085" lon="5.69419">
        <ele>67</ele>
        <time>2020-02-12T09:48:27Z</time>
      </trkpt>
      <trkpt lat="43.15082" lon="5.69425">
        <ele>67</ele>
        <time>2020-02-12T09:48:37Z</time>
      </trkpt>
      <trkpt lat="43.15079" lon="5.6943">
        <ele>71</ele>
        <time>2020-02-12T09:48:43Z</time>
      </trkpt>
      <trkpt lat="43.15075" lon="5.69435">
        <ele>71</ele>
        <time>2020-02-12T09:48:57Z</time>
      </trkpt>
      <trkpt lat="43.15071" lon="5.69438">
        <ele>74</ele>
        <time>2020-02-12T09:49:09Z</time>
      </trkpt>
      <trkpt lat="43.15065" lon="5.6944">
        <ele>76</ele>
        <time>2020-02-12T09:49:45Z</time>
      </trkpt>
      <trkpt lat="43.15063" lon="5.69447">
        <ele>77</ele>
        <time>2020-02-12T09:49:53Z</time>
      </trkpt>
      <trkpt lat="43.15061" lon="5.69453">
        <ele>76</ele>
        <time>2020-02-12T09:49:59Z</time>
      </trkpt>
      <trkpt lat="43.15056" lon="5.69456">
        <ele>80</ele>
        <time>2020-02-12T09:50:07Z</time>
      </trkpt>
      <trkpt lat="43.15052" lon="5.69457">
        <ele>80</ele>
        <time>2020-02-12T09:50:13Z</time>
      </trkpt>
      <trkpt lat="43.15048" lon="5.69461">
        <ele>81</ele>
        <time>2020-02-12T09:50:21Z</time>
      </trkpt>
      <trkpt lat="43.15044" lon="5.69466">
        <ele>83</ele>
        <time>2020-02-12T09:50:27Z</time>
      </trkpt>
      <trkpt lat="43.15041" lon="5.69471">
        <ele>85</ele>
        <time>2020-02-12T09:50:33Z</time>
      </trkpt>
      <trkpt lat="43.15036" lon="5.69475">
        <ele>85</ele>
        <time>2020-02-12T09:50:39Z</time>
      </trkpt>
      <trkpt lat="43.15033" lon="5.6948">
        <ele>86</ele>
        <time>2020-02-12T09:50:43Z</time>
      </trkpt>
      <trkpt lat="43.15029" lon="5.69484">
        <ele>85</ele>
        <time>2020-02-12T09:50:51Z</time>
      </trkpt>
      <trkpt lat="43.15026" lon="5.69489">
        <ele>84</ele>
        <time>2020-02-12T09:50:57Z</time>
      </trkpt>
      <trkpt lat="43.15021" lon="5.69493">
        <ele>84</ele>
        <time>2020-02-12T09:51:07Z</time>
      </trkpt>
      <trkpt lat="43.15016" lon="5.69496">
        <ele>84</ele>
        <time>2020-02-12T09:51:15Z</time>
      </trkpt>
      <trkpt lat="43.15013" lon="5.69501">
        <ele>84</ele>
        <time>2020-02-12T09:52:17Z</time>
      </trkpt>
      <trkpt lat="43.1501" lon="5.69495">
        <ele>83</ele>
        <time>2020-02-12T09:55:37Z</time>
      </trkpt>
      <trkpt lat="43.15005" lon="5.69497">
        <ele>83</ele>
        <time>2020-02-12T09:55:49Z</time>
      </trkpt>
      <trkpt lat="43.15011" lon="5.69499">
        <ele>82</ele>
        <time>2020-02-12T09:56:05Z</time>
      </trkpt>
      <trkpt lat="43.15016" lon="5.69499">
        <ele>84</ele>
        <time>2020-02-12T09:58:53Z</time>
      </trkpt>
      <trkpt lat="43.15011" lon="5.69501">
        <ele>84</ele>
        <time>2020-02-12T10:02:31Z</time>
      </trkpt>
      <trkpt lat="43.15006" lon="5.69504">
        <ele>85</ele>
        <time>2020-02-12T10:04:13Z</time>
      </trkpt>
      <trkpt lat="43.15" lon="5.69506">
        <ele>86</ele>
        <time>2020-02-12T10:04:19Z</time>
      </trkpt>
      <trkpt lat="43.14995" lon="5.69507">
        <ele>86</ele>
        <time>2020-02-12T10:04:23Z</time>
      </trkpt>
      <trkpt lat="43.1499" lon="5.69506">
        <ele>81</ele>
        <time>2020-02-12T10:04:33Z</time>
      </trkpt>
      <trkpt lat="43.14986" lon="5.69503">
        <ele>83</ele>
        <time>2020-02-12T10:04:41Z</time>
      </trkpt>
      <trkpt lat="43.1498" lon="5.69502">
        <ele>80</ele>
        <time>2020-02-12T10:04:47Z</time>
      </trkpt>
      <trkpt lat="43.14975" lon="5.69502">
        <ele>80</ele>
        <time>2020-02-12T10:04:53Z</time>
      </trkpt>
      <trkpt lat="43.1497" lon="5.69507">
        <ele>79</ele>
        <time>2020-02-12T10:05:03Z</time>
      </trkpt>
      <trkpt lat="43.14966" lon="5.69512">
        <ele>79</ele>
        <time>2020-02-12T10:05:09Z</time>
      </trkpt>
      <trkpt lat="43.14963" lon="5.69517">
        <ele>78</ele>
        <time>2020-02-12T10:05:15Z</time>
      </trkpt>
      <trkpt lat="43.1496" lon="5.69522">
        <ele>78</ele>
        <time>2020-02-12T10:05:21Z</time>
      </trkpt>
      <trkpt lat="43.14955" lon="5.69528">
        <ele>81</ele>
        <time>2020-02-12T10:05:29Z</time>
      </trkpt>
      <trkpt lat="43.1495" lon="5.69532">
        <ele>81</ele>
        <time>2020-02-12T10:05:35Z</time>
      </trkpt>
      <trkpt lat="43.14947" lon="5.69537">
        <ele>81</ele>
        <time>2020-02-12T10:05:41Z</time>
      </trkpt>
      <trkpt lat="43.14943" lon="5.6954">
        <ele>80</ele>
        <time>2020-02-12T10:05:47Z</time>
      </trkpt>
      <trkpt lat="43.14939" lon="5.69543">
        <ele>81</ele>
        <time>2020-02-12T10:05:53Z</time>
      </trkpt>
      <trkpt lat="43.14934" lon="5.69547">
        <ele>81</ele>
        <time>2020-02-12T10:05:59Z</time>
      </trkpt>
      <trkpt lat="43.14929" lon="5.69552">
        <ele>78</ele>
        <time>2020-02-12T10:06:07Z</time>
      </trkpt>
      <trkpt lat="43.14926" lon="5.69557">
        <ele>78</ele>
        <time>2020-02-12T10:06:15Z</time>
      </trkpt>
      <trkpt lat="43.1492" lon="5.6956">
        <ele>79</ele>
        <time>2020-02-12T10:06:23Z</time>
      </trkpt>
      <trkpt lat="43.14917" lon="5.69565">
        <ele>80</ele>
        <time>2020-02-12T10:06:31Z</time>
      </trkpt>
      <trkpt lat="43.14914" lon="5.69571">
        <ele>80</ele>
        <time>2020-02-12T10:06:37Z</time>
      </trkpt>
      <trkpt lat="43.14909" lon="5.69574">
        <ele>81</ele>
        <time>2020-02-12T10:06:45Z</time>
      </trkpt>
      <trkpt lat="43.14903" lon="5.69572">
        <ele>81</ele>
        <time>2020-02-12T10:06:51Z</time>
      </trkpt>
      <trkpt lat="43.14899" lon="5.69569">
        <ele>81</ele>
        <time>2020-02-12T10:06:59Z</time>
      </trkpt>
      <trkpt lat="43.14895" lon="5.69563">
        <ele>79</ele>
        <time>2020-02-12T10:07:07Z</time>
      </trkpt>
      <trkpt lat="43.1489" lon="5.69559">
        <ele>77</ele>
        <time>2020-02-12T10:07:15Z</time>
      </trkpt>
      <trkpt lat="43.14886" lon="5.69557">
        <ele>77</ele>
        <time>2020-02-12T10:07:21Z</time>
      </trkpt>
      <trkpt lat="43.14881" lon="5.69553">
        <ele>76</ele>
        <time>2020-02-12T10:07:27Z</time>
      </trkpt>
      <trkpt lat="43.14875" lon="5.69549">
        <ele>76</ele>
        <time>2020-02-12T10:07:33Z</time>
      </trkpt>
      <trkpt lat="43.14871" lon="5.69546">
        <ele>75</ele>
        <time>2020-02-12T10:07:37Z</time>
      </trkpt>
      <trkpt lat="43.14865" lon="5.69542">
        <ele>75</ele>
        <time>2020-02-12T10:07:43Z</time>
      </trkpt>
      <trkpt lat="43.1486" lon="5.69538">
        <ele>76</ele>
        <time>2020-02-12T10:07:49Z</time>
      </trkpt>
      <trkpt lat="43.14855" lon="5.69533">
        <ele>75</ele>
        <time>2020-02-12T10:07:55Z</time>
      </trkpt>
      <trkpt lat="43.1485" lon="5.69528">
        <ele>76</ele>
        <time>2020-02-12T10:08:01Z</time>
      </trkpt>
      <trkpt lat="43.14846" lon="5.69524">
        <ele>76</ele>
        <time>2020-02-12T10:08:05Z</time>
      </trkpt>
      <trkpt lat="43.14842" lon="5.69521">
        <ele>76</ele>
        <time>2020-02-12T10:08:09Z</time>
      </trkpt>
      <trkpt lat="43.14838" lon="5.69518">
        <ele>77</ele>
        <time>2020-02-12T10:08:13Z</time>
      </trkpt>
      <trkpt lat="43.14833" lon="5.69512">
        <ele>78</ele>
        <time>2020-02-12T10:08:19Z</time>
      </trkpt>
      <trkpt lat="43.14829" lon="5.69509">
        <ele>79</ele>
        <time>2020-02-12T10:08:23Z</time>
      </trkpt>
      <trkpt lat="43.14824" lon="5.69504">
        <ele>79</ele>
        <time>2020-02-12T10:08:29Z</time>
      </trkpt>
      <trkpt lat="43.14821" lon="5.695">
        <ele>80</ele>
        <time>2020-02-12T10:08:33Z</time>
      </trkpt>
      <trkpt lat="43.14817" lon="5.69495">
        <ele>81</ele>
        <time>2020-02-12T10:08:37Z</time>
      </trkpt>
      <trkpt lat="43.14812" lon="5.69493">
        <ele>79</ele>
        <time>2020-02-12T10:08:49Z</time>
      </trkpt>
      <trkpt lat="43.14806" lon="5.6949">
        <ele>79</ele>
        <time>2020-02-12T10:08:57Z</time>
      </trkpt>
      <trkpt lat="43.14801" lon="5.69485">
        <ele>78</ele>
        <time>2020-02-12T10:09:03Z</time>
      </trkpt>
      <trkpt lat="43.14797" lon="5.69481">
        <ele>79</ele>
        <time>2020-02-12T10:09:13Z</time>
      </trkpt>
      <trkpt lat="43.14792" lon="5.69476">
        <ele>78</ele>
        <time>2020-02-12T10:09:19Z</time>
      </trkpt>
      <trkpt lat="43.14788" lon="5.69472">
        <ele>78</ele>
        <time>2020-02-12T10:09:23Z</time>
      </trkpt>
      <trkpt lat="43.14785" lon="5.69468">
        <ele>77</ele>
        <time>2020-02-12T10:09:29Z</time>
      </trkpt>
      <trkpt lat="43.1478" lon="5.69462">
        <ele>77</ele>
        <time>2020-02-12T10:09:35Z</time>
      </trkpt>
      <trkpt lat="43.14777" lon="5.69456">
        <ele>77</ele>
        <time>2020-02-12T10:09:41Z</time>
      </trkpt>
      <trkpt lat="43.14772" lon="5.69451">
        <ele>76</ele>
        <time>2020-02-12T10:09:49Z</time>
      </trkpt>
      <trkpt lat="43.14771" lon="5.69444">
        <ele>73</ele>
        <time>2020-02-12T10:09:57Z</time>
      </trkpt>
      <trkpt lat="43.14767" lon="5.69439">
        <ele>73</ele>
        <time>2020-02-12T10:10:03Z</time>
      </trkpt>
      <trkpt lat="43.14762" lon="5.69434">
        <ele>74</ele>
        <time>2020-02-12T10:10:09Z</time>
      </trkpt>
      <trkpt lat="43.14758" lon="5.69431">
        <ele>74</ele>
        <time>2020-02-12T10:10:13Z</time>
      </trkpt>
      <trkpt lat="43.14754" lon="5.69428">
        <ele>74</ele>
        <time>2020-02-12T10:10:17Z</time>
      </trkpt>
      <trkpt lat="43.14749" lon="5.69427">
        <ele>75</ele>
        <time>2020-02-12T10:10:21Z</time>
      </trkpt>
      <trkpt lat="43.14744" lon="5.6943">
        <ele>74</ele>
        <time>2020-02-12T10:10:27Z</time>
      </trkpt>
      <trkpt lat="43.14738" lon="5.69434">
        <ele>71</ele>
        <time>2020-02-12T10:10:35Z</time>
      </trkpt>
      <trkpt lat="43.14735" lon="5.69438">
        <ele>70</ele>
        <time>2020-02-12T10:10:39Z</time>
      </trkpt>
      <trkpt lat="43.14732" lon="5.69444">
        <ele>71</ele>
        <time>2020-02-12T10:10:43Z</time>
      </trkpt>
      <trkpt lat="43.1473" lon="5.69449">
        <ele>72</ele>
        <time>2020-02-12T10:10:47Z</time>
      </trkpt>
      <trkpt lat="43.14727" lon="5.69455">
        <ele>74</ele>
        <time>2020-02-12T10:10:51Z</time>
      </trkpt>
      <trkpt lat="43.14724" lon="5.6946">
        <ele>74</ele>
        <time>2020-02-12T10:10:55Z</time>
      </trkpt>
      <trkpt lat="43.14721" lon="5.69467">
        <ele>73</ele>
        <time>2020-02-12T10:11:01Z</time>
      </trkpt>
      <trkpt lat="43.14718" lon="5.69475">
        <ele>73</ele>
        <time>2020-02-12T10:11:07Z</time>
      </trkpt>
      <trkpt lat="43.14715" lon="5.6948">
        <ele>73</ele>
        <time>2020-02-12T10:11:11Z</time>
      </trkpt>
      <trkpt lat="43.14712" lon="5.69487">
        <ele>71</ele>
        <time>2020-02-12T10:11:17Z</time>
      </trkpt>
      <trkpt lat="43.14713" lon="5.69494">
        <ele>68</ele>
        <time>2020-02-12T10:11:23Z</time>
      </trkpt>
      <trkpt lat="43.14716" lon="5.69501">
        <ele>66</ele>
        <time>2020-02-12T10:11:29Z</time>
      </trkpt>
      <trkpt lat="43.14719" lon="5.69506">
        <ele>66</ele>
        <time>2020-02-12T10:11:33Z</time>
      </trkpt>
      <trkpt lat="43.14722" lon="5.69513">
        <ele>64</ele>
        <time>2020-02-12T10:11:39Z</time>
      </trkpt>
      <trkpt lat="43.14725" lon="5.6952">
        <ele>63</ele>
        <time>2020-02-12T10:11:45Z</time>
      </trkpt>
      <trkpt lat="43.14725" lon="5.69529">
        <ele>61</ele>
        <time>2020-02-12T10:11:51Z</time>
      </trkpt>
      <trkpt lat="43.14725" lon="5.69535">
        <ele>59</ele>
        <time>2020-02-12T10:11:57Z</time>
      </trkpt>
      <trkpt lat="43.1472" lon="5.69539">
        <ele>55</ele>
        <time>2020-02-12T10:12:09Z</time>
      </trkpt>
      <trkpt lat="43.14713" lon="5.6954">
        <ele>57</ele>
        <time>2020-02-12T10:12:15Z</time>
      </trkpt>
      <trkpt lat="43.14708" lon="5.6954">
        <ele>57</ele>
        <time>2020-02-12T10:12:21Z</time>
      </trkpt>
      <trkpt lat="43.14703" lon="5.69538">
        <ele>58</ele>
        <time>2020-02-12T10:12:27Z</time>
      </trkpt>
      <trkpt lat="43.14698" lon="5.69535">
        <ele>57</ele>
        <time>2020-02-12T10:12:37Z</time>
      </trkpt>
      <trkpt lat="43.14694" lon="5.69531">
        <ele>57</ele>
        <time>2020-02-12T10:12:45Z</time>
      </trkpt>
      <trkpt lat="43.14689" lon="5.69527">
        <ele>57</ele>
        <time>2020-02-12T10:12:55Z</time>
      </trkpt>
      <trkpt lat="43.14683" lon="5.69523">
        <ele>57</ele>
        <time>2020-02-12T10:13:03Z</time>
      </trkpt>
      <trkpt lat="43.14679" lon="5.69519">
        <ele>56</ele>
        <time>2020-02-12T10:13:09Z</time>
      </trkpt>
      <trkpt lat="43.14675" lon="5.6952">
        <ele>55</ele>
        <time>2020-02-12T10:13:21Z</time>
      </trkpt>
      <trkpt lat="43.1467" lon="5.69518">
        <ele>55</ele>
        <time>2020-02-12T10:13:31Z</time>
      </trkpt>
      <trkpt lat="43.14667" lon="5.69513">
        <ele>55</ele>
        <time>2020-02-12T10:13:37Z</time>
      </trkpt>
      <trkpt lat="43.14663" lon="5.69509">
        <ele>54</ele>
        <time>2020-02-12T10:13:43Z</time>
      </trkpt>
      <trkpt lat="43.14659" lon="5.69505">
        <ele>54</ele>
        <time>2020-02-12T10:13:49Z</time>
      </trkpt>
      <trkpt lat="43.14656" lon="5.695">
        <ele>51</ele>
        <time>2020-02-12T10:13:55Z</time>
      </trkpt>
      <trkpt lat="43.14657" lon="5.69492">
        <ele>52</ele>
        <time>2020-02-12T10:14:01Z</time>
      </trkpt>
      <trkpt lat="43.14656" lon="5.69486">
        <ele>52</ele>
        <time>2020-02-12T10:14:09Z</time>
      </trkpt>
      <trkpt lat="43.14657" lon="5.69478">
        <ele>52</ele>
        <time>2020-02-12T10:14:15Z</time>
      </trkpt>
      <trkpt lat="43.14657" lon="5.69471">
        <ele>50</ele>
        <time>2020-02-12T10:14:21Z</time>
      </trkpt>
      <trkpt lat="43.14656" lon="5.69463">
        <ele>48</ele>
        <time>2020-02-12T10:14:27Z</time>
      </trkpt>
      <trkpt lat="43.14654" lon="5.69457">
        <ele>49</ele>
        <time>2020-02-12T10:14:35Z</time>
      </trkpt>
      <trkpt lat="43.14649" lon="5.69459">
        <ele>55</ele>
        <time>2020-02-12T10:14:55Z</time>
      </trkpt>
      <trkpt lat="43.14644" lon="5.6946">
        <ele>59</ele>
        <time>2020-02-12T10:15:03Z</time>
      </trkpt>
      <trkpt lat="43.14641" lon="5.69464">
        <ele>62</ele>
        <time>2020-02-12T10:15:17Z</time>
      </trkpt>
      <trkpt lat="43.1464" lon="5.69471">
        <ele>63</ele>
        <time>2020-02-12T10:15:27Z</time>
      </trkpt>
      <trkpt lat="43.14636" lon="5.69474">
        <ele>64</ele>
        <time>2020-02-12T10:15:35Z</time>
      </trkpt>
      <trkpt lat="43.14631" lon="5.69474">
        <ele>64</ele>
        <time>2020-02-12T10:15:43Z</time>
      </trkpt>
      <trkpt lat="43.14629" lon="5.6948">
        <ele>65</ele>
        <time>2020-02-12T10:15:49Z</time>
      </trkpt>
      <trkpt lat="43.14627" lon="5.69486">
        <ele>65</ele>
        <time>2020-02-12T10:16:01Z</time>
      </trkpt>
      <trkpt lat="43.14622" lon="5.69483">
        <ele>67</ele>
        <time>2020-02-12T10:16:13Z</time>
      </trkpt>
      <trkpt lat="43.14618" lon="5.69479">
        <ele>69</ele>
        <time>2020-02-12T10:16:19Z</time>
      </trkpt>
      <trkpt lat="43.14614" lon="5.69474">
        <ele>68</ele>
        <time>2020-02-12T10:16:27Z</time>
      </trkpt>
      <trkpt lat="43.14612" lon="5.69467">
        <ele>68</ele>
        <time>2020-02-12T10:16:35Z</time>
      </trkpt>
      <trkpt lat="43.14609" lon="5.69463">
        <ele>68</ele>
        <time>2020-02-12T10:16:41Z</time>
      </trkpt>
      <trkpt lat="43.14605" lon="5.69459">
        <ele>69</ele>
        <time>2020-02-12T10:16:47Z</time>
      </trkpt>
      <trkpt lat="43.14601" lon="5.69455">
        <ele>69</ele>
        <time>2020-02-12T10:16:53Z</time>
      </trkpt>
      <trkpt lat="43.14596" lon="5.69452">
        <ele>70</ele>
        <time>2020-02-12T10:16:59Z</time>
      </trkpt>
      <trkpt lat="43.14592" lon="5.69448">
        <ele>69</ele>
        <time>2020-02-12T10:17:05Z</time>
      </trkpt>
      <trkpt lat="43.14587" lon="5.69446">
        <ele>68</ele>
        <time>2020-02-12T10:17:11Z</time>
      </trkpt>
      <trkpt lat="43.14581" lon="5.69448">
        <ele>67</ele>
        <time>2020-02-12T10:17:21Z</time>
      </trkpt>
      <trkpt lat="43.14576" lon="5.6945">
        <ele>66</ele>
        <time>2020-02-12T10:17:29Z</time>
      </trkpt>
      <trkpt lat="43.14571" lon="5.69451">
        <ele>66</ele>
        <time>2020-02-12T10:17:35Z</time>
      </trkpt>
      <trkpt lat="43.14566" lon="5.69452">
        <ele>66</ele>
        <time>2020-02-12T10:17:45Z</time>
      </trkpt>
      <trkpt lat="43.14561" lon="5.69452">
        <ele>68</ele>
        <time>2020-02-12T10:17:53Z</time>
      </trkpt>
      <trkpt lat="43.14556" lon="5.69453">
        <ele>69</ele>
        <time>2020-02-12T10:18:01Z</time>
      </trkpt>
      <trkpt lat="43.14551" lon="5.69454">
        <ele>70</ele>
        <time>2020-02-12T10:18:09Z</time>
      </trkpt>
      <trkpt lat="43.14548" lon="5.69461">
        <ele>69</ele>
        <time>2020-02-12T10:18:19Z</time>
      </trkpt>
      <trkpt lat="43.14545" lon="5.69467">
        <ele>67</ele>
        <time>2020-02-12T10:18:29Z</time>
      </trkpt>
      <trkpt lat="43.14543" lon="5.69473">
        <ele>68</ele>
        <time>2020-02-12T10:18:35Z</time>
      </trkpt>
      <trkpt lat="43.14541" lon="5.69479">
        <ele>67</ele>
        <time>2020-02-12T10:18:41Z</time>
      </trkpt>
      <trkpt lat="43.14541" lon="5.69485">
        <ele>69</ele>
        <time>2020-02-12T10:18:49Z</time>
      </trkpt>
      <trkpt lat="43.14538" lon="5.69491">
        <ele>69</ele>
        <time>2020-02-12T10:18:59Z</time>
      </trkpt>
      <trkpt lat="43.14533" lon="5.69493">
        <ele>71</ele>
        <time>2020-02-12T10:19:07Z</time>
      </trkpt>
      <trkpt lat="43.14529" lon="5.69497">
        <ele>73</ele>
        <time>2020-02-12T10:19:15Z</time>
      </trkpt>
      <trkpt lat="43.14527" lon="5.69504">
        <ele>74</ele>
        <time>2020-02-12T10:19:23Z</time>
      </trkpt>
      <trkpt lat="43.14523" lon="5.69509">
        <ele>72</ele>
        <time>2020-02-12T10:19:33Z</time>
      </trkpt>
      <trkpt lat="43.14521" lon="5.69515">
        <ele>72</ele>
        <time>2020-02-12T10:19:41Z</time>
      </trkpt>
      <trkpt lat="43.14517" lon="5.6952">
        <ele>74</ele>
        <time>2020-02-12T10:19:51Z</time>
      </trkpt>
      <trkpt lat="43.14511" lon="5.69518">
        <ele>78</ele>
        <time>2020-02-12T10:19:59Z</time>
      </trkpt>
      <trkpt lat="43.14506" lon="5.69519">
        <ele>78</ele>
        <time>2020-02-12T10:20:07Z</time>
      </trkpt>
      <trkpt lat="43.14503" lon="5.69524">
        <ele>79</ele>
        <time>2020-02-12T10:20:23Z</time>
      </trkpt>
      <trkpt lat="43.14499" lon="5.69529">
        <ele>81</ele>
        <time>2020-02-12T10:20:33Z</time>
      </trkpt>
      <trkpt lat="43.14495" lon="5.6953">
        <ele>80</ele>
        <time>2020-02-12T10:20:43Z</time>
      </trkpt>
      <trkpt lat="43.14489" lon="5.6953">
        <ele>78</ele>
        <time>2020-02-12T10:20:57Z</time>
      </trkpt>
      <trkpt lat="43.14485" lon="5.69534">
        <ele>78</ele>
        <time>2020-02-12T10:21:21Z</time>
      </trkpt>
      <trkpt lat="43.1448" lon="5.69537">
        <ele>81</ele>
        <time>2020-02-12T10:21:29Z</time>
      </trkpt>
      <trkpt lat="43.14475" lon="5.69542">
        <ele>79</ele>
        <time>2020-02-12T10:21:35Z</time>
      </trkpt>
      <trkpt lat="43.1447" lon="5.69544">
        <ele>79</ele>
        <time>2020-02-12T10:21:41Z</time>
      </trkpt>
      <trkpt lat="43.14465" lon="5.69545">
        <ele>80</ele>
        <time>2020-02-12T10:21:47Z</time>
      </trkpt>
      <trkpt lat="43.1446" lon="5.69547">
        <ele>81</ele>
        <time>2020-02-12T10:21:51Z</time>
      </trkpt>
      <trkpt lat="43.14454" lon="5.69548">
        <ele>82</ele>
        <time>2020-02-12T10:21:57Z</time>
      </trkpt>
      <trkpt lat="43.14449" lon="5.69551">
        <ele>84</ele>
        <time>2020-02-12T10:22:03Z</time>
      </trkpt>
      <trkpt lat="43.14444" lon="5.69554">
        <ele>84</ele>
        <time>2020-02-12T10:22:09Z</time>
      </trkpt>
      <trkpt lat="43.14439" lon="5.69558">
        <ele>88</ele>
        <time>2020-02-12T10:22:15Z</time>
      </trkpt>
      <trkpt lat="43.14433" lon="5.6956">
        <ele>89</ele>
        <time>2020-02-12T10:22:21Z</time>
      </trkpt>
      <trkpt lat="43.14429" lon="5.69563">
        <ele>87</ele>
        <time>2020-02-12T10:28:41Z</time>
      </trkpt>
      <trkpt lat="43.14425" lon="5.69568">
        <ele>85</ele>
        <time>2020-02-12T10:28:47Z</time>
      </trkpt>
      <trkpt lat="43.14422" lon="5.69574">
        <ele>87</ele>
        <time>2020-02-12T10:28:55Z</time>
      </trkpt>
      <trkpt lat="43.14419" lon="5.69578">
        <ele>85</ele>
        <time>2020-02-12T10:29:23Z</time>
      </trkpt>
      <trkpt lat="43.14415" lon="5.69583">
        <ele>85</ele>
        <time>2020-02-12T10:29:29Z</time>
      </trkpt>
      <trkpt lat="43.14412" lon="5.69588">
        <ele>85</ele>
        <time>2020-02-12T10:29:35Z</time>
      </trkpt>
      <trkpt lat="43.14409" lon="5.69595">
        <ele>82</ele>
        <time>2020-02-12T10:29:45Z</time>
      </trkpt>
      <trkpt lat="43.14406" lon="5.69602">
        <ele>82</ele>
        <time>2020-02-12T10:29:51Z</time>
      </trkpt>
      <trkpt lat="43.14404" lon="5.69608">
        <ele>82</ele>
        <time>2020-02-12T10:29:57Z</time>
      </trkpt>
      <trkpt lat="43.144" lon="5.69613">
        <ele>84</ele>
        <time>2020-02-12T10:30:03Z</time>
      </trkpt>
      <trkpt lat="43.14399" lon="5.6962">
        <ele>83</ele>
        <time>2020-02-12T10:30:09Z</time>
      </trkpt>
      <trkpt lat="43.14397" lon="5.69628">
        <ele>85</ele>
        <time>2020-02-12T10:30:15Z</time>
      </trkpt>
      <trkpt lat="43.14396" lon="5.69636">
        <ele>83</ele>
        <time>2020-02-12T10:30:21Z</time>
      </trkpt>
      <trkpt lat="43.14394" lon="5.69642">
        <ele>84</ele>
        <time>2020-02-12T10:30:27Z</time>
      </trkpt>
      <trkpt lat="43.1439" lon="5.69645">
        <ele>82</ele>
        <time>2020-02-12T10:30:35Z</time>
      </trkpt>
      <trkpt lat="43.14387" lon="5.69653">
        <ele>84</ele>
        <time>2020-02-12T10:30:45Z</time>
      </trkpt>
      <trkpt lat="43.14386" lon="5.6966">
        <ele>82</ele>
        <time>2020-02-12T10:30:53Z</time>
      </trkpt>
      <trkpt lat="43.14383" lon="5.69667">
        <ele>82</ele>
        <time>2020-02-12T10:31:01Z</time>
      </trkpt>
      <trkpt lat="43.14381" lon="5.69672">
        <ele>81</ele>
        <time>2020-02-12T10:31:05Z</time>
      </trkpt>
      <trkpt lat="43.14378" lon="5.69677">
        <ele>79</ele>
        <time>2020-02-12T10:31:13Z</time>
      </trkpt>
      <trkpt lat="43.14374" lon="5.69683">
        <ele>75</ele>
        <time>2020-02-12T10:31:25Z</time>
      </trkpt>
      <trkpt lat="43.14372" lon="5.69689">
        <ele>72</ele>
        <time>2020-02-12T10:31:35Z</time>
      </trkpt>
      <trkpt lat="43.14371" lon="5.69695">
        <ele>72</ele>
        <time>2020-02-12T10:31:45Z</time>
      </trkpt>
      <trkpt lat="43.1437" lon="5.69702">
        <ele>70</ele>
        <time>2020-02-12T10:31:59Z</time>
      </trkpt>
      <trkpt lat="43.1437" lon="5.69709">
        <ele>66</ele>
        <time>2020-02-12T10:32:13Z</time>
      </trkpt>
      <trkpt lat="43.14373" lon="5.69713">
        <ele>65</ele>
        <time>2020-02-12T10:32:21Z</time>
      </trkpt>
      <trkpt lat="43.14378" lon="5.69714">
        <ele>64</ele>
        <time>2020-02-12T10:32:27Z</time>
      </trkpt>
      <trkpt lat="43.14383" lon="5.69713">
        <ele>62</ele>
        <time>2020-02-12T10:32:37Z</time>
      </trkpt>
      <trkpt lat="43.14388" lon="5.69713">
        <ele>62</ele>
        <time>2020-02-12T10:32:45Z</time>
      </trkpt>
      <trkpt lat="43.14393" lon="5.69715">
        <ele>66</ele>
        <time>2020-02-12T10:32:55Z</time>
      </trkpt>
      <trkpt lat="43.14394" lon="5.69721">
        <ele>65</ele>
        <time>2020-02-12T10:33:05Z</time>
      </trkpt>
      <trkpt lat="43.14396" lon="5.69729">
        <ele>69</ele>
        <time>2020-02-12T10:33:15Z</time>
      </trkpt>
      <trkpt lat="43.14397" lon="5.69735">
        <ele>72</ele>
        <time>2020-02-12T10:33:23Z</time>
      </trkpt>
      <trkpt lat="43.14399" lon="5.69741">
        <ele>71</ele>
        <time>2020-02-12T10:33:33Z</time>
      </trkpt>
      <trkpt lat="43.14401" lon="5.69748">
        <ele>72</ele>
        <time>2020-02-12T10:33:41Z</time>
      </trkpt>
      <trkpt lat="43.14403" lon="5.69754">
        <ele>74</ele>
        <time>2020-02-12T10:33:51Z</time>
      </trkpt>
      <trkpt lat="43.14404" lon="5.69762">
        <ele>71</ele>
        <time>2020-02-12T10:34:01Z</time>
      </trkpt>
      <trkpt lat="43.14407" lon="5.69768">
        <ele>72</ele>
        <time>2020-02-12T10:34:07Z</time>
      </trkpt>
      <trkpt lat="43.14411" lon="5.69772">
        <ele>71</ele>
        <time>2020-02-12T10:34:17Z</time>
      </trkpt>
      <trkpt lat="43.14414" lon="5.69777">
        <ele>73</ele>
        <time>2020-02-12T10:34:23Z</time>
      </trkpt>
      <trkpt lat="43.14418" lon="5.69784">
        <ele>73</ele>
        <time>2020-02-12T10:34:31Z</time>
      </trkpt>
      <trkpt lat="43.14421" lon="5.6979">
        <ele>74</ele>
        <time>2020-02-12T10:34:39Z</time>
      </trkpt>
      <trkpt lat="43.14422" lon="5.69798">
        <ele>74</ele>
        <time>2020-02-12T10:34:47Z</time>
      </trkpt>
      <trkpt lat="43.14422" lon="5.69804">
        <ele>75</ele>
        <time>2020-02-12T10:34:53Z</time>
      </trkpt>
      <trkpt lat="43.14425" lon="5.6981">
        <ele>77</ele>
        <time>2020-02-12T10:34:59Z</time>
      </trkpt>
      <trkpt lat="43.14428" lon="5.69816">
        <ele>75</ele>
        <time>2020-02-12T10:35:05Z</time>
      </trkpt>
      <trkpt lat="43.14427" lon="5.69822">
        <ele>77</ele>
        <time>2020-02-12T10:35:17Z</time>
      </trkpt>
      <trkpt lat="43.14429" lon="5.6983">
        <ele>79</ele>
        <time>2020-02-12T10:35:25Z</time>
      </trkpt>
      <trkpt lat="43.14434" lon="5.69834">
        <ele>82</ele>
        <time>2020-02-12T10:35:31Z</time>
      </trkpt>
      <trkpt lat="43.14437" lon="5.69841">
        <ele>85</ele>
        <time>2020-02-12T10:35:37Z</time>
      </trkpt>
      <trkpt lat="43.14441" lon="5.69847">
        <ele>86</ele>
        <time>2020-02-12T10:35:49Z</time>
      </trkpt>
      <trkpt lat="43.14442" lon="5.69854">
        <ele>87</ele>
        <time>2020-02-12T10:36:05Z</time>
      </trkpt>
      <trkpt lat="43.14443" lon="5.69861">
        <ele>84</ele>
        <time>2020-02-12T10:36:13Z</time>
      </trkpt>
      <trkpt lat="43.14445" lon="5.69868">
        <ele>83</ele>
        <time>2020-02-12T10:36:19Z</time>
      </trkpt>
      <trkpt lat="43.14446" lon="5.69874">
        <ele>82</ele>
        <time>2020-02-12T10:36:23Z</time>
      </trkpt>
      <trkpt lat="43.1445" lon="5.6988">
        <ele>80</ele>
        <time>2020-02-12T10:36:31Z</time>
      </trkpt>
      <trkpt lat="43.14451" lon="5.69888">
        <ele>84</ele>
        <time>2020-02-12T10:36:37Z</time>
      </trkpt>
      <trkpt lat="43.1445" lon="5.69895">
        <ele>84</ele>
        <time>2020-02-12T10:36:43Z</time>
      </trkpt>
      <trkpt lat="43.14449" lon="5.69901">
        <ele>84</ele>
        <time>2020-02-12T10:36:49Z</time>
      </trkpt>
      <trkpt lat="43.14447" lon="5.69908">
        <ele>84</ele>
        <time>2020-02-12T10:36:53Z</time>
      </trkpt>
      <trkpt lat="43.14446" lon="5.69915">
        <ele>83</ele>
        <time>2020-02-12T10:36:59Z</time>
      </trkpt>
      <trkpt lat="43.14444" lon="5.69921">
        <ele>85</ele>
        <time>2020-02-12T10:37:05Z</time>
      </trkpt>
      <trkpt lat="43.14442" lon="5.69927">
        <ele>87</ele>
        <time>2020-02-12T10:37:13Z</time>
      </trkpt>
      <trkpt lat="43.14439" lon="5.69932">
        <ele>87</ele>
        <time>2020-02-12T10:37:19Z</time>
      </trkpt>
      <trkpt lat="43.14436" lon="5.69937">
        <ele>85</ele>
        <time>2020-02-12T10:37:27Z</time>
      </trkpt>
      <trkpt lat="43.14434" lon="5.69945">
        <ele>88</ele>
        <time>2020-02-12T10:37:33Z</time>
      </trkpt>
      <trkpt lat="43.14431" lon="5.69952">
        <ele>87</ele>
        <time>2020-02-12T10:37:39Z</time>
      </trkpt>
      <trkpt lat="43.14431" lon="5.69959">
        <ele>86</ele>
        <time>2020-02-12T10:37:47Z</time>
      </trkpt>
      <trkpt lat="43.14429" lon="5.69966">
        <ele>88</ele>
        <time>2020-02-12T10:37:57Z</time>
      </trkpt>
      <trkpt lat="43.14428" lon="5.69973">
        <ele>91</ele>
        <time>2020-02-12T10:38:05Z</time>
      </trkpt>
      <trkpt lat="43.14428" lon="5.6998">
        <ele>93</ele>
        <time>2020-02-12T10:38:11Z</time>
      </trkpt>
      <trkpt lat="43.14429" lon="5.69987">
        <ele>93</ele>
        <time>2020-02-12T10:38:19Z</time>
      </trkpt>
      <trkpt lat="43.1443" lon="5.69993">
        <ele>95</ele>
        <time>2020-02-12T10:38:25Z</time>
      </trkpt>
      <trkpt lat="43.1443" lon="5.70001">
        <ele>99</ele>
        <time>2020-02-12T10:38:31Z</time>
      </trkpt>
      <trkpt lat="43.1443" lon="5.70007">
        <ele>101</ele>
        <time>2020-02-12T10:38:37Z</time>
      </trkpt>
      <trkpt lat="43.14429" lon="5.70013">
        <ele>101</ele>
        <time>2020-02-12T10:38:43Z</time>
      </trkpt>
      <trkpt lat="43.14428" lon="5.70021">
        <ele>101</ele>
        <time>2020-02-12T10:38:51Z</time>
      </trkpt>
      <trkpt lat="43.14428" lon="5.70027">
        <ele>99</ele>
        <time>2020-02-12T10:38:59Z</time>
      </trkpt>
      <trkpt lat="43.14427" lon="5.70036">
        <ele>98</ele>
        <time>2020-02-12T10:39:07Z</time>
      </trkpt>
      <trkpt lat="43.14427" lon="5.70043">
        <ele>98</ele>
        <time>2020-02-12T10:39:13Z</time>
      </trkpt>
      <trkpt lat="43.14427" lon="5.70049">
        <ele>98</ele>
        <time>2020-02-12T10:39:27Z</time>
      </trkpt>
      <trkpt lat="43.14425" lon="5.70056">
        <ele>100</ele>
        <time>2020-02-12T10:39:33Z</time>
      </trkpt>
      <trkpt lat="43.14423" lon="5.70062">
        <ele>99</ele>
        <time>2020-02-12T10:39:39Z</time>
      </trkpt>
      <trkpt lat="43.14423" lon="5.70069">
        <ele>98</ele>
        <time>2020-02-12T10:39:45Z</time>
      </trkpt>
      <trkpt lat="43.14422" lon="5.70076">
        <ele>100</ele>
        <time>2020-02-12T10:39:51Z</time>
      </trkpt>
      <trkpt lat="43.14422" lon="5.70083">
        <ele>98</ele>
        <time>2020-02-12T10:39:57Z</time>
      </trkpt>
      <trkpt lat="43.14421" lon="5.70091">
        <ele>98</ele>
        <time>2020-02-12T10:40:05Z</time>
      </trkpt>
      <trkpt lat="43.14419" lon="5.70097">
        <ele>99</ele>
        <time>2020-02-12T10:40:11Z</time>
      </trkpt>
      <trkpt lat="43.14417" lon="5.70104">
        <ele>99</ele>
        <time>2020-02-12T10:40:19Z</time>
      </trkpt>
      <trkpt lat="43.14414" lon="5.70111">
        <ele>98</ele>
        <time>2020-02-12T10:40:29Z</time>
      </trkpt>
      <trkpt lat="43.14414" lon="5.70117">
        <ele>98</ele>
        <time>2020-02-12T10:40:37Z</time>
      </trkpt>
      <trkpt lat="43.14414" lon="5.70125">
        <ele>99</ele>
        <time>2020-02-12T10:40:45Z</time>
      </trkpt>
      <trkpt lat="43.14414" lon="5.70131">
        <ele>96</ele>
        <time>2020-02-12T10:40:53Z</time>
      </trkpt>
      <trkpt lat="43.14412" lon="5.70137">
        <ele>95</ele>
        <time>2020-02-12T10:41:01Z</time>
      </trkpt>
      <trkpt lat="43.14412" lon="5.70145">
        <ele>94</ele>
        <time>2020-02-12T10:41:11Z</time>
      </trkpt>
      <trkpt lat="43.14412" lon="5.70153">
        <ele>97</ele>
        <time>2020-02-12T10:41:19Z</time>
      </trkpt>
      <trkpt lat="43.14413" lon="5.7016">
        <ele>97</ele>
        <time>2020-02-12T10:41:27Z</time>
      </trkpt>
      <trkpt lat="43.14413" lon="5.70169">
        <ele>96</ele>
        <time>2020-02-12T10:41:35Z</time>
      </trkpt>
      <trkpt lat="43.14412" lon="5.70176">
        <ele>98</ele>
        <time>2020-02-12T10:41:43Z</time>
      </trkpt>
      <trkpt lat="43.14411" lon="5.70185">
        <ele>99</ele>
        <time>2020-02-12T10:41:51Z</time>
      </trkpt>
      <trkpt lat="43.14416" lon="5.70184">
        <ele>94</ele>
        <time>2020-02-12T10:42:11Z</time>
      </trkpt>
      <trkpt lat="43.14418" lon="5.70178">
        <ele>90</ele>
        <time>2020-02-12T10:45:17Z</time>
      </trkpt>
      <trkpt lat="43.14418" lon="5.70184">
        <ele>94</ele>
        <time>2020-02-12T10:46:27Z</time>
      </trkpt>
      <trkpt lat="43.14423" lon="5.70183">
        <ele>90</ele>
        <time>2020-02-12T10:47:59Z</time>
      </trkpt>
      <trkpt lat="43.14427" lon="5.70186">
        <ele>90</ele>
        <time>2020-02-12T10:48:09Z</time>
      </trkpt>
      <trkpt lat="43.1443" lon="5.70193">
        <ele>88</ele>
        <time>2020-02-12T10:48:17Z</time>
      </trkpt>
      <trkpt lat="43.14433" lon="5.70198">
        <ele>86</ele>
        <time>2020-02-12T10:48:23Z</time>
      </trkpt>
      <trkpt lat="43.14435" lon="5.70206">
        <ele>88</ele>
        <time>2020-02-12T10:48:29Z</time>
      </trkpt>
      <trkpt lat="43.14439" lon="5.70209">
        <ele>91</ele>
        <time>2020-02-12T10:48:41Z</time>
      </trkpt>
      <trkpt lat="43.1444" lon="5.70215">
        <ele>97</ele>
        <time>2020-02-12T10:48:55Z</time>
      </trkpt>
      <trkpt lat="43.14444" lon="5.70218">
        <ele>93</ele>
        <time>2020-02-12T10:49:09Z</time>
      </trkpt>
      <trkpt lat="43.14449" lon="5.70218">
        <ele>90</ele>
        <time>2020-02-12T10:49:15Z</time>
      </trkpt>
      <trkpt lat="43.14453" lon="5.70223">
        <ele>93</ele>
        <time>2020-02-12T10:49:21Z</time>
      </trkpt>
      <trkpt lat="43.14454" lon="5.7023">
        <ele>93</ele>
        <time>2020-02-12T10:49:25Z</time>
      </trkpt>
      <trkpt lat="43.14454" lon="5.70237">
        <ele>94</ele>
        <time>2020-02-12T10:49:29Z</time>
      </trkpt>
      <trkpt lat="43.14454" lon="5.70245">
        <ele>95</ele>
        <time>2020-02-12T10:49:35Z</time>
      </trkpt>
      <trkpt lat="43.14453" lon="5.70252">
        <ele>93</ele>
        <time>2020-02-12T10:49:41Z</time>
      </trkpt>
      <trkpt lat="43.14452" lon="5.70258">
        <ele>93</ele>
        <time>2020-02-12T10:49:49Z</time>
      </trkpt>
      <trkpt lat="43.14452" lon="5.70266">
        <ele>92</ele>
        <time>2020-02-12T10:49:59Z</time>
      </trkpt>
      <trkpt lat="43.14453" lon="5.70272">
        <ele>95</ele>
        <time>2020-02-12T10:50:05Z</time>
      </trkpt>
      <trkpt lat="43.14455" lon="5.70278">
        <ele>94</ele>
        <time>2020-02-12T10:50:13Z</time>
      </trkpt>
      <trkpt lat="43.14459" lon="5.70283">
        <ele>91</ele>
        <time>2020-02-12T10:50:19Z</time>
      </trkpt>
      <trkpt lat="43.14463" lon="5.70289">
        <ele>91</ele>
        <time>2020-02-12T10:50:25Z</time>
      </trkpt>
      <trkpt lat="43.14465" lon="5.70294">
        <ele>91</ele>
        <time>2020-02-12T10:50:31Z</time>
      </trkpt>
      <trkpt lat="43.14467" lon="5.70302">
        <ele>92</ele>
        <time>2020-02-12T10:50:37Z</time>
      </trkpt>
      <trkpt lat="43.14471" lon="5.70306">
        <ele>92</ele>
        <time>2020-02-12T10:50:43Z</time>
      </trkpt>
      <trkpt lat="43.14473" lon="5.70313">
        <ele>93</ele>
        <time>2020-02-12T10:50:51Z</time>
      </trkpt>
      <trkpt lat="43.14476" lon="5.70318">
        <ele>92</ele>
        <time>2020-02-12T10:50:57Z</time>
      </trkpt>
      <trkpt lat="43.1448" lon="5.70324">
        <ele>92</ele>
        <time>2020-02-12T10:51:05Z</time>
      </trkpt>
      <trkpt lat="43.14485" lon="5.70328">
        <ele>90</ele>
        <time>2020-02-12T10:51:11Z</time>
      </trkpt>
      <trkpt lat="43.14487" lon="5.70335">
        <ele>89</ele>
        <time>2020-02-12T10:51:19Z</time>
      </trkpt>
      <trkpt lat="43.14491" lon="5.70339">
        <ele>86</ele>
        <time>2020-02-12T10:51:29Z</time>
      </trkpt>
      <trkpt lat="43.14495" lon="5.70342">
        <ele>86</ele>
        <time>2020-02-12T10:51:39Z</time>
      </trkpt>
      <trkpt lat="43.145" lon="5.70345">
        <ele>89</ele>
        <time>2020-02-12T10:51:49Z</time>
      </trkpt>
      <trkpt lat="43.14504" lon="5.70349">
        <ele>85</ele>
        <time>2020-02-12T10:52:01Z</time>
      </trkpt>
      <trkpt lat="43.1451" lon="5.70352">
        <ele>86</ele>
        <time>2020-02-12T10:52:11Z</time>
      </trkpt>
      <trkpt lat="43.14514" lon="5.70354">
        <ele>82</ele>
        <time>2020-02-12T10:52:17Z</time>
      </trkpt>
      <trkpt lat="43.14518" lon="5.70361">
        <ele>85</ele>
        <time>2020-02-12T10:52:23Z</time>
      </trkpt>
      <trkpt lat="43.14521" lon="5.70366">
        <ele>85</ele>
        <time>2020-02-12T10:52:27Z</time>
      </trkpt>
      <trkpt lat="43.14525" lon="5.70371">
        <ele>86</ele>
        <time>2020-02-12T10:52:31Z</time>
      </trkpt>
      <trkpt lat="43.14529" lon="5.70376">
        <ele>88</ele>
        <time>2020-02-12T10:52:37Z</time>
      </trkpt>
      <trkpt lat="43.14533" lon="5.7038">
        <ele>93</ele>
        <time>2020-02-12T10:52:43Z</time>
      </trkpt>
      <trkpt lat="43.14538" lon="5.70385">
        <ele>94</ele>
        <time>2020-02-12T10:52:49Z</time>
      </trkpt>
      <trkpt lat="43.1454" lon="5.70392">
        <ele>92</ele>
        <time>2020-02-12T10:52:57Z</time>
      </trkpt>
      <trkpt lat="43.14544" lon="5.70398">
        <ele>96</ele>
        <time>2020-02-12T10:53:05Z</time>
      </trkpt>
      <trkpt lat="43.14547" lon="5.70403">
        <ele>93</ele>
        <time>2020-02-12T10:53:13Z</time>
      </trkpt>
      <trkpt lat="43.14548" lon="5.70411">
        <ele>94</ele>
        <time>2020-02-12T10:53:21Z</time>
      </trkpt>
      <trkpt lat="43.14547" lon="5.70418">
        <ele>93</ele>
        <time>2020-02-12T10:53:29Z</time>
      </trkpt>
      <trkpt lat="43.14549" lon="5.70425">
        <ele>93</ele>
        <time>2020-02-12T10:53:41Z</time>
      </trkpt>
      <trkpt lat="43.14551" lon="5.70431">
        <ele>98</ele>
        <time>2020-02-12T10:53:55Z</time>
      </trkpt>
      <trkpt lat="43.14549" lon="5.70438">
        <ele>100</ele>
        <time>2020-02-12T10:54:05Z</time>
      </trkpt>
      <trkpt lat="43.14549" lon="5.70446">
        <ele>100</ele>
        <time>2020-02-12T10:54:13Z</time>
      </trkpt>
      <trkpt lat="43.14549" lon="5.70454">
        <ele>99</ele>
        <time>2020-02-12T10:54:21Z</time>
      </trkpt>
      <trkpt lat="43.14549" lon="5.70461">
        <ele>100</ele>
        <time>2020-02-12T10:54:31Z</time>
      </trkpt>
      <trkpt lat="43.14551" lon="5.70467">
        <ele>103</ele>
        <time>2020-02-12T10:54:45Z</time>
      </trkpt>
      <trkpt lat="43.14553" lon="5.70473">
        <ele>105</ele>
        <time>2020-02-12T10:54:55Z</time>
      </trkpt>
      <trkpt lat="43.14556" lon="5.70479">
        <ele>104</ele>
        <time>2020-02-12T10:55:05Z</time>
      </trkpt>
      <trkpt lat="43.14558" lon="5.70486">
        <ele>104</ele>
        <time>2020-02-12T10:55:37Z</time>
      </trkpt>
      <trkpt lat="43.14561" lon="5.7049">
        <ele>103</ele>
        <time>2020-02-12T10:55:53Z</time>
      </trkpt>
      <trkpt lat="43.14565" lon="5.7049">
        <ele>104</ele>
        <time>2020-02-12T10:56:09Z</time>
      </trkpt>
      <trkpt lat="43.1457" lon="5.70493">
        <ele>104</ele>
        <time>2020-02-12T10:56:19Z</time>
      </trkpt>
      <trkpt lat="43.14573" lon="5.70497">
        <ele>100</ele>
        <time>2020-02-12T10:56:31Z</time>
      </trkpt>
      <trkpt lat="43.14577" lon="5.70499">
        <ele>103</ele>
        <time>2020-02-12T10:56:51Z</time>
      </trkpt>
      <trkpt lat="43.14583" lon="5.70499">
        <ele>105</ele>
        <time>2020-02-12T10:56:57Z</time>
      </trkpt>
      <trkpt lat="43.14586" lon="5.70504">
        <ele>107</ele>
        <time>2020-02-12T10:57:09Z</time>
      </trkpt>
      <trkpt lat="43.14586" lon="5.70511">
        <ele>110</ele>
        <time>2020-02-12T10:57:15Z</time>
      </trkpt>
      <trkpt lat="43.14588" lon="5.70518">
        <ele>109</ele>
        <time>2020-02-12T10:57:21Z</time>
      </trkpt>
      <trkpt lat="43.1459" lon="5.70525">
        <ele>112</ele>
        <time>2020-02-12T10:57:27Z</time>
      </trkpt>
      <trkpt lat="43.14591" lon="5.70531">
        <ele>108</ele>
        <time>2020-02-12T10:57:43Z</time>
      </trkpt>
      <trkpt lat="43.14591" lon="5.70537">
        <ele>105</ele>
        <time>2020-02-12T10:57:49Z</time>
      </trkpt>
      <trkpt lat="43.1459" lon="5.70545">
        <ele>102</ele>
        <time>2020-02-12T10:57:57Z</time>
      </trkpt>
      <trkpt lat="43.14587" lon="5.7055">
        <ele>103</ele>
        <time>2020-02-12T10:58:17Z</time>
      </trkpt>
      <trkpt lat="43.14585" lon="5.70556">
        <ele>100</ele>
        <time>2020-02-12T10:58:27Z</time>
      </trkpt>
      <trkpt lat="43.14584" lon="5.70562">
        <ele>100</ele>
        <time>2020-02-12T10:58:33Z</time>
      </trkpt>
      <trkpt lat="43.14582" lon="5.7057">
        <ele>101</ele>
        <time>2020-02-12T10:58:39Z</time>
      </trkpt>
      <trkpt lat="43.1458" lon="5.70577">
        <ele>103</ele>
        <time>2020-02-12T10:58:45Z</time>
      </trkpt>
      <trkpt lat="43.14577" lon="5.70585">
        <ele>101</ele>
        <time>2020-02-12T10:58:53Z</time>
      </trkpt>
      <trkpt lat="43.14574" lon="5.70591">
        <ele>103</ele>
        <time>2020-02-12T10:58:59Z</time>
      </trkpt>
      <trkpt lat="43.14572" lon="5.70596">
        <ele>100</ele>
        <time>2020-02-12T10:59:05Z</time>
      </trkpt>
      <trkpt lat="43.1457" lon="5.70604">
        <ele>99</ele>
        <time>2020-02-12T10:59:11Z</time>
      </trkpt>
      <trkpt lat="43.14566" lon="5.70609">
        <ele>96</ele>
        <time>2020-02-12T10:59:17Z</time>
      </trkpt>
      <trkpt lat="43.14563" lon="5.70614">
        <ele>96</ele>
        <time>2020-02-12T10:59:23Z</time>
      </trkpt>
      <trkpt lat="43.14561" lon="5.70621">
        <ele>95</ele>
        <time>2020-02-12T10:59:29Z</time>
      </trkpt>
      <trkpt lat="43.14559" lon="5.70627">
        <ele>96</ele>
        <time>2020-02-12T10:59:35Z</time>
      </trkpt>
      <trkpt lat="43.14558" lon="5.70633">
        <ele>95</ele>
        <time>2020-02-12T10:59:41Z</time>
      </trkpt>
      <trkpt lat="43.14555" lon="5.70642">
        <ele>96</ele>
        <time>2020-02-12T10:59:47Z</time>
      </trkpt>
      <trkpt lat="43.14552" lon="5.70648">
        <ele>96</ele>
        <time>2020-02-12T10:59:51Z</time>
      </trkpt>
      <trkpt lat="43.1455" lon="5.70653">
        <ele>97</ele>
        <time>2020-02-12T10:59:55Z</time>
      </trkpt>
      <trkpt lat="43.14548" lon="5.70659">
        <ele>95</ele>
        <time>2020-02-12T11:00:01Z</time>
      </trkpt>
      <trkpt lat="43.14544" lon="5.70665">
        <ele>95</ele>
        <time>2020-02-12T11:00:07Z</time>
      </trkpt>
      <trkpt lat="43.14541" lon="5.7067">
        <ele>93</ele>
        <time>2020-02-12T11:00:15Z</time>
      </trkpt>
      <trkpt lat="43.1454" lon="5.70676">
        <ele>92</ele>
        <time>2020-02-12T11:00:23Z</time>
      </trkpt>
      <trkpt lat="43.14542" lon="5.70682">
        <ele>89</ele>
        <time>2020-02-12T11:00:29Z</time>
      </trkpt>
      <trkpt lat="43.14547" lon="5.70684">
        <ele>87</ele>
        <time>2020-02-12T11:00:35Z</time>
      </trkpt>
      <trkpt lat="43.14553" lon="5.70684">
        <ele>86</ele>
        <time>2020-02-12T11:00:43Z</time>
      </trkpt>
      <trkpt lat="43.14557" lon="5.70686">
        <ele>86</ele>
        <time>2020-02-12T11:00:51Z</time>
      </trkpt>
      <trkpt lat="43.14563" lon="5.70685">
        <ele>84</ele>
        <time>2020-02-12T11:01:01Z</time>
      </trkpt>
      <trkpt lat="43.14568" lon="5.70685">
        <ele>83</ele>
        <time>2020-02-12T11:01:07Z</time>
      </trkpt>
      <trkpt lat="43.14573" lon="5.70686">
        <ele>81</ele>
        <time>2020-02-12T11:01:13Z</time>
      </trkpt>
      <trkpt lat="43.14578" lon="5.70686">
        <ele>78</ele>
        <time>2020-02-12T11:01:23Z</time>
      </trkpt>
      <trkpt lat="43.14585" lon="5.70686">
        <ele>76</ele>
        <time>2020-02-12T11:01:31Z</time>
      </trkpt>
      <trkpt lat="43.14592" lon="5.70687">
        <ele>78</ele>
        <time>2020-02-12T11:01:37Z</time>
      </trkpt>
      <trkpt lat="43.14596" lon="5.70687">
        <ele>79</ele>
        <time>2020-02-12T11:01:43Z</time>
      </trkpt>
      <trkpt lat="43.14602" lon="5.70688">
        <ele>79</ele>
        <time>2020-02-12T11:01:51Z</time>
      </trkpt>
      <trkpt lat="43.14608" lon="5.70689">
        <ele>78</ele>
        <time>2020-02-12T11:01:57Z</time>
      </trkpt>
      <trkpt lat="43.14614" lon="5.70689">
        <ele>76</ele>
        <time>2020-02-12T11:02:07Z</time>
      </trkpt>
      <trkpt lat="43.1462" lon="5.70688">
        <ele>74</ele>
        <time>2020-02-12T11:02:15Z</time>
      </trkpt>
      <trkpt lat="43.14626" lon="5.70689">
        <ele>74</ele>
        <time>2020-02-12T11:02:19Z</time>
      </trkpt>
      <trkpt lat="43.1463" lon="5.70689">
        <ele>71</ele>
        <time>2020-02-12T11:02:25Z</time>
      </trkpt>
      <trkpt lat="43.14635" lon="5.70689">
        <ele>70</ele>
        <time>2020-02-12T11:02:33Z</time>
      </trkpt>
      <trkpt lat="43.14641" lon="5.7069">
        <ele>70</ele>
        <time>2020-02-12T11:02:41Z</time>
      </trkpt>
      <trkpt lat="43.14646" lon="5.70691">
        <ele>67</ele>
        <time>2020-02-12T11:02:53Z</time>
      </trkpt>
      <trkpt lat="43.14653" lon="5.7069">
        <ele>66</ele>
        <time>2020-02-12T11:02:59Z</time>
      </trkpt>
      <trkpt lat="43.14658" lon="5.70688">
        <ele>68</ele>
        <time>2020-02-12T11:03:07Z</time>
      </trkpt>
      <trkpt lat="43.14663" lon="5.70688">
        <ele>68</ele>
        <time>2020-02-12T11:03:13Z</time>
      </trkpt>
      <trkpt lat="43.14669" lon="5.70687">
        <ele>69</ele>
        <time>2020-02-12T11:03:19Z</time>
      </trkpt>
      <trkpt lat="43.14674" lon="5.70686">
        <ele>67</ele>
        <time>2020-02-12T11:03:31Z</time>
      </trkpt>
      <trkpt lat="43.1468" lon="5.70687">
        <ele>69</ele>
        <time>2020-02-12T11:03:39Z</time>
      </trkpt>
      <trkpt lat="43.14685" lon="5.70688">
        <ele>69</ele>
        <time>2020-02-12T11:03:47Z</time>
      </trkpt>
      <trkpt lat="43.14691" lon="5.70689">
        <ele>68</ele>
        <time>2020-02-12T11:03:59Z</time>
      </trkpt>
      <trkpt lat="43.14696" lon="5.70694">
        <ele>67</ele>
        <time>2020-02-12T11:04:07Z</time>
      </trkpt>
      <trkpt lat="43.14701" lon="5.70698">
        <ele>68</ele>
        <time>2020-02-12T11:04:45Z</time>
      </trkpt>
      <trkpt lat="43.14699" lon="5.70704">
        <ele>66</ele>
        <time>2020-02-12T11:07:49Z</time>
      </trkpt>
      <trkpt lat="43.14697" lon="5.7071">
        <ele>68</ele>
        <time>2020-02-12T11:07:55Z</time>
      </trkpt>
      <trkpt lat="43.14698" lon="5.70719">
        <ele>67</ele>
        <time>2020-02-12T11:08:01Z</time>
      </trkpt>
      <trkpt lat="43.14699" lon="5.70728">
        <ele>67</ele>
        <time>2020-02-12T11:08:07Z</time>
      </trkpt>
      <trkpt lat="43.14698" lon="5.70737">
        <ele>68</ele>
        <time>2020-02-12T11:08:13Z</time>
      </trkpt>
      <trkpt lat="43.14698" lon="5.70743">
        <ele>67</ele>
        <time>2020-02-12T11:08:19Z</time>
      </trkpt>
      <trkpt lat="43.14696" lon="5.70749">
        <ele>66</ele>
        <time>2020-02-12T11:08:25Z</time>
      </trkpt>
      <trkpt lat="43.14694" lon="5.70757">
        <ele>65</ele>
        <time>2020-02-12T11:08:33Z</time>
      </trkpt>
      <trkpt lat="43.14692" lon="5.70763">
        <ele>68</ele>
        <time>2020-02-12T11:08:43Z</time>
      </trkpt>
      <trkpt lat="43.14692" lon="5.70771">
        <ele>69</ele>
        <time>2020-02-12T11:08:51Z</time>
      </trkpt>
      <trkpt lat="43.14692" lon="5.70778">
        <ele>70</ele>
        <time>2020-02-12T11:08:57Z</time>
      </trkpt>
      <trkpt lat="43.1469" lon="5.70785">
        <ele>67</ele>
        <time>2020-02-12T11:09:03Z</time>
      </trkpt>
      <trkpt lat="43.1469" lon="5.70791">
        <ele>69</ele>
        <time>2020-02-12T11:09:09Z</time>
      </trkpt>
      <trkpt lat="43.14691" lon="5.70798">
        <ele>70</ele>
        <time>2020-02-12T11:09:17Z</time>
      </trkpt>
      <trkpt lat="43.14692" lon="5.70806">
        <ele>71</ele>
        <time>2020-02-12T11:09:25Z</time>
      </trkpt>
      <trkpt lat="43.14691" lon="5.70812">
        <ele>72</ele>
        <time>2020-02-12T11:09:33Z</time>
      </trkpt>
      <trkpt lat="43.14689" lon="5.70818">
        <ele>73</ele>
        <time>2020-02-12T11:09:39Z</time>
      </trkpt>
      <trkpt lat="43.14685" lon="5.70823">
        <ele>74</ele>
        <time>2020-02-12T11:09:45Z</time>
      </trkpt>
      <trkpt lat="43.14684" lon="5.70831">
        <ele>70</ele>
        <time>2020-02-12T11:09:55Z</time>
      </trkpt>
      <trkpt lat="43.14685" lon="5.70837">
        <ele>68</ele>
        <time>2020-02-12T11:10:03Z</time>
      </trkpt>
      <trkpt lat="43.14685" lon="5.70843">
        <ele>67</ele>
        <time>2020-02-12T11:10:07Z</time>
      </trkpt>
      <trkpt lat="43.14684" lon="5.70851">
        <ele>68</ele>
        <time>2020-02-12T11:10:13Z</time>
      </trkpt>
      <trkpt lat="43.14685" lon="5.70859">
        <ele>67</ele>
        <time>2020-02-12T11:10:19Z</time>
      </trkpt>
      <trkpt lat="43.14685" lon="5.70866">
        <ele>68</ele>
        <time>2020-02-12T11:10:27Z</time>
      </trkpt>
      <trkpt lat="43.14686" lon="5.70872">
        <ele>67</ele>
        <time>2020-02-12T11:10:33Z</time>
      </trkpt>
      <trkpt lat="43.14686" lon="5.7088">
        <ele>65</ele>
        <time>2020-02-12T11:10:39Z</time>
      </trkpt>
      <trkpt lat="43.14687" lon="5.70886">
        <ele>64</ele>
        <time>2020-02-12T11:10:45Z</time>
      </trkpt>
      <trkpt lat="43.14692" lon="5.7089">
        <ele>62</ele>
        <time>2020-02-12T11:10:53Z</time>
      </trkpt>
      <trkpt lat="43.14696" lon="5.70893">
        <ele>59</ele>
        <time>2020-02-12T11:11:01Z</time>
      </trkpt>
      <trkpt lat="43.147" lon="5.70897">
        <ele>57</ele>
        <time>2020-02-12T11:11:09Z</time>
      </trkpt>
      <trkpt lat="43.14704" lon="5.70901">
        <ele>58</ele>
        <time>2020-02-12T11:11:17Z</time>
      </trkpt>
      <trkpt lat="43.14709" lon="5.70904">
        <ele>57</ele>
        <time>2020-02-12T11:11:25Z</time>
      </trkpt>
      <trkpt lat="43.14713" lon="5.70907">
        <ele>59</ele>
        <time>2020-02-12T11:11:31Z</time>
      </trkpt>
      <trkpt lat="43.14718" lon="5.7091">
        <ele>58</ele>
        <time>2020-02-12T11:11:37Z</time>
      </trkpt>
      <trkpt lat="43.14723" lon="5.70913">
        <ele>57</ele>
        <time>2020-02-12T11:11:45Z</time>
      </trkpt>
      <trkpt lat="43.14727" lon="5.70917">
        <ele>58</ele>
        <time>2020-02-12T11:11:53Z</time>
      </trkpt>
      <trkpt lat="43.1473" lon="5.70921">
        <ele>58</ele>
        <time>2020-02-12T11:12:01Z</time>
      </trkpt>
      <trkpt lat="43.14734" lon="5.70927">
        <ele>54</ele>
        <time>2020-02-12T11:12:13Z</time>
      </trkpt>
      <trkpt lat="43.14738" lon="5.70932">
        <ele>54</ele>
        <time>2020-02-12T11:12:21Z</time>
      </trkpt>
      <trkpt lat="43.14742" lon="5.70937">
        <ele>53</ele>
        <time>2020-02-12T11:12:35Z</time>
      </trkpt>
      <trkpt lat="43.14745" lon="5.70942">
        <ele>54</ele>
        <time>2020-02-12T11:12:39Z</time>
      </trkpt>
      <trkpt lat="43.14745" lon="5.70948">
        <ele>52</ele>
        <time>2020-02-12T11:12:45Z</time>
      </trkpt>
      <trkpt lat="43.14748" lon="5.70953">
        <ele>51</ele>
        <time>2020-02-12T11:12:51Z</time>
      </trkpt>
      <trkpt lat="43.14749" lon="5.7096">
        <ele>51</ele>
        <time>2020-02-12T11:12:59Z</time>
      </trkpt>
      <trkpt lat="43.14745" lon="5.70964">
        <ele>52</ele>
        <time>2020-02-12T11:13:15Z</time>
      </trkpt>
      <trkpt lat="43.1474" lon="5.70968">
        <ele>53</ele>
        <time>2020-02-12T11:13:21Z</time>
      </trkpt>
      <trkpt lat="43.14736" lon="5.70972">
        <ele>43</ele>
        <time>2020-02-12T11:13:35Z</time>
      </trkpt>
      <trkpt lat="43.14736" lon="5.70978">
        <ele>45</ele>
        <time>2020-02-12T11:13:49Z</time>
      </trkpt>
      <trkpt lat="43.14735" lon="5.70985">
        <ele>45</ele>
        <time>2020-02-12T11:13:53Z</time>
      </trkpt>
      <trkpt lat="43.14735" lon="5.70991">
        <ele>48</ele>
        <time>2020-02-12T11:13:59Z</time>
      </trkpt>
      <trkpt lat="43.14734" lon="5.70999">
        <ele>49</ele>
        <time>2020-02-12T11:14:07Z</time>
      </trkpt>
      <trkpt lat="43.14735" lon="5.71006">
        <ele>43</ele>
        <time>2020-02-12T11:14:57Z</time>
      </trkpt>
      <trkpt lat="43.14735" lon="5.71012">
        <ele>37</ele>
        <time>2020-02-12T11:16:03Z</time>
      </trkpt>
      <trkpt lat="43.14732" lon="5.71018">
        <ele>34</ele>
        <time>2020-02-12T11:16:09Z</time>
      </trkpt>
      <trkpt lat="43.14728" lon="5.71022">
        <ele>37</ele>
        <time>2020-02-12T11:16:15Z</time>
      </trkpt>
      <trkpt lat="43.14722" lon="5.71025">
        <ele>40</ele>
        <time>2020-02-12T11:16:25Z</time>
      </trkpt>
      <trkpt lat="43.14718" lon="5.71027">
        <ele>39</ele>
        <time>2020-02-12T11:16:35Z</time>
      </trkpt>
      <trkpt lat="43.14712" lon="5.71028">
        <ele>40</ele>
        <time>2020-02-12T11:16:51Z</time>
      </trkpt>
      <trkpt lat="43.14707" lon="5.71028">
        <ele>42</ele>
        <time>2020-02-12T11:16:57Z</time>
      </trkpt>
      <trkpt lat="43.14702" lon="5.71027">
        <ele>38</ele>
        <time>2020-02-12T11:17:03Z</time>
      </trkpt>
      <trkpt lat="43.14698" lon="5.71023">
        <ele>39</ele>
        <time>2020-02-12T11:17:11Z</time>
      </trkpt>
      <trkpt lat="43.14692" lon="5.71023">
        <ele>40</ele>
        <time>2020-02-12T11:17:17Z</time>
      </trkpt>
      <trkpt lat="43.14687" lon="5.71025">
        <ele>40</ele>
        <time>2020-02-12T11:17:21Z</time>
      </trkpt>
      <trkpt lat="43.14682" lon="5.71027">
        <ele>40</ele>
        <time>2020-02-12T11:17:27Z</time>
      </trkpt>
      <trkpt lat="43.14676" lon="5.71027">
        <ele>38</ele>
        <time>2020-02-12T11:17:33Z</time>
      </trkpt>
      <trkpt lat="43.14671" lon="5.71027">
        <ele>38</ele>
        <time>2020-02-12T11:17:39Z</time>
      </trkpt>
      <trkpt lat="43.14666" lon="5.71031">
        <ele>37</ele>
        <time>2020-02-12T11:17:45Z</time>
      </trkpt>
      <trkpt lat="43.14661" lon="5.71034">
        <ele>35</ele>
        <time>2020-02-12T11:17:53Z</time>
      </trkpt>
      <trkpt lat="43.14656" lon="5.71035">
        <ele>32</ele>
        <time>2020-02-12T11:18:01Z</time>
      </trkpt>
      <trkpt lat="43.14651" lon="5.71034">
        <ele>29</ele>
        <time>2020-02-12T11:18:09Z</time>
      </trkpt>
      <trkpt lat="43.14647" lon="5.71034">
        <ele>31</ele>
        <time>2020-02-12T11:18:15Z</time>
      </trkpt>
      <trkpt lat="43.14642" lon="5.71034">
        <ele>32</ele>
        <time>2020-02-12T11:18:23Z</time>
      </trkpt>
      <trkpt lat="43.14637" lon="5.71035">
        <ele>34</ele>
        <time>2020-02-12T11:18:31Z</time>
      </trkpt>
      <trkpt lat="43.14631" lon="5.71037">
        <ele>35</ele>
        <time>2020-02-12T11:18:39Z</time>
      </trkpt>
      <trkpt lat="43.14625" lon="5.71039">
        <ele>37</ele>
        <time>2020-02-12T11:18:45Z</time>
      </trkpt>
      <trkpt lat="43.14619" lon="5.7104">
        <ele>36</ele>
        <time>2020-02-12T11:18:51Z</time>
      </trkpt>
      <trkpt lat="43.14613" lon="5.7104">
        <ele>39</ele>
        <time>2020-02-12T11:18:57Z</time>
      </trkpt>
      <trkpt lat="43.14607" lon="5.71041">
        <ele>40</ele>
        <time>2020-02-12T11:19:03Z</time>
      </trkpt>
      <trkpt lat="43.14601" lon="5.71041">
        <ele>46</ele>
        <time>2020-02-12T11:19:09Z</time>
      </trkpt>
      <trkpt lat="43.14596" lon="5.71041">
        <ele>50</ele>
        <time>2020-02-12T11:19:17Z</time>
      </trkpt>
      <trkpt lat="43.14591" lon="5.71044">
        <ele>47</ele>
        <time>2020-02-12T11:19:23Z</time>
      </trkpt>
      <trkpt lat="43.14586" lon="5.71047">
        <ele>44</ele>
        <time>2020-02-12T11:19:29Z</time>
      </trkpt>
      <trkpt lat="43.14581" lon="5.71049">
        <ele>42</ele>
        <time>2020-02-12T11:19:35Z</time>
      </trkpt>
      <trkpt lat="43.14576" lon="5.7105">
        <ele>48</ele>
        <time>2020-02-12T11:19:43Z</time>
      </trkpt>
      <trkpt lat="43.14572" lon="5.71052">
        <ele>50</ele>
        <time>2020-02-12T11:19:57Z</time>
      </trkpt>
      <trkpt lat="43.14568" lon="5.71056">
        <ele>53</ele>
        <time>2020-02-12T11:20:05Z</time>
      </trkpt>
      <trkpt lat="43.14562" lon="5.71059">
        <ele>57</ele>
        <time>2020-02-12T11:20:17Z</time>
      </trkpt>
      <trkpt lat="43.14559" lon="5.71064">
        <ele>57</ele>
        <time>2020-02-12T11:20:21Z</time>
      </trkpt>
      <trkpt lat="43.14555" lon="5.7107">
        <ele>60</ele>
        <time>2020-02-12T11:20:25Z</time>
      </trkpt>
      <trkpt lat="43.14552" lon="5.71078">
        <ele>62</ele>
        <time>2020-02-12T11:20:29Z</time>
      </trkpt>
      <trkpt lat="43.14549" lon="5.71085">
        <ele>62</ele>
        <time>2020-02-12T11:20:33Z</time>
      </trkpt>
      <trkpt lat="43.14547" lon="5.71092">
        <ele>63</ele>
        <time>2020-02-12T11:20:37Z</time>
      </trkpt>
      <trkpt lat="43.14547" lon="5.71099">
        <ele>66</ele>
        <time>2020-02-12T11:20:45Z</time>
      </trkpt>
      <trkpt lat="43.14548" lon="5.71106">
        <ele>67</ele>
        <time>2020-02-12T11:20:51Z</time>
      </trkpt>
      <trkpt lat="43.1455" lon="5.71114">
        <ele>68</ele>
        <time>2020-02-12T11:20:57Z</time>
      </trkpt>
      <trkpt lat="43.14552" lon="5.71121">
        <ele>69</ele>
        <time>2020-02-12T11:21:03Z</time>
      </trkpt>
      <trkpt lat="43.14551" lon="5.71128">
        <ele>68</ele>
        <time>2020-02-12T11:21:09Z</time>
      </trkpt>
      <trkpt lat="43.14551" lon="5.71135">
        <ele>70</ele>
        <time>2020-02-12T11:21:15Z</time>
      </trkpt>
      <trkpt lat="43.14551" lon="5.71142">
        <ele>71</ele>
        <time>2020-02-12T11:21:21Z</time>
      </trkpt>
      <trkpt lat="43.1455" lon="5.71148">
        <ele>71</ele>
        <time>2020-02-12T11:21:27Z</time>
      </trkpt>
      <trkpt lat="43.14549" lon="5.71156">
        <ele>73</ele>
        <time>2020-02-12T11:21:33Z</time>
      </trkpt>
      <trkpt lat="43.1455" lon="5.71164">
        <ele>71</ele>
        <time>2020-02-12T11:21:39Z</time>
      </trkpt>
      <trkpt lat="43.14556" lon="5.71167">
        <ele>72</ele>
        <time>2020-02-12T11:21:45Z</time>
      </trkpt>
      <trkpt lat="43.14562" lon="5.71169">
        <ele>74</ele>
        <time>2020-02-12T11:21:51Z</time>
      </trkpt>
      <trkpt lat="43.14567" lon="5.71171">
        <ele>74</ele>
        <time>2020-02-12T11:21:59Z</time>
      </trkpt>
      <trkpt lat="43.14572" lon="5.71174">
        <ele>76</ele>
        <time>2020-02-12T11:22:09Z</time>
      </trkpt>
      <trkpt lat="43.14577" lon="5.71178">
        <ele>79</ele>
        <time>2020-02-12T11:22:17Z</time>
      </trkpt>
      <trkpt lat="43.14582" lon="5.7118">
        <ele>80</ele>
        <time>2020-02-12T11:22:23Z</time>
      </trkpt>
      <trkpt lat="43.14587" lon="5.71183">
        <ele>78</ele>
        <time>2020-02-12T11:22:31Z</time>
      </trkpt>
      <trkpt lat="43.14592" lon="5.71186">
        <ele>79</ele>
        <time>2020-02-12T11:22:37Z</time>
      </trkpt>
      <trkpt lat="43.14595" lon="5.71191">
        <ele>79</ele>
        <time>2020-02-12T11:22:45Z</time>
      </trkpt>
      <trkpt lat="43.14599" lon="5.71196">
        <ele>82</ele>
        <time>2020-02-12T11:22:53Z</time>
      </trkpt>
      <trkpt lat="43.14604" lon="5.712">
        <ele>84</ele>
        <time>2020-02-12T11:22:59Z</time>
      </trkpt>
      <trkpt lat="43.14608" lon="5.71204">
        <ele>84</ele>
        <time>2020-02-12T11:23:07Z</time>
      </trkpt>
      <trkpt lat="43.14612" lon="5.71209">
        <ele>82</ele>
        <time>2020-02-12T11:23:15Z</time>
      </trkpt>
      <trkpt lat="43.14616" lon="5.71213">
        <ele>82</ele>
        <time>2020-02-12T11:23:21Z</time>
      </trkpt>
      <trkpt lat="43.14619" lon="5.7122">
        <ele>81</ele>
        <time>2020-02-12T11:23:27Z</time>
      </trkpt>
      <trkpt lat="43.14622" lon="5.71225">
        <ele>81</ele>
        <time>2020-02-12T11:23:33Z</time>
      </trkpt>
      <trkpt lat="43.14626" lon="5.71228">
        <ele>79</ele>
        <time>2020-02-12T11:23:39Z</time>
      </trkpt>
      <trkpt lat="43.1463" lon="5.71232">
        <ele>80</ele>
        <time>2020-02-12T11:23:45Z</time>
      </trkpt>
      <trkpt lat="43.14634" lon="5.71238">
        <ele>75</ele>
        <time>2020-02-12T11:23:53Z</time>
      </trkpt>
      <trkpt lat="43.14637" lon="5.71244">
        <ele>76</ele>
        <time>2020-02-12T11:23:59Z</time>
      </trkpt>
      <trkpt lat="43.1464" lon="5.71248">
        <ele>77</ele>
        <time>2020-02-12T11:24:03Z</time>
      </trkpt>
      <trkpt lat="43.14643" lon="5.71254">
        <ele>79</ele>
        <time>2020-02-12T11:24:07Z</time>
      </trkpt>
      <trkpt lat="43.14647" lon="5.71259">
        <ele>81</ele>
        <time>2020-02-12T11:24:11Z</time>
      </trkpt>
      <trkpt lat="43.1465" lon="5.71268">
        <ele>84</ele>
        <time>2020-02-12T11:24:17Z</time>
      </trkpt>
      <trkpt lat="43.14654" lon="5.71274">
        <ele>85</ele>
        <time>2020-02-12T11:24:21Z</time>
      </trkpt>
      <trkpt lat="43.14656" lon="5.71279">
        <ele>86</ele>
        <time>2020-02-12T11:24:25Z</time>
      </trkpt>
      <trkpt lat="43.14659" lon="5.71285">
        <ele>87</ele>
        <time>2020-02-12T11:24:31Z</time>
      </trkpt>
      <trkpt lat="43.14664" lon="5.71291">
        <ele>88</ele>
        <time>2020-02-12T11:24:37Z</time>
      </trkpt>
      <trkpt lat="43.14667" lon="5.71297">
        <ele>88</ele>
        <time>2020-02-12T11:24:43Z</time>
      </trkpt>
      <trkpt lat="43.1467" lon="5.71303">
        <ele>89</ele>
        <time>2020-02-12T11:24:49Z</time>
      </trkpt>
      <trkpt lat="43.14675" lon="5.71307">
        <ele>93</ele>
        <time>2020-02-12T11:24:55Z</time>
      </trkpt>
      <trkpt lat="43.14678" lon="5.71312">
        <ele>92</ele>
        <time>2020-02-12T11:25:01Z</time>
      </trkpt>
      <trkpt lat="43.14681" lon="5.71318">
        <ele>90</ele>
        <time>2020-02-12T11:25:07Z</time>
      </trkpt>
      <trkpt lat="43.14686" lon="5.71323">
        <ele>91</ele>
        <time>2020-02-12T11:25:13Z</time>
      </trkpt>
      <trkpt lat="43.14691" lon="5.71329">
        <ele>91</ele>
        <time>2020-02-12T11:25:19Z</time>
      </trkpt>
      <trkpt lat="43.14695" lon="5.71333">
        <ele>90</ele>
        <time>2020-02-12T11:25:23Z</time>
      </trkpt>
      <trkpt lat="43.14697" lon="5.71339">
        <ele>87</ele>
        <time>2020-02-12T11:25:29Z</time>
      </trkpt>
      <trkpt lat="43.14701" lon="5.71342">
        <ele>88</ele>
        <time>2020-02-12T11:25:33Z</time>
      </trkpt>
      <trkpt lat="43.14705" lon="5.71345">
        <ele>89</ele>
        <time>2020-02-12T11:25:37Z</time>
      </trkpt>
      <trkpt lat="43.14709" lon="5.71352">
        <ele>90</ele>
        <time>2020-02-12T11:25:43Z</time>
      </trkpt>
      <trkpt lat="43.14714" lon="5.71358">
        <ele>92</ele>
        <time>2020-02-12T11:25:49Z</time>
      </trkpt>
      <trkpt lat="43.14719" lon="5.71363">
        <ele>94</ele>
        <time>2020-02-12T11:25:53Z</time>
      </trkpt>
      <trkpt lat="43.14723" lon="5.71367">
        <ele>94</ele>
        <time>2020-02-12T11:25:57Z</time>
      </trkpt>
      <trkpt lat="43.14728" lon="5.71373">
        <ele>95</ele>
        <time>2020-02-12T11:26:03Z</time>
      </trkpt>
      <trkpt lat="43.14732" lon="5.71377">
        <ele>92</ele>
        <time>2020-02-12T11:26:07Z</time>
      </trkpt>
      <trkpt lat="43.14737" lon="5.71382">
        <ele>91</ele>
        <time>2020-02-12T11:26:13Z</time>
      </trkpt>
      <trkpt lat="43.14743" lon="5.71385">
        <ele>89</ele>
        <time>2020-02-12T11:26:19Z</time>
      </trkpt>
      <trkpt lat="43.14747" lon="5.7139">
        <ele>88</ele>
        <time>2020-02-12T11:26:25Z</time>
      </trkpt>
      <trkpt lat="43.14751" lon="5.71395">
        <ele>90</ele>
        <time>2020-02-12T11:26:31Z</time>
      </trkpt>
      <trkpt lat="43.14756" lon="5.714">
        <ele>88</ele>
        <time>2020-02-12T11:26:37Z</time>
      </trkpt>
      <trkpt lat="43.1476" lon="5.71405">
        <ele>88</ele>
        <time>2020-02-12T11:26:43Z</time>
      </trkpt>
      <trkpt lat="43.14763" lon="5.71412">
        <ele>86</ele>
        <time>2020-02-12T11:26:49Z</time>
      </trkpt>
      <trkpt lat="43.14766" lon="5.71418">
        <ele>86</ele>
        <time>2020-02-12T11:26:55Z</time>
      </trkpt>
      <trkpt lat="43.14772" lon="5.71423">
        <ele>86</ele>
        <time>2020-02-12T11:27:01Z</time>
      </trkpt>
      <trkpt lat="43.14775" lon="5.71427">
        <ele>87</ele>
        <time>2020-02-12T11:27:05Z</time>
      </trkpt>
      <trkpt lat="43.14778" lon="5.71432">
        <ele>89</ele>
        <time>2020-02-12T11:27:09Z</time>
      </trkpt>
      <trkpt lat="43.14782" lon="5.71437">
        <ele>90</ele>
        <time>2020-02-12T11:27:13Z</time>
      </trkpt>
      <trkpt lat="43.14786" lon="5.71444">
        <ele>91</ele>
        <time>2020-02-12T11:27:19Z</time>
      </trkpt>
      <trkpt lat="43.1479" lon="5.7145">
        <ele>87</ele>
        <time>2020-02-12T11:27:25Z</time>
      </trkpt>
      <trkpt lat="43.14793" lon="5.71458">
        <ele>88</ele>
        <time>2020-02-12T11:27:31Z</time>
      </trkpt>
      <trkpt lat="43.14796" lon="5.71465">
        <ele>87</ele>
        <time>2020-02-12T11:27:37Z</time>
      </trkpt>
      <trkpt lat="43.14798" lon="5.71472">
        <ele>86</ele>
        <time>2020-02-12T11:27:43Z</time>
      </trkpt>
      <trkpt lat="43.14803" lon="5.71479">
        <ele>87</ele>
        <time>2020-02-12T11:27:49Z</time>
      </trkpt>
      <trkpt lat="43.14807" lon="5.71483">
        <ele>87</ele>
        <time>2020-02-12T11:27:55Z</time>
      </trkpt>
      <trkpt lat="43.14813" lon="5.71487">
        <ele>84</ele>
        <time>2020-02-12T11:28:01Z</time>
      </trkpt>
      <trkpt lat="43.14818" lon="5.7149">
        <ele>86</ele>
        <time>2020-02-12T11:28:05Z</time>
      </trkpt>
      <trkpt lat="43.14822" lon="5.71493">
        <ele>86</ele>
        <time>2020-02-12T11:28:09Z</time>
      </trkpt>
      <trkpt lat="43.14827" lon="5.71496">
        <ele>83</ele>
        <time>2020-02-12T11:28:13Z</time>
      </trkpt>
      <trkpt lat="43.1483" lon="5.715">
        <ele>83</ele>
        <time>2020-02-12T11:28:17Z</time>
      </trkpt>
      <trkpt lat="43.14832" lon="5.71506">
        <ele>82</ele>
        <time>2020-02-12T11:28:23Z</time>
      </trkpt>
      <trkpt lat="43.14835" lon="5.71513">
        <ele>81</ele>
        <time>2020-02-12T11:28:29Z</time>
      </trkpt>
      <trkpt lat="43.14838" lon="5.71521">
        <ele>80</ele>
        <time>2020-02-12T11:28:35Z</time>
      </trkpt>
      <trkpt lat="43.14839" lon="5.71526">
        <ele>80</ele>
        <time>2020-02-12T11:28:39Z</time>
      </trkpt>
      <trkpt lat="43.14841" lon="5.71535">
        <ele>79</ele>
        <time>2020-02-12T11:28:45Z</time>
      </trkpt>
      <trkpt lat="43.14845" lon="5.71541">
        <ele>81</ele>
        <time>2020-02-12T11:28:51Z</time>
      </trkpt>
      <trkpt lat="43.1485" lon="5.71541">
        <ele>82</ele>
        <time>2020-02-12T11:28:57Z</time>
      </trkpt>
      <trkpt lat="43.14853" lon="5.71546">
        <ele>81</ele>
        <time>2020-02-12T11:29:05Z</time>
      </trkpt>
      <trkpt lat="43.14857" lon="5.71553">
        <ele>83</ele>
        <time>2020-02-12T11:29:11Z</time>
      </trkpt>
      <trkpt lat="43.1486" lon="5.71559">
        <ele>82</ele>
        <time>2020-02-12T11:29:17Z</time>
      </trkpt>
      <trkpt lat="43.14863" lon="5.71565">
        <ele>75</ele>
        <time>2020-02-12T11:29:23Z</time>
      </trkpt>
      <trkpt lat="43.14866" lon="5.7157">
        <ele>74</ele>
        <time>2020-02-12T11:29:29Z</time>
      </trkpt>
      <trkpt lat="43.14868" lon="5.71576">
        <ele>75</ele>
        <time>2020-02-12T11:29:35Z</time>
      </trkpt>
      <trkpt lat="43.14869" lon="5.71582">
        <ele>75</ele>
        <time>2020-02-12T11:29:41Z</time>
      </trkpt>
      <trkpt lat="43.14873" lon="5.7159">
        <ele>78</ele>
        <time>2020-02-12T11:29:47Z</time>
      </trkpt>
      <trkpt lat="43.14876" lon="5.71595">
        <ele>78</ele>
        <time>2020-02-12T11:29:51Z</time>
      </trkpt>
      <trkpt lat="43.14878" lon="5.716">
        <ele>82</ele>
        <time>2020-02-12T11:29:55Z</time>
      </trkpt>
      <trkpt lat="43.14879" lon="5.71606">
        <ele>84</ele>
        <time>2020-02-12T11:29:59Z</time>
      </trkpt>
      <trkpt lat="43.1488" lon="5.71615">
        <ele>83</ele>
        <time>2020-02-12T11:30:05Z</time>
      </trkpt>
      <trkpt lat="43.1488" lon="5.71622">
        <ele>89</ele>
        <time>2020-02-12T11:30:11Z</time>
      </trkpt>
      <trkpt lat="43.1488" lon="5.71631">
        <ele>91</ele>
        <time>2020-02-12T11:30:17Z</time>
      </trkpt>
      <trkpt lat="43.14878" lon="5.71638">
        <ele>92</ele>
        <time>2020-02-12T11:30:23Z</time>
      </trkpt>
      <trkpt lat="43.14876" lon="5.71644">
        <ele>92</ele>
        <time>2020-02-12T11:30:29Z</time>
      </trkpt>
      <trkpt lat="43.14875" lon="5.71651">
        <ele>91</ele>
        <time>2020-02-12T11:30:35Z</time>
      </trkpt>
      <trkpt lat="43.14873" lon="5.71658">
        <ele>91</ele>
        <time>2020-02-12T11:30:41Z</time>
      </trkpt>
      <trkpt lat="43.14871" lon="5.71665">
        <ele>91</ele>
        <time>2020-02-12T11:30:47Z</time>
      </trkpt>
      <trkpt lat="43.1487" lon="5.71671">
        <ele>89</ele>
        <time>2020-02-12T11:30:53Z</time>
      </trkpt>
      <trkpt lat="43.14868" lon="5.71677">
        <ele>88</ele>
        <time>2020-02-12T11:30:59Z</time>
      </trkpt>
      <trkpt lat="43.14867" lon="5.71684">
        <ele>91</ele>
        <time>2020-02-12T11:31:07Z</time>
      </trkpt>
      <trkpt lat="43.14866" lon="5.71691">
        <ele>96</ele>
        <time>2020-02-12T11:31:17Z</time>
      </trkpt>
      <trkpt lat="43.14864" lon="5.71698">
        <ele>98</ele>
        <time>2020-02-12T11:31:23Z</time>
      </trkpt>
      <trkpt lat="43.1486" lon="5.71704">
        <ele>100</ele>
        <time>2020-02-12T11:31:31Z</time>
      </trkpt>
      <trkpt lat="43.14858" lon="5.71709">
        <ele>103</ele>
        <time>2020-02-12T11:31:35Z</time>
      </trkpt>
      <trkpt lat="43.14855" lon="5.71715">
        <ele>98</ele>
        <time>2020-02-12T11:31:39Z</time>
      </trkpt>
      <trkpt lat="43.14853" lon="5.71723">
        <ele>101</ele>
        <time>2020-02-12T11:31:45Z</time>
      </trkpt>
      <trkpt lat="43.1485" lon="5.71731">
        <ele>100</ele>
        <time>2020-02-12T11:31:51Z</time>
      </trkpt>
      <trkpt lat="43.14848" lon="5.71738">
        <ele>102</ele>
        <time>2020-02-12T11:31:57Z</time>
      </trkpt>
      <trkpt lat="43.14845" lon="5.71747">
        <ele>103</ele>
        <time>2020-02-12T11:32:03Z</time>
      </trkpt>
      <trkpt lat="43.14843" lon="5.71754">
        <ele>103</ele>
        <time>2020-02-12T11:32:07Z</time>
      </trkpt>
      <trkpt lat="43.14843" lon="5.71761">
        <ele>102</ele>
        <time>2020-02-12T11:32:11Z</time>
      </trkpt>
      <trkpt lat="43.14842" lon="5.71769">
        <ele>101</ele>
        <time>2020-02-12T11:32:17Z</time>
      </trkpt>
      <trkpt lat="43.14841" lon="5.71778">
        <ele>97</ele>
        <time>2020-02-12T11:32:23Z</time>
      </trkpt>
      <trkpt lat="43.1484" lon="5.71784">
        <ele>98</ele>
        <time>2020-02-12T11:32:27Z</time>
      </trkpt>
      <trkpt lat="43.14839" lon="5.71793">
        <ele>100</ele>
        <time>2020-02-12T11:32:33Z</time>
      </trkpt>
      <trkpt lat="43.14838" lon="5.71801">
        <ele>101</ele>
        <time>2020-02-12T11:32:39Z</time>
      </trkpt>
      <trkpt lat="43.14837" lon="5.71808">
        <ele>101</ele>
        <time>2020-02-12T11:32:45Z</time>
      </trkpt>
      <trkpt lat="43.14836" lon="5.71816">
        <ele>102</ele>
        <time>2020-02-12T11:32:51Z</time>
      </trkpt>
      <trkpt lat="43.14836" lon="5.71823">
        <ele>103</ele>
        <time>2020-02-12T11:32:57Z</time>
      </trkpt>
      <trkpt lat="43.14836" lon="5.7183">
        <ele>102</ele>
        <time>2020-02-12T11:33:03Z</time>
      </trkpt>
      <trkpt lat="43.14836" lon="5.71837">
        <ele>102</ele>
        <time>2020-02-12T11:33:09Z</time>
      </trkpt>
      <trkpt lat="43.14837" lon="5.71843">
        <ele>104</ele>
        <time>2020-02-12T11:33:15Z</time>
      </trkpt>
      <trkpt lat="43.1484" lon="5.71849">
        <ele>103</ele>
        <time>2020-02-12T11:33:21Z</time>
      </trkpt>
      <trkpt lat="43.14845" lon="5.71853">
        <ele>103</ele>
        <time>2020-02-12T11:33:27Z</time>
      </trkpt>
      <trkpt lat="43.14848" lon="5.71857">
        <ele>104</ele>
        <time>2020-02-12T11:33:31Z</time>
      </trkpt>
      <trkpt lat="43.14852" lon="5.7186">
        <ele>103</ele>
        <time>2020-02-12T11:33:35Z</time>
      </trkpt>
      <trkpt lat="43.14857" lon="5.71863">
        <ele>103</ele>
        <time>2020-02-12T11:33:39Z</time>
      </trkpt>
      <trkpt lat="43.14861" lon="5.71866">
        <ele>104</ele>
        <time>2020-02-12T11:33:43Z</time>
      </trkpt>
      <trkpt lat="43.14866" lon="5.71868">
        <ele>104</ele>
        <time>2020-02-12T11:33:49Z</time>
      </trkpt>
      <trkpt lat="43.1487" lon="5.71872">
        <ele>103</ele>
        <time>2020-02-12T11:33:57Z</time>
      </trkpt>
      <trkpt lat="43.14875" lon="5.71875">
        <ele>105</ele>
        <time>2020-02-12T11:34:07Z</time>
      </trkpt>
      <trkpt lat="43.14878" lon="5.71879">
        <ele>99</ele>
        <time>2020-02-12T11:34:17Z</time>
      </trkpt>
      <trkpt lat="43.14878" lon="5.71888">
        <ele>99</ele>
        <time>2020-02-12T11:34:25Z</time>
      </trkpt>
      <trkpt lat="43.14877" lon="5.71894">
        <ele>99</ele>
        <time>2020-02-12T11:34:31Z</time>
      </trkpt>
      <trkpt lat="43.14879" lon="5.71901">
        <ele>100</ele>
        <time>2020-02-12T11:34:39Z</time>
      </trkpt>
      <trkpt lat="43.1488" lon="5.71907">
        <ele>102</ele>
        <time>2020-02-12T11:34:45Z</time>
      </trkpt>
      <trkpt lat="43.1488" lon="5.71914">
        <ele>101</ele>
        <time>2020-02-12T11:34:53Z</time>
      </trkpt>
      <trkpt lat="43.14882" lon="5.71921">
        <ele>100</ele>
        <time>2020-02-12T11:35:01Z</time>
      </trkpt>
      <trkpt lat="43.14885" lon="5.71927">
        <ele>103</ele>
        <time>2020-02-12T11:35:07Z</time>
      </trkpt>
      <trkpt lat="43.14888" lon="5.71934">
        <ele>102</ele>
        <time>2020-02-12T11:35:13Z</time>
      </trkpt>
      <trkpt lat="43.14889" lon="5.71942">
        <ele>102</ele>
        <time>2020-02-12T11:35:19Z</time>
      </trkpt>
      <trkpt lat="43.1489" lon="5.7195">
        <ele>104</ele>
        <time>2020-02-12T11:35:25Z</time>
      </trkpt>
      <trkpt lat="43.14891" lon="5.71958">
        <ele>101</ele>
        <time>2020-02-12T11:35:31Z</time>
      </trkpt>
      <trkpt lat="43.14892" lon="5.71964">
        <ele>102</ele>
        <time>2020-02-12T11:35:35Z</time>
      </trkpt>
      <trkpt lat="43.14893" lon="5.71972">
        <ele>99</ele>
        <time>2020-02-12T11:35:41Z</time>
      </trkpt>
      <trkpt lat="43.14895" lon="5.7198">
        <ele>99</ele>
        <time>2020-02-12T11:35:47Z</time>
      </trkpt>
      <trkpt lat="43.14896" lon="5.71987">
        <ele>96</ele>
        <time>2020-02-12T11:35:53Z</time>
      </trkpt>
      <trkpt lat="43.14899" lon="5.71993">
        <ele>99</ele>
        <time>2020-02-12T11:35:59Z</time>
      </trkpt>
      <trkpt lat="43.14901" lon="5.72001">
        <ele>97</ele>
        <time>2020-02-12T11:36:05Z</time>
      </trkpt>
      <trkpt lat="43.14902" lon="5.72007">
        <ele>96</ele>
        <time>2020-02-12T11:36:11Z</time>
      </trkpt>
      <trkpt lat="43.14901" lon="5.72013">
        <ele>99</ele>
        <time>2020-02-12T11:36:17Z</time>
      </trkpt>
      <trkpt lat="43.14896" lon="5.72015">
        <ele>94</ele>
        <time>2020-02-12T11:36:31Z</time>
      </trkpt>
      <trkpt lat="43.14891" lon="5.72017">
        <ele>94</ele>
        <time>2020-02-12T11:36:43Z</time>
      </trkpt>
      <trkpt lat="43.14887" lon="5.72019">
        <ele>94</ele>
        <time>2020-02-12T11:36:49Z</time>
      </trkpt>
      <trkpt lat="43.14881" lon="5.72021">
        <ele>92</ele>
        <time>2020-02-12T11:36:53Z</time>
      </trkpt>
      <trkpt lat="43.14876" lon="5.72024">
        <ele>91</ele>
        <time>2020-02-12T11:36:57Z</time>
      </trkpt>
      <trkpt lat="43.1487" lon="5.72026">
        <ele>96</ele>
        <time>2020-02-12T11:37:03Z</time>
      </trkpt>
      <trkpt lat="43.14864" lon="5.72027">
        <ele>94</ele>
        <time>2020-02-12T11:37:09Z</time>
      </trkpt>
      <trkpt lat="43.14858" lon="5.72028">
        <ele>97</ele>
        <time>2020-02-12T11:37:15Z</time>
      </trkpt>
      <trkpt lat="43.14853" lon="5.7203">
        <ele>95</ele>
        <time>2020-02-12T11:37:21Z</time>
      </trkpt>
      <trkpt lat="43.14848" lon="5.72032">
        <ele>95</ele>
        <time>2020-02-12T11:37:29Z</time>
      </trkpt>
      <trkpt lat="43.14842" lon="5.72033">
        <ele>96</ele>
        <time>2020-02-12T11:37:35Z</time>
      </trkpt>
      <trkpt lat="43.14836" lon="5.72032">
        <ele>95</ele>
        <time>2020-02-12T11:37:41Z</time>
      </trkpt>
      <trkpt lat="43.1483" lon="5.72032">
        <ele>94</ele>
        <time>2020-02-12T11:37:47Z</time>
      </trkpt>
      <trkpt lat="43.14825" lon="5.72032">
        <ele>93</ele>
        <time>2020-02-12T11:37:51Z</time>
      </trkpt>
      <trkpt lat="43.14819" lon="5.72033">
        <ele>92</ele>
        <time>2020-02-12T11:37:57Z</time>
      </trkpt>
      <trkpt lat="43.14815" lon="5.72032">
        <ele>92</ele>
        <time>2020-02-12T11:38:05Z</time>
      </trkpt>
      <trkpt lat="43.1481" lon="5.72032">
        <ele>97</ele>
        <time>2020-02-12T11:38:11Z</time>
      </trkpt>
      <trkpt lat="43.14805" lon="5.72033">
        <ele>99</ele>
        <time>2020-02-12T11:38:17Z</time>
      </trkpt>
      <trkpt lat="43.148" lon="5.72036">
        <ele>99</ele>
        <time>2020-02-12T11:38:23Z</time>
      </trkpt>
      <trkpt lat="43.14796" lon="5.72037">
        <ele>96</ele>
        <time>2020-02-12T11:38:29Z</time>
      </trkpt>
      <trkpt lat="43.1479" lon="5.72038">
        <ele>96</ele>
        <time>2020-02-12T11:38:35Z</time>
      </trkpt>
      <trkpt lat="43.14785" lon="5.7204">
        <ele>98</ele>
        <time>2020-02-12T11:38:41Z</time>
      </trkpt>
      <trkpt lat="43.14779" lon="5.72042">
        <ele>95</ele>
        <time>2020-02-12T11:38:47Z</time>
      </trkpt>
      <trkpt lat="43.14775" lon="5.72045">
        <ele>94</ele>
        <time>2020-02-12T11:38:51Z</time>
      </trkpt>
      <trkpt lat="43.1477" lon="5.72049">
        <ele>95</ele>
        <time>2020-02-12T11:38:57Z</time>
      </trkpt>
      <trkpt lat="43.14763" lon="5.72052">
        <ele>96</ele>
        <time>2020-02-12T11:39:05Z</time>
      </trkpt>
      <trkpt lat="43.14759" lon="5.72052">
        <ele>97</ele>
        <time>2020-02-12T11:39:11Z</time>
      </trkpt>
      <trkpt lat="43.14753" lon="5.72054">
        <ele>100</ele>
        <time>2020-02-12T11:39:19Z</time>
      </trkpt>
      <trkpt lat="43.14748" lon="5.72056">
        <ele>95</ele>
        <time>2020-02-12T11:39:25Z</time>
      </trkpt>
      <trkpt lat="43.14742" lon="5.72056">
        <ele>97</ele>
        <time>2020-02-12T11:39:33Z</time>
      </trkpt>
      <trkpt lat="43.14737" lon="5.72057">
        <ele>95</ele>
        <time>2020-02-12T11:39:41Z</time>
      </trkpt>
      <trkpt lat="43.14731" lon="5.7206">
        <ele>98</ele>
        <time>2020-02-12T11:39:49Z</time>
      </trkpt>
      <trkpt lat="43.14726" lon="5.72062">
        <ele>100</ele>
        <time>2020-02-12T11:39:55Z</time>
      </trkpt>
      <trkpt lat="43.14722" lon="5.72065">
        <ele>100</ele>
        <time>2020-02-12T11:39:59Z</time>
      </trkpt>
      <trkpt lat="43.14716" lon="5.72067">
        <ele>101</ele>
        <time>2020-02-12T11:40:05Z</time>
      </trkpt>
      <trkpt lat="43.14711" lon="5.72064">
        <ele>96</ele>
        <time>2020-02-12T11:40:15Z</time>
      </trkpt>
      <trkpt lat="43.14705" lon="5.72067">
        <ele>99</ele>
        <time>2020-02-12T11:40:25Z</time>
      </trkpt>
      <trkpt lat="43.14701" lon="5.72069">
        <ele>100</ele>
        <time>2020-02-12T11:40:33Z</time>
      </trkpt>
      <trkpt lat="43.14695" lon="5.72072">
        <ele>105</ele>
        <time>2020-02-12T11:40:43Z</time>
      </trkpt>
      <trkpt lat="43.14692" lon="5.72076">
        <ele>111</ele>
        <time>2020-02-12T11:40:49Z</time>
      </trkpt>
      <trkpt lat="43.14688" lon="5.72081">
        <ele>111</ele>
        <time>2020-02-12T11:40:55Z</time>
      </trkpt>
      <trkpt lat="43.14681" lon="5.72082">
        <ele>114</ele>
        <time>2020-02-12T11:41:01Z</time>
      </trkpt>
      <trkpt lat="43.14676" lon="5.7208">
        <ele>107</ele>
        <time>2020-02-12T11:41:07Z</time>
      </trkpt>
      <trkpt lat="43.14671" lon="5.72083">
        <ele>108</ele>
        <time>2020-02-12T11:41:13Z</time>
      </trkpt>
      <trkpt lat="43.14666" lon="5.72086">
        <ele>110</ele>
        <time>2020-02-12T11:41:21Z</time>
      </trkpt>
      <trkpt lat="43.14661" lon="5.72089">
        <ele>114</ele>
        <time>2020-02-12T11:41:31Z</time>
      </trkpt>
      <trkpt lat="43.14657" lon="5.72092">
        <ele>116</ele>
        <time>2020-02-12T11:41:41Z</time>
      </trkpt>
      <trkpt lat="43.14651" lon="5.72094">
        <ele>115</ele>
        <time>2020-02-12T11:41:51Z</time>
      </trkpt>
      <trkpt lat="43.14646" lon="5.72097">
        <ele>116</ele>
        <time>2020-02-12T11:41:59Z</time>
      </trkpt>
      <trkpt lat="43.1464" lon="5.72102">
        <ele>117</ele>
        <time>2020-02-12T11:42:05Z</time>
      </trkpt>
      <trkpt lat="43.14633" lon="5.72106">
        <ele>117</ele>
        <time>2020-02-12T11:42:11Z</time>
      </trkpt>
      <trkpt lat="43.14629" lon="5.72109">
        <ele>118</ele>
        <time>2020-02-12T11:42:15Z</time>
      </trkpt>
      <trkpt lat="43.14623" lon="5.72113">
        <ele>119</ele>
        <time>2020-02-12T11:42:21Z</time>
      </trkpt>
      <trkpt lat="43.14619" lon="5.72117">
        <ele>120</ele>
        <time>2020-02-12T11:42:25Z</time>
      </trkpt>
      <trkpt lat="43.14614" lon="5.72122">
        <ele>121</ele>
        <time>2020-02-12T11:42:33Z</time>
      </trkpt>
      <trkpt lat="43.1461" lon="5.72124">
        <ele>121</ele>
        <time>2020-02-12T11:42:39Z</time>
      </trkpt>
      <trkpt lat="43.14605" lon="5.72129">
        <ele>120</ele>
        <time>2020-02-12T11:42:45Z</time>
      </trkpt>
      <trkpt lat="43.14602" lon="5.72135">
        <ele>120</ele>
        <time>2020-02-12T11:42:53Z</time>
      </trkpt>
      <trkpt lat="43.14598" lon="5.72138">
        <ele>118</ele>
        <time>2020-02-12T11:42:59Z</time>
      </trkpt>
      <trkpt lat="43.14594" lon="5.72144">
        <ele>118</ele>
        <time>2020-02-12T11:43:07Z</time>
      </trkpt>
      <trkpt lat="43.14589" lon="5.72151">
        <ele>119</ele>
        <time>2020-02-12T11:43:13Z</time>
      </trkpt>
      <trkpt lat="43.14584" lon="5.72155">
        <ele>119</ele>
        <time>2020-02-12T11:43:19Z</time>
      </trkpt>
      <trkpt lat="43.1458" lon="5.72158">
        <ele>120</ele>
        <time>2020-02-12T11:43:23Z</time>
      </trkpt>
      <trkpt lat="43.14575" lon="5.72161">
        <ele>118</ele>
        <time>2020-02-12T11:43:29Z</time>
      </trkpt>
      <trkpt lat="43.1457" lon="5.72161">
        <ele>114</ele>
        <time>2020-02-12T11:43:35Z</time>
      </trkpt>
      <trkpt lat="43.14564" lon="5.72163">
        <ele>117</ele>
        <time>2020-02-12T11:43:41Z</time>
      </trkpt>
      <trkpt lat="43.14558" lon="5.72165">
        <ele>114</ele>
        <time>2020-02-12T11:43:47Z</time>
      </trkpt>
      <trkpt lat="43.14553" lon="5.72162">
        <ele>113</ele>
        <time>2020-02-12T11:43:55Z</time>
      </trkpt>
      <trkpt lat="43.14548" lon="5.72163">
        <ele>113</ele>
        <time>2020-02-12T11:44:01Z</time>
      </trkpt>
      <trkpt lat="43.14543" lon="5.72163">
        <ele>112</ele>
        <time>2020-02-12T11:44:07Z</time>
      </trkpt>
      <trkpt lat="43.14538" lon="5.72164">
        <ele>112</ele>
        <time>2020-02-12T11:44:11Z</time>
      </trkpt>
      <trkpt lat="43.14532" lon="5.72167">
        <ele>113</ele>
        <time>2020-02-12T11:44:17Z</time>
      </trkpt>
      <trkpt lat="43.14526" lon="5.72166">
        <ele>109</ele>
        <time>2020-02-12T11:44:25Z</time>
      </trkpt>
      <trkpt lat="43.1452" lon="5.72166">
        <ele>109</ele>
        <time>2020-02-12T11:44:31Z</time>
      </trkpt>
      <trkpt lat="43.14515" lon="5.72165">
        <ele>111</ele>
        <time>2020-02-12T11:44:39Z</time>
      </trkpt>
      <trkpt lat="43.1451" lon="5.72166">
        <ele>111</ele>
        <time>2020-02-12T11:44:45Z</time>
      </trkpt>
      <trkpt lat="43.14506" lon="5.72168">
        <ele>111</ele>
        <time>2020-02-12T11:44:51Z</time>
      </trkpt>
      <trkpt lat="43.145" lon="5.7217">
        <ele>113</ele>
        <time>2020-02-12T11:44:57Z</time>
      </trkpt>
      <trkpt lat="43.14494" lon="5.72168">
        <ele>115</ele>
        <time>2020-02-12T11:45:03Z</time>
      </trkpt>
      <trkpt lat="43.14487" lon="5.72167">
        <ele>115</ele>
        <time>2020-02-12T11:45:09Z</time>
      </trkpt>
      <trkpt lat="43.14481" lon="5.72171">
        <ele>115</ele>
        <time>2020-02-12T11:45:13Z</time>
      </trkpt>
      <trkpt lat="43.14475" lon="5.72172">
        <ele>114</ele>
        <time>2020-02-12T11:45:19Z</time>
      </trkpt>
      <trkpt lat="43.1447" lon="5.72171">
        <ele>111</ele>
        <time>2020-02-12T11:45:25Z</time>
      </trkpt>
      <trkpt lat="43.14464" lon="5.72169">
        <ele>111</ele>
        <time>2020-02-12T11:45:31Z</time>
      </trkpt>
      <trkpt lat="43.14458" lon="5.72166">
        <ele>113</ele>
        <time>2020-02-12T11:45:37Z</time>
      </trkpt>
      <trkpt lat="43.14454" lon="5.72165">
        <ele>111</ele>
        <time>2020-02-12T11:45:43Z</time>
      </trkpt>
      <trkpt lat="43.14448" lon="5.72165">
        <ele>110</ele>
        <time>2020-02-12T11:45:49Z</time>
      </trkpt>
      <trkpt lat="43.14444" lon="5.72166">
        <ele>107</ele>
        <time>2020-02-12T11:45:55Z</time>
      </trkpt>
      <trkpt lat="43.14437" lon="5.72169">
        <ele>104</ele>
        <time>2020-02-12T11:46:01Z</time>
      </trkpt>
      <trkpt lat="43.14433" lon="5.72173">
        <ele>106</ele>
        <time>2020-02-12T11:46:07Z</time>
      </trkpt>
      <trkpt lat="43.14427" lon="5.72172">
        <ele>109</ele>
        <time>2020-02-12T11:46:17Z</time>
      </trkpt>
      <trkpt lat="43.14422" lon="5.72174">
        <ele>110</ele>
        <time>2020-02-12T11:46:23Z</time>
      </trkpt>
      <trkpt lat="43.14418" lon="5.72175">
        <ele>110</ele>
        <time>2020-02-12T11:46:27Z</time>
      </trkpt>
      <trkpt lat="43.14411" lon="5.72175">
        <ele>113</ele>
        <time>2020-02-12T11:46:33Z</time>
      </trkpt>
      <trkpt lat="43.14406" lon="5.72173">
        <ele>110</ele>
        <time>2020-02-12T11:46:37Z</time>
      </trkpt>
      <trkpt lat="43.14402" lon="5.72171">
        <ele>110</ele>
        <time>2020-02-12T11:46:41Z</time>
      </trkpt>
      <trkpt lat="43.14396" lon="5.72172">
        <ele>109</ele>
        <time>2020-02-12T11:46:47Z</time>
      </trkpt>
      <trkpt lat="43.1439" lon="5.72173">
        <ele>110</ele>
        <time>2020-02-12T11:46:53Z</time>
      </trkpt>
      <trkpt lat="43.14384" lon="5.72173">
        <ele>109</ele>
        <time>2020-02-12T11:46:59Z</time>
      </trkpt>
      <trkpt lat="43.14378" lon="5.72172">
        <ele>104</ele>
        <time>2020-02-12T11:47:05Z</time>
      </trkpt>
      <trkpt lat="43.14373" lon="5.72171">
        <ele>102</ele>
        <time>2020-02-12T11:47:11Z</time>
      </trkpt>
      <trkpt lat="43.14368" lon="5.72171">
        <ele>98</ele>
        <time>2020-02-12T11:47:19Z</time>
      </trkpt>
      <trkpt lat="43.14362" lon="5.72171">
        <ele>96</ele>
        <time>2020-02-12T11:47:27Z</time>
      </trkpt>
      <trkpt lat="43.14358" lon="5.7217">
        <ele>93</ele>
        <time>2020-02-12T11:47:35Z</time>
      </trkpt>
      <trkpt lat="43.14353" lon="5.72169">
        <ele>92</ele>
        <time>2020-02-12T11:47:43Z</time>
      </trkpt>
      <trkpt lat="43.14348" lon="5.72172">
        <ele>95</ele>
        <time>2020-02-12T11:47:51Z</time>
      </trkpt>
      <trkpt lat="43.14344" lon="5.72175">
        <ele>97</ele>
        <time>2020-02-12T11:47:55Z</time>
      </trkpt>
      <trkpt lat="43.14339" lon="5.72178">
        <ele>95</ele>
        <time>2020-02-12T11:48:01Z</time>
      </trkpt>
      <trkpt lat="43.14334" lon="5.72182">
        <ele>95</ele>
        <time>2020-02-12T11:48:09Z</time>
      </trkpt>
      <trkpt lat="43.1433" lon="5.72185">
        <ele>95</ele>
        <time>2020-02-12T11:48:17Z</time>
      </trkpt>
      <trkpt lat="43.14324" lon="5.72188">
        <ele>92</ele>
        <time>2020-02-12T11:48:27Z</time>
      </trkpt>
      <trkpt lat="43.14319" lon="5.72187">
        <ele>91</ele>
        <time>2020-02-12T11:48:35Z</time>
      </trkpt>
      <trkpt lat="43.14314" lon="5.72184">
        <ele>90</ele>
        <time>2020-02-12T11:48:39Z</time>
      </trkpt>
      <trkpt lat="43.1431" lon="5.72182">
        <ele>91</ele>
        <time>2020-02-12T11:48:43Z</time>
      </trkpt>
      <trkpt lat="43.14304" lon="5.7218">
        <ele>91</ele>
        <time>2020-02-12T11:48:49Z</time>
      </trkpt>
      <trkpt lat="43.14299" lon="5.72181">
        <ele>90</ele>
        <time>2020-02-12T11:48:57Z</time>
      </trkpt>
      <trkpt lat="43.14295" lon="5.72184">
        <ele>91</ele>
        <time>2020-02-12T11:49:03Z</time>
      </trkpt>
      <trkpt lat="43.1429" lon="5.72186">
        <ele>93</ele>
        <time>2020-02-12T11:49:09Z</time>
      </trkpt>
      <trkpt lat="43.14285" lon="5.72186">
        <ele>96</ele>
        <time>2020-02-12T11:49:15Z</time>
      </trkpt>
      <trkpt lat="43.14279" lon="5.72187">
        <ele>100</ele>
        <time>2020-02-12T11:49:23Z</time>
      </trkpt>
      <trkpt lat="43.14274" lon="5.7219">
        <ele>102</ele>
        <time>2020-02-12T11:49:29Z</time>
      </trkpt>
      <trkpt lat="43.14268" lon="5.72191">
        <ele>98</ele>
        <time>2020-02-12T11:49:37Z</time>
      </trkpt>
      <trkpt lat="43.14263" lon="5.72192">
        <ele>98</ele>
        <time>2020-02-12T11:49:43Z</time>
      </trkpt>
      <trkpt lat="43.14257" lon="5.7219">
        <ele>99</ele>
        <time>2020-02-12T11:49:49Z</time>
      </trkpt>
      <trkpt lat="43.14253" lon="5.72185">
        <ele>98</ele>
        <time>2020-02-12T11:49:55Z</time>
      </trkpt>
      <trkpt lat="43.14248" lon="5.72184">
        <ele>98</ele>
        <time>2020-02-12T11:50:05Z</time>
      </trkpt>
      <trkpt lat="43.14243" lon="5.72185">
        <ele>103</ele>
        <time>2020-02-12T11:50:15Z</time>
      </trkpt>
      <trkpt lat="43.14237" lon="5.7219">
        <ele>104</ele>
        <time>2020-02-12T11:50:27Z</time>
      </trkpt>
      <trkpt lat="43.14232" lon="5.7219">
        <ele>105</ele>
        <time>2020-02-12T11:50:31Z</time>
      </trkpt>
      <trkpt lat="43.14227" lon="5.72191">
        <ele>101</ele>
        <time>2020-02-12T11:50:35Z</time>
      </trkpt>
      <trkpt lat="43.14222" lon="5.72191">
        <ele>96</ele>
        <time>2020-02-12T11:50:43Z</time>
      </trkpt>
      <trkpt lat="43.14216" lon="5.72189">
        <ele>96</ele>
        <time>2020-02-12T11:50:49Z</time>
      </trkpt>
      <trkpt lat="43.14211" lon="5.72187">
        <ele>98</ele>
        <time>2020-02-12T11:50:55Z</time>
      </trkpt>
      <trkpt lat="43.14205" lon="5.72186">
        <ele>96</ele>
        <time>2020-02-12T11:51:01Z</time>
      </trkpt>
      <trkpt lat="43.142" lon="5.72184">
        <ele>94</ele>
        <time>2020-02-12T11:51:07Z</time>
      </trkpt>
      <trkpt lat="43.14195" lon="5.72185">
        <ele>93</ele>
        <time>2020-02-12T11:51:13Z</time>
      </trkpt>
      <trkpt lat="43.14191" lon="5.72188">
        <ele>95</ele>
        <time>2020-02-12T11:51:21Z</time>
      </trkpt>
      <trkpt lat="43.14186" lon="5.72192">
        <ele>98</ele>
        <time>2020-02-12T11:51:31Z</time>
      </trkpt>
      <trkpt lat="43.14182" lon="5.72198">
        <ele>99</ele>
        <time>2020-02-12T11:51:37Z</time>
      </trkpt>
      <trkpt lat="43.14178" lon="5.72205">
        <ele>101</ele>
        <time>2020-02-12T11:51:41Z</time>
      </trkpt>
      <trkpt lat="43.14174" lon="5.72211">
        <ele>102</ele>
        <time>2020-02-12T11:51:49Z</time>
      </trkpt>
      <trkpt lat="43.14169" lon="5.72216">
        <ele>101</ele>
        <time>2020-02-12T11:51:55Z</time>
      </trkpt>
      <trkpt lat="43.14164" lon="5.72219">
        <ele>102</ele>
        <time>2020-02-12T11:52:01Z</time>
      </trkpt>
      <trkpt lat="43.1416" lon="5.72219">
        <ele>99</ele>
        <time>2020-02-12T11:52:07Z</time>
      </trkpt>
      <trkpt lat="43.14154" lon="5.7222">
        <ele>93</ele>
        <time>2020-02-12T11:52:19Z</time>
      </trkpt>
      <trkpt lat="43.1415" lon="5.72221">
        <ele>89</ele>
        <time>2020-02-12T11:52:25Z</time>
      </trkpt>
      <trkpt lat="43.14144" lon="5.72221">
        <ele>90</ele>
        <time>2020-02-12T11:52:31Z</time>
      </trkpt>
      <trkpt lat="43.14138" lon="5.72222">
        <ele>88</ele>
        <time>2020-02-12T11:52:37Z</time>
      </trkpt>
      <trkpt lat="43.14134" lon="5.72224">
        <ele>87</ele>
        <time>2020-02-12T11:52:43Z</time>
      </trkpt>
      <trkpt lat="43.14129" lon="5.72228">
        <ele>91</ele>
        <time>2020-02-12T11:52:47Z</time>
      </trkpt>
      <trkpt lat="43.14125" lon="5.72232">
        <ele>92</ele>
        <time>2020-02-12T11:52:51Z</time>
      </trkpt>
      <trkpt lat="43.14121" lon="5.72237">
        <ele>93</ele>
        <time>2020-02-12T11:52:57Z</time>
      </trkpt>
      <trkpt lat="43.14118" lon="5.72243">
        <ele>93</ele>
        <time>2020-02-12T11:53:03Z</time>
      </trkpt>
      <trkpt lat="43.14118" lon="5.7225">
        <ele>95</ele>
        <time>2020-02-12T11:53:09Z</time>
      </trkpt>
      <trkpt lat="43.14115" lon="5.72256">
        <ele>96</ele>
        <time>2020-02-12T11:53:17Z</time>
      </trkpt>
      <trkpt lat="43.14113" lon="5.72262">
        <ele>94</ele>
        <time>2020-02-12T11:53:25Z</time>
      </trkpt>
      <trkpt lat="43.14109" lon="5.72266">
        <ele>96</ele>
        <time>2020-02-12T11:53:31Z</time>
      </trkpt>
      <trkpt lat="43.14105" lon="5.7227">
        <ele>96</ele>
        <time>2020-02-12T11:53:37Z</time>
      </trkpt>
      <trkpt lat="43.14102" lon="5.72277">
        <ele>99</ele>
        <time>2020-02-12T11:53:41Z</time>
      </trkpt>
      <trkpt lat="43.141" lon="5.72283">
        <ele>97</ele>
        <time>2020-02-12T11:53:45Z</time>
      </trkpt>
      <trkpt lat="43.14096" lon="5.7229">
        <ele>98</ele>
        <time>2020-02-12T11:53:51Z</time>
      </trkpt>
      <trkpt lat="43.14092" lon="5.72292">
        <ele>96</ele>
        <time>2020-02-12T11:54:01Z</time>
      </trkpt>
      <trkpt lat="43.14088" lon="5.72296">
        <ele>93</ele>
        <time>2020-02-12T11:54:09Z</time>
      </trkpt>
      <trkpt lat="43.14084" lon="5.723">
        <ele>93</ele>
        <time>2020-02-12T11:54:19Z</time>
      </trkpt>
      <trkpt lat="43.1408" lon="5.72302">
        <ele>92</ele>
        <time>2020-02-12T11:54:29Z</time>
      </trkpt>
      <trkpt lat="43.14076" lon="5.72306">
        <ele>91</ele>
        <time>2020-02-12T11:54:35Z</time>
      </trkpt>
      <trkpt lat="43.1407" lon="5.7231">
        <ele>89</ele>
        <time>2020-02-12T11:54:41Z</time>
      </trkpt>
      <trkpt lat="43.14067" lon="5.72315">
        <ele>89</ele>
        <time>2020-02-12T11:54:45Z</time>
      </trkpt>
      <trkpt lat="43.14063" lon="5.72317">
        <ele>89</ele>
        <time>2020-02-12T11:54:51Z</time>
      </trkpt>
      <trkpt lat="43.14058" lon="5.7232">
        <ele>87</ele>
        <time>2020-02-12T11:54:59Z</time>
      </trkpt>
      <trkpt lat="43.14054" lon="5.72325">
        <ele>87</ele>
        <time>2020-02-12T11:55:05Z</time>
      </trkpt>
      <trkpt lat="43.1405" lon="5.7233">
        <ele>89</ele>
        <time>2020-02-12T11:55:11Z</time>
      </trkpt>
      <trkpt lat="43.14046" lon="5.72333">
        <ele>90</ele>
        <time>2020-02-12T11:55:17Z</time>
      </trkpt>
      <trkpt lat="43.14042" lon="5.72336">
        <ele>92</ele>
        <time>2020-02-12T11:55:25Z</time>
      </trkpt>
      <trkpt lat="43.14037" lon="5.72337">
        <ele>89</ele>
        <time>2020-02-12T11:55:33Z</time>
      </trkpt>
      <trkpt lat="43.1403" lon="5.72341">
        <ele>91</ele>
        <time>2020-02-12T11:55:39Z</time>
      </trkpt>
      <trkpt lat="43.14026" lon="5.72345">
        <ele>91</ele>
        <time>2020-02-12T11:55:43Z</time>
      </trkpt>
      <trkpt lat="43.14021" lon="5.7235">
        <ele>90</ele>
        <time>2020-02-12T11:55:47Z</time>
      </trkpt>
      <trkpt lat="43.14017" lon="5.72354">
        <ele>91</ele>
        <time>2020-02-12T11:55:55Z</time>
      </trkpt>
      <trkpt lat="43.1401" lon="5.72359">
        <ele>91</ele>
        <time>2020-02-12T11:56:01Z</time>
      </trkpt>
      <trkpt lat="43.14003" lon="5.72359">
        <ele>87</ele>
        <time>2020-02-12T11:56:08Z</time>
      </trkpt>
      <trkpt lat="43.13997" lon="5.72362">
        <ele>83</ele>
        <time>2020-02-12T11:56:15Z</time>
      </trkpt>
      <trkpt lat="43.13993" lon="5.72367">
        <ele>86</ele>
        <time>2020-02-12T11:56:19Z</time>
      </trkpt>
      <trkpt lat="43.13989" lon="5.72371">
        <ele>84</ele>
        <time>2020-02-12T11:56:27Z</time>
      </trkpt>
      <trkpt lat="43.13984" lon="5.72369">
        <ele>77</ele>
        <time>2020-02-12T11:56:35Z</time>
      </trkpt>
      <trkpt lat="43.13978" lon="5.72366">
        <ele>80</ele>
        <time>2020-02-12T11:56:41Z</time>
      </trkpt>
      <trkpt lat="43.13972" lon="5.72364">
        <ele>80</ele>
        <time>2020-02-12T11:56:47Z</time>
      </trkpt>
      <trkpt lat="43.13967" lon="5.72362">
        <ele>78</ele>
        <time>2020-02-12T11:56:53Z</time>
      </trkpt>
      <trkpt lat="43.13962" lon="5.72362">
        <ele>75</ele>
        <time>2020-02-12T11:56:59Z</time>
      </trkpt>
      <trkpt lat="43.13955" lon="5.72364">
        <ele>79</ele>
        <time>2020-02-12T11:57:05Z</time>
      </trkpt>
      <trkpt lat="43.1395" lon="5.72365">
        <ele>79</ele>
        <time>2020-02-12T11:57:09Z</time>
      </trkpt>
      <trkpt lat="43.13945" lon="5.72369">
        <ele>81</ele>
        <time>2020-02-12T11:57:13Z</time>
      </trkpt>
      <trkpt lat="43.13941" lon="5.72372">
        <ele>85</ele>
        <time>2020-02-12T11:57:17Z</time>
      </trkpt>
      <trkpt lat="43.13937" lon="5.72377">
        <ele>87</ele>
        <time>2020-02-12T11:57:21Z</time>
      </trkpt>
      <trkpt lat="43.13932" lon="5.72381">
        <ele>88</ele>
        <time>2020-02-12T11:57:25Z</time>
      </trkpt>
      <trkpt lat="43.13929" lon="5.72386">
        <ele>90</ele>
        <time>2020-02-12T11:57:29Z</time>
      </trkpt>
      <trkpt lat="43.13924" lon="5.72393">
        <ele>91</ele>
        <time>2020-02-12T11:57:35Z</time>
      </trkpt>
      <trkpt lat="43.13921" lon="5.724">
        <ele>90</ele>
        <time>2020-02-12T11:57:41Z</time>
      </trkpt>
      <trkpt lat="43.13917" lon="5.72403">
        <ele>89</ele>
        <time>2020-02-12T11:57:49Z</time>
      </trkpt>
      <trkpt lat="43.13912" lon="5.72406">
        <ele>89</ele>
        <time>2020-02-12T11:57:57Z</time>
      </trkpt>
      <trkpt lat="43.13908" lon="5.7241">
        <ele>89</ele>
        <time>2020-02-12T11:58:03Z</time>
      </trkpt>
      <trkpt lat="43.13904" lon="5.72416">
        <ele>91</ele>
        <time>2020-02-12T11:58:07Z</time>
      </trkpt>
      <trkpt lat="43.13901" lon="5.72423">
        <ele>93</ele>
        <time>2020-02-12T11:58:11Z</time>
      </trkpt>
      <trkpt lat="43.13898" lon="5.72429">
        <ele>94</ele>
        <time>2020-02-12T11:58:15Z</time>
      </trkpt>
      <trkpt lat="43.13895" lon="5.72436">
        <ele>93</ele>
        <time>2020-02-12T11:58:21Z</time>
      </trkpt>
      <trkpt lat="43.13893" lon="5.72442">
        <ele>95</ele>
        <time>2020-02-12T11:58:25Z</time>
      </trkpt>
      <trkpt lat="43.1389" lon="5.72449">
        <ele>91</ele>
        <time>2020-02-12T11:58:31Z</time>
      </trkpt>
      <trkpt lat="43.13888" lon="5.72455">
        <ele>90</ele>
        <time>2020-02-12T11:58:37Z</time>
      </trkpt>
      <trkpt lat="43.13886" lon="5.72461">
        <ele>90</ele>
        <time>2020-02-12T11:58:43Z</time>
      </trkpt>
      <trkpt lat="43.13882" lon="5.72467">
        <ele>87</ele>
        <time>2020-02-12T11:58:57Z</time>
      </trkpt>
      <trkpt lat="43.13878" lon="5.7247">
        <ele>85</ele>
        <time>2020-02-12T11:59:03Z</time>
      </trkpt>
      <trkpt lat="43.13873" lon="5.72472">
        <ele>84</ele>
        <time>2020-02-12T11:59:09Z</time>
      </trkpt>
      <trkpt lat="43.13869" lon="5.72471">
        <ele>83</ele>
        <time>2020-02-12T11:59:15Z</time>
      </trkpt>
      <trkpt lat="43.13865" lon="5.72467">
        <ele>83</ele>
        <time>2020-02-12T11:59:21Z</time>
      </trkpt>
      <trkpt lat="43.1386" lon="5.72465">
        <ele>81</ele>
        <time>2020-02-12T11:59:25Z</time>
      </trkpt>
      <trkpt lat="43.13855" lon="5.72463">
        <ele>81</ele>
        <time>2020-02-12T11:59:29Z</time>
      </trkpt>
      <trkpt lat="43.1385" lon="5.72462">
        <ele>83</ele>
        <time>2020-02-12T11:59:33Z</time>
      </trkpt>
      <trkpt lat="43.13845" lon="5.72462">
        <ele>82</ele>
        <time>2020-02-12T11:59:39Z</time>
      </trkpt>
      <trkpt lat="43.13841" lon="5.7246">
        <ele>81</ele>
        <time>2020-02-12T11:59:45Z</time>
      </trkpt>
      <trkpt lat="43.13834" lon="5.72462">
        <ele>83</ele>
        <time>2020-02-12T11:59:51Z</time>
      </trkpt>
      <trkpt lat="43.13828" lon="5.72465">
        <ele>82</ele>
        <time>2020-02-12T11:59:57Z</time>
      </trkpt>
      <trkpt lat="43.13823" lon="5.72468">
        <ele>84</ele>
        <time>2020-02-12T12:00:01Z</time>
      </trkpt>
      <trkpt lat="43.13817" lon="5.72469">
        <ele>85</ele>
        <time>2020-02-12T12:00:07Z</time>
      </trkpt>
      <trkpt lat="43.13811" lon="5.72467">
        <ele>83</ele>
        <time>2020-02-12T12:00:15Z</time>
      </trkpt>
      <trkpt lat="43.13804" lon="5.72465">
        <ele>84</ele>
        <time>2020-02-12T12:00:21Z</time>
      </trkpt>
      <trkpt lat="43.13799" lon="5.72463">
        <ele>80</ele>
        <time>2020-02-12T12:00:27Z</time>
      </trkpt>
      <trkpt lat="43.13794" lon="5.72461">
        <ele>79</ele>
        <time>2020-02-12T12:00:33Z</time>
      </trkpt>
      <trkpt lat="43.13788" lon="5.72459">
        <ele>81</ele>
        <time>2020-02-12T12:00:39Z</time>
      </trkpt>
      <trkpt lat="43.13783" lon="5.72457">
        <ele>82</ele>
        <time>2020-02-12T12:00:45Z</time>
      </trkpt>
      <trkpt lat="43.13777" lon="5.7246">
        <ele>82</ele>
        <time>2020-02-12T12:00:49Z</time>
      </trkpt>
      <trkpt lat="43.13771" lon="5.72463">
        <ele>82</ele>
        <time>2020-02-12T12:00:55Z</time>
      </trkpt>
      <trkpt lat="43.13765" lon="5.72466">
        <ele>84</ele>
        <time>2020-02-12T12:01:01Z</time>
      </trkpt>
      <trkpt lat="43.1376" lon="5.72466">
        <ele>83</ele>
        <time>2020-02-12T12:01:09Z</time>
      </trkpt>
      <trkpt lat="43.13755" lon="5.72468">
        <ele>84</ele>
        <time>2020-02-12T12:01:15Z</time>
      </trkpt>
      <trkpt lat="43.1375" lon="5.72473">
        <ele>85</ele>
        <time>2020-02-12T12:01:21Z</time>
      </trkpt>
      <trkpt lat="43.13745" lon="5.72477">
        <ele>84</ele>
        <time>2020-02-12T12:01:27Z</time>
      </trkpt>
      <trkpt lat="43.13739" lon="5.72477">
        <ele>80</ele>
        <time>2020-02-12T12:01:39Z</time>
      </trkpt>
      <trkpt lat="43.13734" lon="5.72478">
        <ele>80</ele>
        <time>2020-02-12T12:01:45Z</time>
      </trkpt>
      <trkpt lat="43.1373" lon="5.72475">
        <ele>79</ele>
        <time>2020-02-12T12:01:51Z</time>
      </trkpt>
      <trkpt lat="43.13725" lon="5.72473">
        <ele>77</ele>
        <time>2020-02-12T12:02:01Z</time>
      </trkpt>
      <trkpt lat="43.1372" lon="5.72474">
        <ele>76</ele>
        <time>2020-02-12T12:02:07Z</time>
      </trkpt>
      <trkpt lat="43.13714" lon="5.72474">
        <ele>76</ele>
        <time>2020-02-12T12:02:13Z</time>
      </trkpt>
      <trkpt lat="43.13709" lon="5.72474">
        <ele>75</ele>
        <time>2020-02-12T12:02:19Z</time>
      </trkpt>
      <trkpt lat="43.13704" lon="5.72473">
        <ele>76</ele>
        <time>2020-02-12T12:02:25Z</time>
      </trkpt>
      <trkpt lat="43.13699" lon="5.72475">
        <ele>77</ele>
        <time>2020-02-12T12:02:33Z</time>
      </trkpt>
      <trkpt lat="43.13693" lon="5.72474">
        <ele>76</ele>
        <time>2020-02-12T12:02:41Z</time>
      </trkpt>
      <trkpt lat="43.13688" lon="5.72475">
        <ele>74</ele>
        <time>2020-02-12T12:02:49Z</time>
      </trkpt>
      <trkpt lat="43.13683" lon="5.72481">
        <ele>76</ele>
        <time>2020-02-12T12:02:55Z</time>
      </trkpt>
      <trkpt lat="43.13681" lon="5.72488">
        <ele>77</ele>
        <time>2020-02-12T12:02:59Z</time>
      </trkpt>
      <trkpt lat="43.13679" lon="5.72495">
        <ele>78</ele>
        <time>2020-02-12T12:03:05Z</time>
      </trkpt>
      <trkpt lat="43.13676" lon="5.72501">
        <ele>79</ele>
        <time>2020-02-12T12:03:13Z</time>
      </trkpt>
      <trkpt lat="43.13673" lon="5.72506">
        <ele>79</ele>
        <time>2020-02-12T12:03:23Z</time>
      </trkpt>
      <trkpt lat="43.1367" lon="5.72512">
        <ele>78</ele>
        <time>2020-02-12T12:03:31Z</time>
      </trkpt>
      <trkpt lat="43.13667" lon="5.72516">
        <ele>78</ele>
        <time>2020-02-12T12:03:39Z</time>
      </trkpt>
      <trkpt lat="43.13663" lon="5.72521">
        <ele>76</ele>
        <time>2020-02-12T12:03:59Z</time>
      </trkpt>
      <trkpt lat="43.1366" lon="5.72526">
        <ele>76</ele>
        <time>2020-02-12T12:04:09Z</time>
      </trkpt>
      <trkpt lat="43.13657" lon="5.72531">
        <ele>76</ele>
        <time>2020-02-12T12:04:19Z</time>
      </trkpt>
      <trkpt lat="43.13655" lon="5.72537">
        <ele>74</ele>
        <time>2020-02-12T12:04:33Z</time>
      </trkpt>
      <trkpt lat="43.13653" lon="5.72543">
        <ele>73</ele>
        <time>2020-02-12T12:04:45Z</time>
      </trkpt>
      <trkpt lat="43.13654" lon="5.7255">
        <ele>69</ele>
        <time>2020-02-12T12:05:07Z</time>
      </trkpt>
      <trkpt lat="43.13658" lon="5.72552">
        <ele>69</ele>
        <time>2020-02-12T12:05:23Z</time>
      </trkpt>
      <trkpt lat="43.13658" lon="5.72558">
        <ele>66</ele>
        <time>2020-02-12T12:05:39Z</time>
      </trkpt>
      <trkpt lat="43.13662" lon="5.72559">
        <ele>62</ele>
        <time>2020-02-12T12:05:57Z</time>
      </trkpt>
      <trkpt lat="43.13666" lon="5.72564">
        <ele>62</ele>
        <time>2020-02-12T12:06:05Z</time>
      </trkpt>
      <trkpt lat="43.13671" lon="5.72565">
        <ele>62</ele>
        <time>2020-02-12T12:06:19Z</time>
      </trkpt>
      <trkpt lat="43.13675" lon="5.7257">
        <ele>63</ele>
        <time>2020-02-12T12:06:27Z</time>
      </trkpt>
      <trkpt lat="43.13679" lon="5.72576">
        <ele>62</ele>
        <time>2020-02-12T12:06:35Z</time>
      </trkpt>
      <trkpt lat="43.13682" lon="5.7258">
        <ele>60</ele>
        <time>2020-02-12T12:06:41Z</time>
      </trkpt>
      <trkpt lat="43.13682" lon="5.72587">
        <ele>59</ele>
        <time>2020-02-12T12:06:47Z</time>
      </trkpt>
      <trkpt lat="43.13678" lon="5.72592">
        <ele>59</ele>
        <time>2020-02-12T12:06:55Z</time>
      </trkpt>
      <trkpt lat="43.13673" lon="5.72591">
        <ele>58</ele>
        <time>2020-02-12T12:07:05Z</time>
      </trkpt>
      <trkpt lat="43.13669" lon="5.72587">
        <ele>58</ele>
        <time>2020-02-12T12:07:11Z</time>
      </trkpt>
      <trkpt lat="43.13664" lon="5.72584">
        <ele>58</ele>
        <time>2020-02-12T12:07:19Z</time>
      </trkpt>
      <trkpt lat="43.13664" lon="5.72577">
        <ele>53</ele>
        <time>2020-02-12T12:08:13Z</time>
      </trkpt>
      <trkpt lat="43.13663" lon="5.72571">
        <ele>45</ele>
        <time>2020-02-12T13:20:16Z</time>
      </trkpt>
      <trkpt lat="43.13664" lon="5.72577">
        <ele>48</ele>
        <time>2020-02-12T13:25:58Z</time>
      </trkpt>
      <trkpt lat="43.13669" lon="5.72578">
        <ele>39</ele>
        <time>2020-02-12T13:26:48Z</time>
      </trkpt>
      <trkpt lat="43.13674" lon="5.72577">
        <ele>40</ele>
        <time>2020-02-12T13:27:06Z</time>
      </trkpt>
      <trkpt lat="43.13679" lon="5.72581">
        <ele>37</ele>
        <time>2020-02-12T13:27:26Z</time>
      </trkpt>
      <trkpt lat="43.13683" lon="5.72581">
        <ele>39</ele>
        <time>2020-02-12T13:27:38Z</time>
      </trkpt>
      <trkpt lat="43.13684" lon="5.72575">
        <ele>45</ele>
        <time>2020-02-12T13:27:52Z</time>
      </trkpt>
      <trkpt lat="43.13682" lon="5.72568">
        <ele>51</ele>
        <time>2020-02-12T13:28:02Z</time>
      </trkpt>
      <trkpt lat="43.13685" lon="5.72563">
        <ele>50</ele>
        <time>2020-02-12T13:28:16Z</time>
      </trkpt>
      <trkpt lat="43.13689" lon="5.72562">
        <ele>49</ele>
        <time>2020-02-12T13:28:24Z</time>
      </trkpt>
      <trkpt lat="43.13694" lon="5.72563">
        <ele>46</ele>
        <time>2020-02-12T13:28:32Z</time>
      </trkpt>
      <trkpt lat="43.137" lon="5.72566">
        <ele>47</ele>
        <time>2020-02-12T13:28:40Z</time>
      </trkpt>
      <trkpt lat="43.13704" lon="5.7257">
        <ele>50</ele>
        <time>2020-02-12T13:28:46Z</time>
      </trkpt>
      <trkpt lat="43.1371" lon="5.72572">
        <ele>47</ele>
        <time>2020-02-12T13:28:52Z</time>
      </trkpt>
      <trkpt lat="43.13716" lon="5.72575">
        <ele>47</ele>
        <time>2020-02-12T13:28:56Z</time>
      </trkpt>
      <trkpt lat="43.13721" lon="5.72579">
        <ele>51</ele>
        <time>2020-02-12T13:29:04Z</time>
      </trkpt>
      <trkpt lat="43.13725" lon="5.72582">
        <ele>51</ele>
        <time>2020-02-12T13:29:10Z</time>
      </trkpt>
      <trkpt lat="43.13732" lon="5.72585">
        <ele>54</ele>
        <time>2020-02-12T13:29:18Z</time>
      </trkpt>
      <trkpt lat="43.13739" lon="5.72586">
        <ele>50</ele>
        <time>2020-02-12T13:29:22Z</time>
      </trkpt>
      <trkpt lat="43.13744" lon="5.72587">
        <ele>49</ele>
        <time>2020-02-12T13:29:26Z</time>
      </trkpt>
      <trkpt lat="43.13748" lon="5.72587">
        <ele>48</ele>
        <time>2020-02-12T13:29:32Z</time>
      </trkpt>
      <trkpt lat="43.13753" lon="5.72584">
        <ele>51</ele>
        <time>2020-02-12T13:29:40Z</time>
      </trkpt>
      <trkpt lat="43.13759" lon="5.72581">
        <ele>55</ele>
        <time>2020-02-12T13:29:44Z</time>
      </trkpt>
      <trkpt lat="43.13764" lon="5.72576">
        <ele>56</ele>
        <time>2020-02-12T13:29:50Z</time>
      </trkpt>
      <trkpt lat="43.13768" lon="5.7257">
        <ele>57</ele>
        <time>2020-02-12T13:29:56Z</time>
      </trkpt>
      <trkpt lat="43.13772" lon="5.72566">
        <ele>57</ele>
        <time>2020-02-12T13:30:02Z</time>
      </trkpt>
      <trkpt lat="43.13777" lon="5.72562">
        <ele>58</ele>
        <time>2020-02-12T13:30:08Z</time>
      </trkpt>
      <trkpt lat="43.13782" lon="5.72559">
        <ele>60</ele>
        <time>2020-02-12T13:30:14Z</time>
      </trkpt>
      <trkpt lat="43.13784" lon="5.72554">
        <ele>58</ele>
        <time>2020-02-12T13:30:22Z</time>
      </trkpt>
      <trkpt lat="43.13788" lon="5.72549">
        <ele>60</ele>
        <time>2020-02-12T13:30:30Z</time>
      </trkpt>
      <trkpt lat="43.13793" lon="5.72546">
        <ele>63</ele>
        <time>2020-02-12T13:30:38Z</time>
      </trkpt>
      <trkpt lat="43.13798" lon="5.72543">
        <ele>56</ele>
        <time>2020-02-12T13:31:34Z</time>
      </trkpt>
      <trkpt lat="43.13802" lon="5.72537">
        <ele>58</ele>
        <time>2020-02-12T13:31:48Z</time>
      </trkpt>
      <trkpt lat="43.13809" lon="5.72533">
        <ele>66</ele>
        <time>2020-02-12T13:32:00Z</time>
      </trkpt>
      <trkpt lat="43.13814" lon="5.7253">
        <ele>62</ele>
        <time>2020-02-12T13:32:18Z</time>
      </trkpt>
      <trkpt lat="43.13819" lon="5.72526">
        <ele>64</ele>
        <time>2020-02-12T13:32:28Z</time>
      </trkpt>
      <trkpt lat="43.13824" lon="5.72524">
        <ele>64</ele>
        <time>2020-02-12T13:32:38Z</time>
      </trkpt>
      <trkpt lat="43.13829" lon="5.72524">
        <ele>62</ele>
        <time>2020-02-12T13:32:50Z</time>
      </trkpt>
      <trkpt lat="43.13834" lon="5.72522">
        <ele>61</ele>
        <time>2020-02-12T13:32:56Z</time>
      </trkpt>
      <trkpt lat="43.13839" lon="5.72521">
        <ele>58</ele>
        <time>2020-02-12T13:33:06Z</time>
      </trkpt>
      <trkpt lat="43.13844" lon="5.7252">
        <ele>58</ele>
        <time>2020-02-12T13:33:16Z</time>
      </trkpt>
      <trkpt lat="43.13849" lon="5.72519">
        <ele>53</ele>
        <time>2020-02-12T13:33:30Z</time>
      </trkpt>
      <trkpt lat="43.13854" lon="5.72519">
        <ele>59</ele>
        <time>2020-02-12T13:33:38Z</time>
      </trkpt>
      <trkpt lat="43.13859" lon="5.72519">
        <ele>59</ele>
        <time>2020-02-12T13:33:44Z</time>
      </trkpt>
      <trkpt lat="43.13865" lon="5.7252">
        <ele>60</ele>
        <time>2020-02-12T13:33:54Z</time>
      </trkpt>
      <trkpt lat="43.1387" lon="5.72522">
        <ele>61</ele>
        <time>2020-02-12T13:34:04Z</time>
      </trkpt>
      <trkpt lat="43.13874" lon="5.72523">
        <ele>62</ele>
        <time>2020-02-12T13:34:14Z</time>
      </trkpt>
      <trkpt lat="43.13879" lon="5.72525">
        <ele>68</ele>
        <time>2020-02-12T13:34:22Z</time>
      </trkpt>
      <trkpt lat="43.13884" lon="5.72525">
        <ele>67</ele>
        <time>2020-02-12T13:34:28Z</time>
      </trkpt>
      <trkpt lat="43.13889" lon="5.72524">
        <ele>71</ele>
        <time>2020-02-12T13:34:36Z</time>
      </trkpt>
      <trkpt lat="43.13895" lon="5.72526">
        <ele>76</ele>
        <time>2020-02-12T13:34:42Z</time>
      </trkpt>
      <trkpt lat="43.139" lon="5.72527">
        <ele>75</ele>
        <time>2020-02-12T13:34:50Z</time>
      </trkpt>
      <trkpt lat="43.13904" lon="5.72531">
        <ele>77</ele>
        <time>2020-02-12T13:34:58Z</time>
      </trkpt>
      <trkpt lat="43.13909" lon="5.72534">
        <ele>77</ele>
        <time>2020-02-12T13:35:06Z</time>
      </trkpt>
      <trkpt lat="43.13914" lon="5.72536">
        <ele>76</ele>
        <time>2020-02-12T13:35:12Z</time>
      </trkpt>
      <trkpt lat="43.13919" lon="5.72539">
        <ele>77</ele>
        <time>2020-02-12T13:35:18Z</time>
      </trkpt>
      <trkpt lat="43.13923" lon="5.72542">
        <ele>84</ele>
        <time>2020-02-12T13:35:30Z</time>
      </trkpt>
      <trkpt lat="43.13928" lon="5.72541">
        <ele>88</ele>
        <time>2020-02-12T13:35:44Z</time>
      </trkpt>
      <trkpt lat="43.13933" lon="5.72538">
        <ele>87</ele>
        <time>2020-02-12T13:35:52Z</time>
      </trkpt>
      <trkpt lat="43.13938" lon="5.72536">
        <ele>89</ele>
        <time>2020-02-12T13:35:58Z</time>
      </trkpt>
      <trkpt lat="43.13942" lon="5.72536">
        <ele>91</ele>
        <time>2020-02-12T13:36:18Z</time>
      </trkpt>
      <trkpt lat="43.13749" lon="5.72718">
        <ele>91</ele>
        <time>2020-02-12T13:38:21Z</time>
      </trkpt>
      <trkpt lat="43.13729" lon="5.72737">
        <ele>91</ele>
        <time>2020-02-12T13:38:26Z</time>
      </trkpt>
      <trkpt lat="43.13947" lon="5.72534">
        <ele>94</ele>
        <time>2020-02-12T13:39:04Z</time>
      </trkpt>
      <trkpt lat="43.13952" lon="5.72538">
        <ele>95</ele>
        <time>2020-02-12T13:39:12Z</time>
      </trkpt>
      <trkpt lat="43.13957" lon="5.72535">
        <ele>97</ele>
        <time>2020-02-12T13:39:18Z</time>
      </trkpt>
      <trkpt lat="43.13962" lon="5.72532">
        <ele>103</ele>
        <time>2020-02-12T13:39:26Z</time>
      </trkpt>
      <trkpt lat="43.13967" lon="5.72531">
        <ele>98</ele>
        <time>2020-02-12T13:39:32Z</time>
      </trkpt>
      <trkpt lat="43.13971" lon="5.72534">
        <ele>93</ele>
        <time>2020-02-12T13:39:36Z</time>
      </trkpt>
      <trkpt lat="43.13978" lon="5.72533">
        <ele>88</ele>
        <time>2020-02-12T13:39:40Z</time>
      </trkpt>
      <trkpt lat="43.13982" lon="5.72535">
        <ele>85</ele>
        <time>2020-02-12T13:39:50Z</time>
      </trkpt>
      <trkpt lat="43.13987" lon="5.72535">
        <ele>90</ele>
        <time>2020-02-12T13:39:56Z</time>
      </trkpt>
      <trkpt lat="43.13992" lon="5.72537">
        <ele>93</ele>
        <time>2020-02-12T13:40:02Z</time>
      </trkpt>
      <trkpt lat="43.13996" lon="5.72539">
        <ele>92</ele>
        <time>2020-02-12T13:40:06Z</time>
      </trkpt>
      <trkpt lat="43.14002" lon="5.72542">
        <ele>88</ele>
        <time>2020-02-12T13:40:12Z</time>
      </trkpt>
      <trkpt lat="43.14006" lon="5.72545">
        <ele>84</ele>
        <time>2020-02-12T13:40:18Z</time>
      </trkpt>
      <trkpt lat="43.14013" lon="5.72546">
        <ele>84</ele>
        <time>2020-02-12T13:40:26Z</time>
      </trkpt>
      <trkpt lat="43.1402" lon="5.72545">
        <ele>91</ele>
        <time>2020-02-12T13:40:32Z</time>
      </trkpt>
      <trkpt lat="43.14025" lon="5.72543">
        <ele>92</ele>
        <time>2020-02-12T13:40:36Z</time>
      </trkpt>
      <trkpt lat="43.1403" lon="5.72539">
        <ele>93</ele>
        <time>2020-02-12T13:40:42Z</time>
      </trkpt>
      <trkpt lat="43.14035" lon="5.72533">
        <ele>95</ele>
        <time>2020-02-12T13:40:46Z</time>
      </trkpt>
      <trkpt lat="43.14042" lon="5.72531">
        <ele>100</ele>
        <time>2020-02-12T13:40:54Z</time>
      </trkpt>
      <trkpt lat="43.14049" lon="5.72529">
        <ele>101</ele>
        <time>2020-02-12T13:41:00Z</time>
      </trkpt>
      <trkpt lat="43.14055" lon="5.72525">
        <ele>100</ele>
        <time>2020-02-12T13:41:06Z</time>
      </trkpt>
      <trkpt lat="43.14059" lon="5.7252">
        <ele>102</ele>
        <time>2020-02-12T13:41:14Z</time>
      </trkpt>
      <trkpt lat="43.14063" lon="5.72515">
        <ele>103</ele>
        <time>2020-02-12T13:41:20Z</time>
      </trkpt>
      <trkpt lat="43.14065" lon="5.72507">
        <ele>103</ele>
        <time>2020-02-12T13:41:28Z</time>
      </trkpt>
      <trkpt lat="43.14066" lon="5.725">
        <ele>103</ele>
        <time>2020-02-12T13:41:34Z</time>
      </trkpt>
      <trkpt lat="43.14066" lon="5.72492">
        <ele>104</ele>
        <time>2020-02-12T13:41:40Z</time>
      </trkpt>
      <trkpt lat="43.14067" lon="5.72483">
        <ele>102</ele>
        <time>2020-02-12T13:41:48Z</time>
      </trkpt>
      <trkpt lat="43.14067" lon="5.72477">
        <ele>102</ele>
        <time>2020-02-12T13:41:56Z</time>
      </trkpt>
      <trkpt lat="43.14067" lon="5.72469">
        <ele>102</ele>
        <time>2020-02-12T13:42:08Z</time>
      </trkpt>
      <trkpt lat="43.14067" lon="5.72462">
        <ele>101</ele>
        <time>2020-02-12T13:42:14Z</time>
      </trkpt>
      <trkpt lat="43.14066" lon="5.72455">
        <ele>102</ele>
        <time>2020-02-12T13:42:22Z</time>
      </trkpt>
      <trkpt lat="43.14065" lon="5.72448">
        <ele>102</ele>
        <time>2020-02-12T13:42:26Z</time>
      </trkpt>
      <trkpt lat="43.14064" lon="5.72441">
        <ele>104</ele>
        <time>2020-02-12T13:42:30Z</time>
      </trkpt>
      <trkpt lat="43.14066" lon="5.72433">
        <ele>105</ele>
        <time>2020-02-12T13:42:36Z</time>
      </trkpt>
      <trkpt lat="43.14067" lon="5.72426">
        <ele>104</ele>
        <time>2020-02-12T13:42:42Z</time>
      </trkpt>
      <trkpt lat="43.14069" lon="5.72419">
        <ele>106</ele>
        <time>2020-02-12T13:42:46Z</time>
      </trkpt>
      <trkpt lat="43.14072" lon="5.72414">
        <ele>107</ele>
        <time>2020-02-12T13:42:50Z</time>
      </trkpt>
      <trkpt lat="43.14074" lon="5.72408">
        <ele>106</ele>
        <time>2020-02-12T13:42:54Z</time>
      </trkpt>
      <trkpt lat="43.14077" lon="5.72403">
        <ele>106</ele>
        <time>2020-02-12T13:42:58Z</time>
      </trkpt>
      <trkpt lat="43.14081" lon="5.72398">
        <ele>107</ele>
        <time>2020-02-12T13:43:04Z</time>
      </trkpt>
      <trkpt lat="43.14086" lon="5.72391">
        <ele>106</ele>
        <time>2020-02-12T13:43:10Z</time>
      </trkpt>
      <trkpt lat="43.1409" lon="5.72387">
        <ele>105</ele>
        <time>2020-02-12T13:43:16Z</time>
      </trkpt>
      <trkpt lat="43.14092" lon="5.7238">
        <ele>109</ele>
        <time>2020-02-12T13:43:22Z</time>
      </trkpt>
      <trkpt lat="43.14096" lon="5.72375">
        <ele>111</ele>
        <time>2020-02-12T13:43:28Z</time>
      </trkpt>
      <trkpt lat="43.14099" lon="5.7237">
        <ele>114</ele>
        <time>2020-02-12T13:43:34Z</time>
      </trkpt>
      <trkpt lat="43.14102" lon="5.72364">
        <ele>115</ele>
        <time>2020-02-12T13:43:38Z</time>
      </trkpt>
      <trkpt lat="43.14106" lon="5.72361">
        <ele>112</ele>
        <time>2020-02-12T13:43:42Z</time>
      </trkpt>
      <trkpt lat="43.14111" lon="5.72357">
        <ele>111</ele>
        <time>2020-02-12T13:43:48Z</time>
      </trkpt>
      <trkpt lat="43.14114" lon="5.72351">
        <ele>111</ele>
        <time>2020-02-12T13:43:54Z</time>
      </trkpt>
      <trkpt lat="43.14119" lon="5.72346">
        <ele>112</ele>
        <time>2020-02-12T13:44:00Z</time>
      </trkpt>
      <trkpt lat="43.14123" lon="5.72348">
        <ele>110</ele>
        <time>2020-02-12T13:44:08Z</time>
      </trkpt>
      <trkpt lat="43.14123" lon="5.72356">
        <ele>110</ele>
        <time>2020-02-12T13:44:14Z</time>
      </trkpt>
      <trkpt lat="43.14122" lon="5.72362">
        <ele>108</ele>
        <time>2020-02-12T13:44:20Z</time>
      </trkpt>
      <trkpt lat="43.14122" lon="5.72369">
        <ele>101</ele>
        <time>2020-02-12T13:44:28Z</time>
      </trkpt>
      <trkpt lat="43.14122" lon="5.72375">
        <ele>102</ele>
        <time>2020-02-12T13:44:34Z</time>
      </trkpt>
      <trkpt lat="43.14121" lon="5.72383">
        <ele>102</ele>
        <time>2020-02-12T13:44:38Z</time>
      </trkpt>
      <trkpt lat="43.14121" lon="5.7239">
        <ele>103</ele>
        <time>2020-02-12T13:44:54Z</time>
      </trkpt>
      <trkpt lat="43.14122" lon="5.72397">
        <ele>103</ele>
        <time>2020-02-12T13:45:02Z</time>
      </trkpt>
      <trkpt lat="43.14124" lon="5.72405">
        <ele>103</ele>
        <time>2020-02-12T13:45:08Z</time>
      </trkpt>
      <trkpt lat="43.14125" lon="5.72411">
        <ele>100</ele>
        <time>2020-02-12T13:45:16Z</time>
      </trkpt>
      <trkpt lat="43.14126" lon="5.72417">
        <ele>100</ele>
        <time>2020-02-12T13:45:22Z</time>
      </trkpt>
      <trkpt lat="43.14128" lon="5.72424">
        <ele>100</ele>
        <time>2020-02-12T13:45:28Z</time>
      </trkpt>
      <trkpt lat="43.14129" lon="5.72431">
        <ele>103</ele>
        <time>2020-02-12T13:45:34Z</time>
      </trkpt>
      <trkpt lat="43.14132" lon="5.72437">
        <ele>107</ele>
        <time>2020-02-12T13:45:38Z</time>
      </trkpt>
      <trkpt lat="43.14135" lon="5.72442">
        <ele>110</ele>
        <time>2020-02-12T13:45:42Z</time>
      </trkpt>
      <trkpt lat="43.14136" lon="5.72449">
        <ele>110</ele>
        <time>2020-02-12T13:45:46Z</time>
      </trkpt>
      <trkpt lat="43.14138" lon="5.72457">
        <ele>111</ele>
        <time>2020-02-12T13:45:50Z</time>
      </trkpt>
      <trkpt lat="43.14141" lon="5.72463">
        <ele>112</ele>
        <time>2020-02-12T13:45:54Z</time>
      </trkpt>
      <trkpt lat="43.14147" lon="5.72467">
        <ele>121</ele>
        <time>2020-02-12T13:46:00Z</time>
      </trkpt>
      <trkpt lat="43.14151" lon="5.72472">
        <ele>119</ele>
        <time>2020-02-12T13:46:06Z</time>
      </trkpt>
      <trkpt lat="43.14153" lon="5.72478">
        <ele>116</ele>
        <time>2020-02-12T13:46:18Z</time>
      </trkpt>
      <trkpt lat="43.14156" lon="5.72483">
        <ele>117</ele>
        <time>2020-02-12T13:46:24Z</time>
      </trkpt>
      <trkpt lat="43.14159" lon="5.72488">
        <ele>119</ele>
        <time>2020-02-12T13:46:30Z</time>
      </trkpt>
      <trkpt lat="43.14164" lon="5.72491">
        <ele>121</ele>
        <time>2020-02-12T13:46:38Z</time>
      </trkpt>
      <trkpt lat="43.14169" lon="5.72491">
        <ele>119</ele>
        <time>2020-02-12T13:46:46Z</time>
      </trkpt>
      <trkpt lat="43.14174" lon="5.72493">
        <ele>118</ele>
        <time>2020-02-12T13:46:58Z</time>
      </trkpt>
      <trkpt lat="43.14178" lon="5.72492">
        <ele>121</ele>
        <time>2020-02-12T13:47:06Z</time>
      </trkpt>
      <trkpt lat="43.14184" lon="5.72492">
        <ele>124</ele>
        <time>2020-02-12T13:47:12Z</time>
      </trkpt>
      <trkpt lat="43.14189" lon="5.72492">
        <ele>121</ele>
        <time>2020-02-12T13:47:20Z</time>
      </trkpt>
      <trkpt lat="43.14195" lon="5.72493">
        <ele>116</ele>
        <time>2020-02-12T13:47:28Z</time>
      </trkpt>
      <trkpt lat="43.142" lon="5.72495">
        <ele>116</ele>
        <time>2020-02-12T13:47:34Z</time>
      </trkpt>
      <trkpt lat="43.14206" lon="5.72496">
        <ele>119</ele>
        <time>2020-02-12T13:47:40Z</time>
      </trkpt>
      <trkpt lat="43.1421" lon="5.72498">
        <ele>119</ele>
        <time>2020-02-12T13:47:44Z</time>
      </trkpt>
      <trkpt lat="43.14216" lon="5.725">
        <ele>117</ele>
        <time>2020-02-12T13:47:52Z</time>
      </trkpt>
      <trkpt lat="43.1422" lon="5.72503">
        <ele>118</ele>
        <time>2020-02-12T13:47:58Z</time>
      </trkpt>
      <trkpt lat="43.14225" lon="5.72505">
        <ele>119</ele>
        <time>2020-02-12T13:48:02Z</time>
      </trkpt>
      <trkpt lat="43.1423" lon="5.72505">
        <ele>121</ele>
        <time>2020-02-12T13:48:10Z</time>
      </trkpt>
      <trkpt lat="43.14234" lon="5.72503">
        <ele>127</ele>
        <time>2020-02-12T13:51:08Z</time>
      </trkpt>
      <trkpt lat="43.1424" lon="5.72502">
        <ele>128</ele>
        <time>2020-02-12T13:51:46Z</time>
      </trkpt>
      <trkpt lat="43.14244" lon="5.72498">
        <ele>130</ele>
        <time>2020-02-12T13:51:56Z</time>
      </trkpt>
      <trkpt lat="43.14247" lon="5.72494">
        <ele>130</ele>
        <time>2020-02-12T13:52:02Z</time>
      </trkpt>
      <trkpt lat="43.14252" lon="5.72489">
        <ele>130</ele>
        <time>2020-02-12T13:52:08Z</time>
      </trkpt>
      <trkpt lat="43.14255" lon="5.72483">
        <ele>131</ele>
        <time>2020-02-12T13:52:14Z</time>
      </trkpt>
      <trkpt lat="43.1426" lon="5.72476">
        <ele>133</ele>
        <time>2020-02-12T13:52:20Z</time>
      </trkpt>
      <trkpt lat="43.14264" lon="5.72471">
        <ele>134</ele>
        <time>2020-02-12T13:52:26Z</time>
      </trkpt>
      <trkpt lat="43.14268" lon="5.72465">
        <ele>134</ele>
        <time>2020-02-12T13:52:32Z</time>
      </trkpt>
      <trkpt lat="43.14271" lon="5.72459">
        <ele>135</ele>
        <time>2020-02-12T13:52:38Z</time>
      </trkpt>
      <trkpt lat="43.14275" lon="5.72454">
        <ele>136</ele>
        <time>2020-02-12T13:52:44Z</time>
      </trkpt>
      <trkpt lat="43.14279" lon="5.72449">
        <ele>135</ele>
        <time>2020-02-12T13:52:50Z</time>
      </trkpt>
      <trkpt lat="43.14282" lon="5.72444">
        <ele>135</ele>
        <time>2020-02-12T13:52:56Z</time>
      </trkpt>
      <trkpt lat="43.14286" lon="5.72439">
        <ele>133</ele>
        <time>2020-02-12T13:53:02Z</time>
      </trkpt>
      <trkpt lat="43.14289" lon="5.72434">
        <ele>133</ele>
        <time>2020-02-12T13:53:08Z</time>
      </trkpt>
      <trkpt lat="43.14292" lon="5.72428">
        <ele>134</ele>
        <time>2020-02-12T13:53:12Z</time>
      </trkpt>
      <trkpt lat="43.14294" lon="5.72421">
        <ele>134</ele>
        <time>2020-02-12T13:53:18Z</time>
      </trkpt>
      <trkpt lat="43.14297" lon="5.72415">
        <ele>132</ele>
        <time>2020-02-12T13:53:24Z</time>
      </trkpt>
      <trkpt lat="43.143" lon="5.72409">
        <ele>132</ele>
        <time>2020-02-12T13:53:30Z</time>
      </trkpt>
      <trkpt lat="43.14303" lon="5.72402">
        <ele>132</ele>
        <time>2020-02-12T13:53:36Z</time>
      </trkpt>
      <trkpt lat="43.14305" lon="5.72396">
        <ele>133</ele>
        <time>2020-02-12T13:53:40Z</time>
      </trkpt>
      <trkpt lat="43.1431" lon="5.72391">
        <ele>131</ele>
        <time>2020-02-12T13:53:46Z</time>
      </trkpt>
      <trkpt lat="43.14313" lon="5.72384">
        <ele>131</ele>
        <time>2020-02-12T13:53:52Z</time>
      </trkpt>
      <trkpt lat="43.14316" lon="5.72377">
        <ele>131</ele>
        <time>2020-02-12T13:53:58Z</time>
      </trkpt>
      <trkpt lat="43.14319" lon="5.7237">
        <ele>130</ele>
        <time>2020-02-12T13:54:04Z</time>
      </trkpt>
      <trkpt lat="43.14321" lon="5.72361">
        <ele>132</ele>
        <time>2020-02-12T13:54:10Z</time>
      </trkpt>
      <trkpt lat="43.14323" lon="5.72355">
        <ele>133</ele>
        <time>2020-02-12T13:54:14Z</time>
      </trkpt>
      <trkpt lat="43.14324" lon="5.72349">
        <ele>134</ele>
        <time>2020-02-12T13:54:18Z</time>
      </trkpt>
      <trkpt lat="43.14326" lon="5.72341">
        <ele>135</ele>
        <time>2020-02-12T13:54:24Z</time>
      </trkpt>
      <trkpt lat="43.14327" lon="5.72332">
        <ele>134</ele>
        <time>2020-02-12T13:54:30Z</time>
      </trkpt>
      <trkpt lat="43.14328" lon="5.72324">
        <ele>131</ele>
        <time>2020-02-12T13:54:36Z</time>
      </trkpt>
      <trkpt lat="43.14328" lon="5.72316">
        <ele>131</ele>
        <time>2020-02-12T13:54:42Z</time>
      </trkpt>
      <trkpt lat="43.14331" lon="5.72308">
        <ele>130</ele>
        <time>2020-02-12T13:54:48Z</time>
      </trkpt>
      <trkpt lat="43.14335" lon="5.72303">
        <ele>129</ele>
        <time>2020-02-12T13:54:54Z</time>
      </trkpt>
      <trkpt lat="43.14338" lon="5.72297">
        <ele>130</ele>
        <time>2020-02-12T13:55:00Z</time>
      </trkpt>
      <trkpt lat="43.14342" lon="5.72292">
        <ele>130</ele>
        <time>2020-02-12T13:55:06Z</time>
      </trkpt>
      <trkpt lat="43.14346" lon="5.72286">
        <ele>131</ele>
        <time>2020-02-12T13:55:12Z</time>
      </trkpt>
      <trkpt lat="43.14349" lon="5.72281">
        <ele>133</ele>
        <time>2020-02-12T13:55:16Z</time>
      </trkpt>
      <trkpt lat="43.14354" lon="5.72275">
        <ele>132</ele>
        <time>2020-02-12T13:55:22Z</time>
      </trkpt>
      <trkpt lat="43.14357" lon="5.72269">
        <ele>133</ele>
        <time>2020-02-12T13:55:26Z</time>
      </trkpt>
      <trkpt lat="43.1436" lon="5.72264">
        <ele>136</ele>
        <time>2020-02-12T13:55:30Z</time>
      </trkpt>
      <trkpt lat="43.14364" lon="5.72258">
        <ele>136</ele>
        <time>2020-02-12T13:55:36Z</time>
      </trkpt>
      <trkpt lat="43.1437" lon="5.72254">
        <ele>136</ele>
        <time>2020-02-12T13:55:42Z</time>
      </trkpt>
      <trkpt lat="43.14375" lon="5.72248">
        <ele>137</ele>
        <time>2020-02-12T13:55:48Z</time>
      </trkpt>
      <trkpt lat="43.14379" lon="5.72245">
        <ele>136</ele>
        <time>2020-02-12T13:55:52Z</time>
      </trkpt>
      <trkpt lat="43.14385" lon="5.72242">
        <ele>134</ele>
        <time>2020-02-12T13:55:58Z</time>
      </trkpt>
      <trkpt lat="43.1439" lon="5.72239">
        <ele>133</ele>
        <time>2020-02-12T13:56:04Z</time>
      </trkpt>
      <trkpt lat="43.14396" lon="5.72236">
        <ele>132</ele>
        <time>2020-02-12T13:56:10Z</time>
      </trkpt>
      <trkpt lat="43.144" lon="5.7223">
        <ele>132</ele>
        <time>2020-02-12T13:56:16Z</time>
      </trkpt>
      <trkpt lat="43.14404" lon="5.72225">
        <ele>134</ele>
        <time>2020-02-12T13:56:20Z</time>
      </trkpt>
      <trkpt lat="43.14409" lon="5.72221">
        <ele>132</ele>
        <time>2020-02-12T13:56:26Z</time>
      </trkpt>
      <trkpt lat="43.14414" lon="5.72219">
        <ele>130</ele>
        <time>2020-02-12T13:56:30Z</time>
      </trkpt>
      <trkpt lat="43.14419" lon="5.72217">
        <ele>128</ele>
        <time>2020-02-12T13:56:34Z</time>
      </trkpt>
      <trkpt lat="43.14425" lon="5.72215">
        <ele>129</ele>
        <time>2020-02-12T13:56:40Z</time>
      </trkpt>
      <trkpt lat="43.1443" lon="5.72211">
        <ele>128</ele>
        <time>2020-02-12T13:56:46Z</time>
      </trkpt>
      <trkpt lat="43.14435" lon="5.72208">
        <ele>125</ele>
        <time>2020-02-12T13:56:52Z</time>
      </trkpt>
      <trkpt lat="43.14439" lon="5.72203">
        <ele>124</ele>
        <time>2020-02-12T13:57:00Z</time>
      </trkpt>
      <trkpt lat="43.14445" lon="5.722">
        <ele>124</ele>
        <time>2020-02-12T13:57:08Z</time>
      </trkpt>
      <trkpt lat="43.1445" lon="5.72197">
        <ele>123</ele>
        <time>2020-02-12T13:57:14Z</time>
      </trkpt>
      <trkpt lat="43.14454" lon="5.72192">
        <ele>123</ele>
        <time>2020-02-12T13:57:20Z</time>
      </trkpt>
      <trkpt lat="43.14457" lon="5.72186">
        <ele>122</ele>
        <time>2020-02-12T13:57:26Z</time>
      </trkpt>
      <trkpt lat="43.14461" lon="5.72179">
        <ele>122</ele>
        <time>2020-02-12T13:57:32Z</time>
      </trkpt>
      <trkpt lat="43.14465" lon="5.72175">
        <ele>124</ele>
        <time>2020-02-12T13:57:38Z</time>
      </trkpt>
      <trkpt lat="43.14469" lon="5.72172">
        <ele>127</ele>
        <time>2020-02-12T13:58:30Z</time>
      </trkpt>
      <trkpt lat="43.14475" lon="5.7217">
        <ele>126</ele>
        <time>2020-02-12T13:58:46Z</time>
      </trkpt>
      <trkpt lat="43.14479" lon="5.7217">
        <ele>127</ele>
        <time>2020-02-12T13:58:54Z</time>
      </trkpt>
      <trkpt lat="43.14485" lon="5.72172">
        <ele>126</ele>
        <time>2020-02-12T13:59:00Z</time>
      </trkpt>
      <trkpt lat="43.14492" lon="5.72173">
        <ele>125</ele>
        <time>2020-02-12T13:59:06Z</time>
      </trkpt>
      <trkpt lat="43.14497" lon="5.72175">
        <ele>127</ele>
        <time>2020-02-12T13:59:12Z</time>
      </trkpt>
      <trkpt lat="43.14502" lon="5.72173">
        <ele>124</ele>
        <time>2020-02-12T13:59:18Z</time>
      </trkpt>
      <trkpt lat="43.14506" lon="5.7217">
        <ele>120</ele>
        <time>2020-02-12T13:59:26Z</time>
      </trkpt>
      <trkpt lat="43.14512" lon="5.7217">
        <ele>120</ele>
        <time>2020-02-12T13:59:32Z</time>
      </trkpt>
      <trkpt lat="43.14517" lon="5.72169">
        <ele>120</ele>
        <time>2020-02-12T13:59:38Z</time>
      </trkpt>
      <trkpt lat="43.14522" lon="5.72168">
        <ele>121</ele>
        <time>2020-02-12T13:59:44Z</time>
      </trkpt>
      <trkpt lat="43.14528" lon="5.72167">
        <ele>120</ele>
        <time>2020-02-12T13:59:50Z</time>
      </trkpt>
      <trkpt lat="43.14533" lon="5.72165">
        <ele>121</ele>
        <time>2020-02-12T13:59:56Z</time>
      </trkpt>
      <trkpt lat="43.14538" lon="5.72161">
        <ele>120</ele>
        <time>2020-02-12T14:00:02Z</time>
      </trkpt>
      <trkpt lat="43.14543" lon="5.72162">
        <ele>117</ele>
        <time>2020-02-12T14:00:06Z</time>
      </trkpt>
      <trkpt lat="43.14549" lon="5.72162">
        <ele>115</ele>
        <time>2020-02-12T14:00:12Z</time>
      </trkpt>
      <trkpt lat="43.14555" lon="5.72161">
        <ele>117</ele>
        <time>2020-02-12T14:00:18Z</time>
      </trkpt>
      <trkpt lat="43.14561" lon="5.7216">
        <ele>116</ele>
        <time>2020-02-12T14:00:24Z</time>
      </trkpt>
      <trkpt lat="43.14566" lon="5.7216">
        <ele>116</ele>
        <time>2020-02-12T14:00:30Z</time>
      </trkpt>
      <trkpt lat="43.1457" lon="5.72161">
        <ele>117</ele>
        <time>2020-02-12T14:00:36Z</time>
      </trkpt>
      <trkpt lat="43.14576" lon="5.7216">
        <ele>119</ele>
        <time>2020-02-12T14:00:44Z</time>
      </trkpt>
      <trkpt lat="43.1458" lon="5.72157">
        <ele>119</ele>
        <time>2020-02-12T14:00:50Z</time>
      </trkpt>
      <trkpt lat="43.14584" lon="5.72152">
        <ele>121</ele>
        <time>2020-02-12T14:00:56Z</time>
      </trkpt>
      <trkpt lat="43.14589" lon="5.72146">
        <ele>121</ele>
        <time>2020-02-12T14:01:02Z</time>
      </trkpt>
      <trkpt lat="43.14593" lon="5.7214">
        <ele>122</ele>
        <time>2020-02-12T14:01:08Z</time>
      </trkpt>
      <trkpt lat="43.14597" lon="5.72136">
        <ele>121</ele>
        <time>2020-02-12T14:01:14Z</time>
      </trkpt>
      <trkpt lat="43.14601" lon="5.72131">
        <ele>123</ele>
        <time>2020-02-12T14:01:20Z</time>
      </trkpt>
      <trkpt lat="43.14605" lon="5.72127">
        <ele>125</ele>
        <time>2020-02-12T14:01:26Z</time>
      </trkpt>
      <trkpt lat="43.14609" lon="5.72125">
        <ele>124</ele>
        <time>2020-02-12T14:01:32Z</time>
      </trkpt>
      <trkpt lat="43.14614" lon="5.72122">
        <ele>127</ele>
        <time>2020-02-12T14:01:38Z</time>
      </trkpt>
      <trkpt lat="43.14619" lon="5.72118">
        <ele>127</ele>
        <time>2020-02-12T14:01:44Z</time>
      </trkpt>
      <trkpt lat="43.14623" lon="5.72114">
        <ele>127</ele>
        <time>2020-02-12T14:01:50Z</time>
      </trkpt>
      <trkpt lat="43.14628" lon="5.72109">
        <ele>127</ele>
        <time>2020-02-12T14:01:56Z</time>
      </trkpt>
      <trkpt lat="43.14633" lon="5.72106">
        <ele>127</ele>
        <time>2020-02-12T14:02:02Z</time>
      </trkpt>
      <trkpt lat="43.14637" lon="5.72104">
        <ele>127</ele>
        <time>2020-02-12T14:02:08Z</time>
      </trkpt>
      <trkpt lat="43.14643" lon="5.72102">
        <ele>127</ele>
        <time>2020-02-12T14:02:14Z</time>
      </trkpt>
      <trkpt lat="43.14648" lon="5.72098">
        <ele>126</ele>
        <time>2020-02-12T14:02:20Z</time>
      </trkpt>
      <trkpt lat="43.14653" lon="5.72095">
        <ele>128</ele>
        <time>2020-02-12T14:02:26Z</time>
      </trkpt>
      <trkpt lat="43.14658" lon="5.72092">
        <ele>127</ele>
        <time>2020-02-12T14:02:32Z</time>
      </trkpt>
      <trkpt lat="43.14663" lon="5.72089">
        <ele>127</ele>
        <time>2020-02-12T14:02:38Z</time>
      </trkpt>
      <trkpt lat="43.14667" lon="5.72086">
        <ele>123</ele>
        <time>2020-02-12T14:02:46Z</time>
      </trkpt>
      <trkpt lat="43.14671" lon="5.72086">
        <ele>121</ele>
        <time>2020-02-12T14:02:58Z</time>
      </trkpt>
      <trkpt lat="43.14678" lon="5.72085">
        <ele>120</ele>
        <time>2020-02-12T14:03:08Z</time>
      </trkpt>
      <trkpt lat="43.14684" lon="5.72083">
        <ele>121</ele>
        <time>2020-02-12T14:03:16Z</time>
      </trkpt>
      <trkpt lat="43.14689" lon="5.72082">
        <ele>119</ele>
        <time>2020-02-12T14:03:24Z</time>
      </trkpt>
      <trkpt lat="43.14694" lon="5.72079">
        <ele>120</ele>
        <time>2020-02-12T14:03:32Z</time>
      </trkpt>
      <trkpt lat="43.14699" lon="5.72076">
        <ele>120</ele>
        <time>2020-02-12T14:03:38Z</time>
      </trkpt>
      <trkpt lat="43.14703" lon="5.72073">
        <ele>122</ele>
        <time>2020-02-12T14:03:50Z</time>
      </trkpt>
      <trkpt lat="43.14707" lon="5.72068">
        <ele>122</ele>
        <time>2020-02-12T14:04:00Z</time>
      </trkpt>
      <trkpt lat="43.1471" lon="5.72064">
        <ele>121</ele>
        <time>2020-02-12T14:04:08Z</time>
      </trkpt>
      <trkpt lat="43.14715" lon="5.72062">
        <ele>120</ele>
        <time>2020-02-12T14:04:20Z</time>
      </trkpt>
      <trkpt lat="43.14719" lon="5.72059">
        <ele>119</ele>
        <time>2020-02-12T14:04:30Z</time>
      </trkpt>
      <trkpt lat="43.14725" lon="5.72059">
        <ele>119</ele>
        <time>2020-02-12T14:04:38Z</time>
      </trkpt>
      <trkpt lat="43.1473" lon="5.72058">
        <ele>119</ele>
        <time>2020-02-12T14:04:48Z</time>
      </trkpt>
      <trkpt lat="43.14735" lon="5.72057">
        <ele>117</ele>
        <time>2020-02-12T14:04:56Z</time>
      </trkpt>
      <trkpt lat="43.1474" lon="5.72055">
        <ele>117</ele>
        <time>2020-02-12T14:05:06Z</time>
      </trkpt>
      <trkpt lat="43.14746" lon="5.72052">
        <ele>117</ele>
        <time>2020-02-12T14:05:12Z</time>
      </trkpt>
      <trkpt lat="43.14752" lon="5.72051">
        <ele>116</ele>
        <time>2020-02-12T14:05:18Z</time>
      </trkpt>
      <trkpt lat="43.14757" lon="5.72048">
        <ele>113</ele>
        <time>2020-02-12T14:05:24Z</time>
      </trkpt>
      <trkpt lat="43.14761" lon="5.72044">
        <ele>114</ele>
        <time>2020-02-12T14:05:30Z</time>
      </trkpt>
      <trkpt lat="43.14766" lon="5.72043">
        <ele>111</ele>
        <time>2020-02-12T14:05:36Z</time>
      </trkpt>
      <trkpt lat="43.14771" lon="5.72043">
        <ele>111</ele>
        <time>2020-02-12T14:05:42Z</time>
      </trkpt>
      <trkpt lat="43.14776" lon="5.72042">
        <ele>110</ele>
        <time>2020-02-12T14:05:46Z</time>
      </trkpt>
      <trkpt lat="43.14781" lon="5.72039">
        <ele>109</ele>
        <time>2020-02-12T14:05:50Z</time>
      </trkpt>
      <trkpt lat="43.14786" lon="5.72037">
        <ele>109</ele>
        <time>2020-02-12T14:05:54Z</time>
      </trkpt>
      <trkpt lat="43.14788" lon="5.72031">
        <ele>108</ele>
        <time>2020-02-12T14:06:00Z</time>
      </trkpt>
      <trkpt lat="43.14792" lon="5.72035">
        <ele>109</ele>
        <time>2020-02-12T14:06:56Z</time>
      </trkpt>
      <trkpt lat="43.14798" lon="5.72034">
        <ele>109</ele>
        <time>2020-02-12T14:07:02Z</time>
      </trkpt>
      <trkpt lat="43.14805" lon="5.72032">
        <ele>111</ele>
        <time>2020-02-12T14:07:08Z</time>
      </trkpt>
      <trkpt lat="43.14809" lon="5.72029">
        <ele>111</ele>
        <time>2020-02-12T14:07:14Z</time>
      </trkpt>
      <trkpt lat="43.14814" lon="5.72029">
        <ele>109</ele>
        <time>2020-02-12T14:07:24Z</time>
      </trkpt>
      <trkpt lat="43.14819" lon="5.72029">
        <ele>111</ele>
        <time>2020-02-12T14:07:30Z</time>
      </trkpt>
      <trkpt lat="43.14823" lon="5.72028">
        <ele>112</ele>
        <time>2020-02-12T14:07:40Z</time>
      </trkpt>
      <trkpt lat="43.14828" lon="5.72028">
        <ele>110</ele>
        <time>2020-02-12T14:07:58Z</time>
      </trkpt>
      <trkpt lat="43.14833" lon="5.72028">
        <ele>115</ele>
        <time>2020-02-12T14:08:18Z</time>
      </trkpt>
      <trkpt lat="43.14835" lon="5.72023">
        <ele>116</ele>
        <time>2020-02-12T14:08:32Z</time>
      </trkpt>
      <trkpt lat="43.14837" lon="5.72017">
        <ele>112</ele>
        <time>2020-02-12T14:08:44Z</time>
      </trkpt>
      <trkpt lat="43.14842" lon="5.72015">
        <ele>110</ele>
        <time>2020-02-12T14:08:58Z</time>
      </trkpt>
      <trkpt lat="43.14846" lon="5.72011">
        <ele>109</ele>
        <time>2020-02-12T14:09:08Z</time>
      </trkpt>
      <trkpt lat="43.14851" lon="5.72009">
        <ele>105</ele>
        <time>2020-02-12T14:09:20Z</time>
      </trkpt>
      <trkpt lat="43.14855" lon="5.72005">
        <ele>104</ele>
        <time>2020-02-12T14:09:34Z</time>
      </trkpt>
      <trkpt lat="43.14859" lon="5.72002">
        <ele>104</ele>
        <time>2020-02-12T14:09:42Z</time>
      </trkpt>
      <trkpt lat="43.14863" lon="5.71999">
        <ele>102</ele>
        <time>2020-02-12T14:09:50Z</time>
      </trkpt>
      <trkpt lat="43.14867" lon="5.71996">
        <ele>98</ele>
        <time>2020-02-12T14:09:56Z</time>
      </trkpt>
      <trkpt lat="43.14872" lon="5.71998">
        <ele>97</ele>
        <time>2020-02-12T14:10:06Z</time>
      </trkpt>
      <trkpt lat="43.14876" lon="5.72003">
        <ele>97</ele>
        <time>2020-02-12T14:10:12Z</time>
      </trkpt>
      <trkpt lat="43.14875" lon="5.7201">
        <ele>98</ele>
        <time>2020-02-12T14:10:20Z</time>
      </trkpt>
      <trkpt lat="43.14873" lon="5.72016">
        <ele>91</ele>
        <time>2020-02-12T14:10:38Z</time>
      </trkpt>
      <trkpt lat="43.14877" lon="5.72023">
        <ele>83</ele>
        <time>2020-02-12T14:10:42Z</time>
      </trkpt>
      <trkpt lat="43.14887" lon="5.72048">
        <ele>104</ele>
        <time>2020-02-12T14:10:46Z</time>
      </trkpt>
      <trkpt lat="43.1489" lon="5.72057">
        <ele>104</ele>
        <time>2020-02-12T14:10:48Z</time>
      </trkpt>
      <trkpt lat="43.14891" lon="5.72063">
        <ele>118</ele>
        <time>2020-02-12T14:10:50Z</time>
      </trkpt>
      <trkpt lat="43.14893" lon="5.72069">
        <ele>111</ele>
        <time>2020-02-12T14:11:00Z</time>
      </trkpt>
      <trkpt lat="43.14897" lon="5.72075">
        <ele>108</ele>
        <time>2020-02-12T14:11:12Z</time>
      </trkpt>
      <trkpt lat="43.14902" lon="5.72076">
        <ele>107</ele>
        <time>2020-02-12T14:11:16Z</time>
      </trkpt>
      <trkpt lat="43.14907" lon="5.72074">
        <ele>101</ele>
        <time>2020-02-12T14:11:20Z</time>
      </trkpt>
      <trkpt lat="43.14912" lon="5.72071">
        <ele>100</ele>
        <time>2020-02-12T14:11:24Z</time>
      </trkpt>
      <trkpt lat="43.14917" lon="5.72069">
        <ele>106</ele>
        <time>2020-02-12T14:11:32Z</time>
      </trkpt>
      <trkpt lat="43.14922" lon="5.72069">
        <ele>110</ele>
        <time>2020-02-12T14:11:40Z</time>
      </trkpt>
      <trkpt lat="43.14928" lon="5.7207">
        <ele>112</ele>
        <time>2020-02-12T14:11:46Z</time>
      </trkpt>
      <trkpt lat="43.14932" lon="5.7207">
        <ele>112</ele>
        <time>2020-02-12T14:11:50Z</time>
      </trkpt>
      <trkpt lat="43.14937" lon="5.72069">
        <ele>113</ele>
        <time>2020-02-12T14:11:54Z</time>
      </trkpt>
      <trkpt lat="43.14942" lon="5.72067">
        <ele>113</ele>
        <time>2020-02-12T14:12:00Z</time>
      </trkpt>
      <trkpt lat="43.14946" lon="5.72062">
        <ele>114</ele>
        <time>2020-02-12T14:12:06Z</time>
      </trkpt>
      <trkpt lat="43.14952" lon="5.7206">
        <ele>114</ele>
        <time>2020-02-12T14:12:12Z</time>
      </trkpt>
      <trkpt lat="43.14956" lon="5.72056">
        <ele>113</ele>
        <time>2020-02-12T14:12:18Z</time>
      </trkpt>
      <trkpt lat="43.14959" lon="5.72051">
        <ele>109</ele>
        <time>2020-02-12T14:12:22Z</time>
      </trkpt>
      <trkpt lat="43.14963" lon="5.72046">
        <ele>107</ele>
        <time>2020-02-12T14:12:28Z</time>
      </trkpt>
      <trkpt lat="43.14967" lon="5.72045">
        <ele>108</ele>
        <time>2020-02-12T14:12:34Z</time>
      </trkpt>
      <trkpt lat="43.14973" lon="5.7204">
        <ele>112</ele>
        <time>2020-02-12T14:12:40Z</time>
      </trkpt>
      <trkpt lat="43.14978" lon="5.72037">
        <ele>113</ele>
        <time>2020-02-12T14:12:46Z</time>
      </trkpt>
      <trkpt lat="43.14984" lon="5.72031">
        <ele>112</ele>
        <time>2020-02-12T14:12:52Z</time>
      </trkpt>
      <trkpt lat="43.14987" lon="5.72027">
        <ele>111</ele>
        <time>2020-02-12T14:12:56Z</time>
      </trkpt>
      <trkpt lat="43.14993" lon="5.72025">
        <ele>111</ele>
        <time>2020-02-12T14:13:02Z</time>
      </trkpt>
      <trkpt lat="43.14999" lon="5.72025">
        <ele>105</ele>
        <time>2020-02-12T14:13:08Z</time>
      </trkpt>
      <trkpt lat="43.15004" lon="5.72025">
        <ele>105</ele>
        <time>2020-02-12T14:13:14Z</time>
      </trkpt>
      <trkpt lat="43.1501" lon="5.72023">
        <ele>105</ele>
        <time>2020-02-12T14:13:20Z</time>
      </trkpt>
      <trkpt lat="43.15014" lon="5.7202">
        <ele>103</ele>
        <time>2020-02-12T14:13:24Z</time>
      </trkpt>
      <trkpt lat="43.1502" lon="5.72019">
        <ele>105</ele>
        <time>2020-02-12T14:13:30Z</time>
      </trkpt>
      <trkpt lat="43.15025" lon="5.72018">
        <ele>104</ele>
        <time>2020-02-12T14:13:34Z</time>
      </trkpt>
      <trkpt lat="43.1503" lon="5.72016">
        <ele>102</ele>
        <time>2020-02-12T14:13:38Z</time>
      </trkpt>
      <trkpt lat="43.15035" lon="5.72015">
        <ele>101</ele>
        <time>2020-02-12T14:13:42Z</time>
      </trkpt>
      <trkpt lat="43.15039" lon="5.72015">
        <ele>97</ele>
        <time>2020-02-12T14:13:52Z</time>
      </trkpt>
      <trkpt lat="43.15045" lon="5.72011">
        <ele>100</ele>
        <time>2020-02-12T14:13:56Z</time>
      </trkpt>
      <trkpt lat="43.1505" lon="5.7201">
        <ele>103</ele>
        <time>2020-02-12T14:14:00Z</time>
      </trkpt>
      <trkpt lat="43.15057" lon="5.7201">
        <ele>103</ele>
        <time>2020-02-12T14:14:04Z</time>
      </trkpt>
      <trkpt lat="43.15062" lon="5.72009">
        <ele>107</ele>
        <time>2020-02-12T14:14:08Z</time>
      </trkpt>
      <trkpt lat="43.15067" lon="5.72006">
        <ele>107</ele>
        <time>2020-02-12T14:14:14Z</time>
      </trkpt>
      <trkpt lat="43.15072" lon="5.7201">
        <ele>107</ele>
        <time>2020-02-12T14:14:20Z</time>
      </trkpt>
      <trkpt lat="43.15078" lon="5.72015">
        <ele>108</ele>
        <time>2020-02-12T14:14:26Z</time>
      </trkpt>
      <trkpt lat="43.15084" lon="5.72015">
        <ele>107</ele>
        <time>2020-02-12T14:14:32Z</time>
      </trkpt>
      <trkpt lat="43.15088" lon="5.72018">
        <ele>110</ele>
        <time>2020-02-12T14:14:37Z</time>
      </trkpt>
      <trkpt lat="43.15093" lon="5.7202">
        <ele>109</ele>
        <time>2020-02-12T14:14:46Z</time>
      </trkpt>
      <trkpt lat="43.15098" lon="5.72017">
        <ele>108</ele>
        <time>2020-02-12T14:14:50Z</time>
      </trkpt>
      <trkpt lat="43.15103" lon="5.72016">
        <ele>106</ele>
        <time>2020-02-12T14:14:56Z</time>
      </trkpt>
      <trkpt lat="43.15105" lon="5.72023">
        <ele>109</ele>
        <time>2020-02-12T14:15:10Z</time>
      </trkpt>
      <trkpt lat="43.15111" lon="5.72026">
        <ele>113</ele>
        <time>2020-02-12T14:15:14Z</time>
      </trkpt>
      <trkpt lat="43.15115" lon="5.7203">
        <ele>116</ele>
        <time>2020-02-12T14:15:18Z</time>
      </trkpt>
      <trkpt lat="43.15118" lon="5.72035">
        <ele>118</ele>
        <time>2020-02-12T14:15:28Z</time>
      </trkpt>
      <trkpt lat="43.15118" lon="5.72042">
        <ele>119</ele>
        <time>2020-02-12T14:15:36Z</time>
      </trkpt>
      <trkpt lat="43.15119" lon="5.72049">
        <ele>119</ele>
        <time>2020-02-12T14:15:44Z</time>
      </trkpt>
      <trkpt lat="43.1512" lon="5.72056">
        <ele>119</ele>
        <time>2020-02-12T14:15:52Z</time>
      </trkpt>
      <trkpt lat="43.15125" lon="5.72059">
        <ele>119</ele>
        <time>2020-02-12T14:16:04Z</time>
      </trkpt>
      <trkpt lat="43.15126" lon="5.72067">
        <ele>122</ele>
        <time>2020-02-12T14:16:12Z</time>
      </trkpt>
      <trkpt lat="43.15126" lon="5.72074">
        <ele>125</ele>
        <time>2020-02-12T14:16:20Z</time>
      </trkpt>
      <trkpt lat="43.15124" lon="5.7208">
        <ele>124</ele>
        <time>2020-02-12T14:16:26Z</time>
      </trkpt>
      <trkpt lat="43.15123" lon="5.72087">
        <ele>125</ele>
        <time>2020-02-12T14:16:34Z</time>
      </trkpt>
      <trkpt lat="43.15123" lon="5.72093">
        <ele>126</ele>
        <time>2020-02-12T14:16:40Z</time>
      </trkpt>
      <trkpt lat="43.15122" lon="5.721">
        <ele>124</ele>
        <time>2020-02-12T14:16:50Z</time>
      </trkpt>
      <trkpt lat="43.15122" lon="5.72107">
        <ele>124</ele>
        <time>2020-02-12T14:17:00Z</time>
      </trkpt>
      <trkpt lat="43.15123" lon="5.72115">
        <ele>125</ele>
        <time>2020-02-12T14:17:08Z</time>
      </trkpt>
      <trkpt lat="43.15119" lon="5.72121">
        <ele>123</ele>
        <time>2020-02-12T14:17:16Z</time>
      </trkpt>
      <trkpt lat="43.15113" lon="5.72123">
        <ele>122</ele>
        <time>2020-02-12T14:17:22Z</time>
      </trkpt>
      <trkpt lat="43.1511" lon="5.72127">
        <ele>123</ele>
        <time>2020-02-12T14:17:28Z</time>
      </trkpt>
      <trkpt lat="43.15106" lon="5.72131">
        <ele>121</ele>
        <time>2020-02-12T14:17:34Z</time>
      </trkpt>
      <trkpt lat="43.15102" lon="5.72136">
        <ele>121</ele>
        <time>2020-02-12T14:17:40Z</time>
      </trkpt>
      <trkpt lat="43.15097" lon="5.72141">
        <ele>122</ele>
        <time>2020-02-12T14:17:46Z</time>
      </trkpt>
      <trkpt lat="43.15096" lon="5.72147">
        <ele>124</ele>
        <time>2020-02-12T14:17:54Z</time>
      </trkpt>
      <trkpt lat="43.151" lon="5.7215">
        <ele>128</ele>
        <time>2020-02-12T14:18:04Z</time>
      </trkpt>
      <trkpt lat="43.15104" lon="5.72153">
        <ele>131</ele>
        <time>2020-02-12T14:18:10Z</time>
      </trkpt>
      <trkpt lat="43.15107" lon="5.72158">
        <ele>128</ele>
        <time>2020-02-12T14:18:20Z</time>
      </trkpt>
      <trkpt lat="43.15112" lon="5.72162">
        <ele>131</ele>
        <time>2020-02-12T14:18:26Z</time>
      </trkpt>
      <trkpt lat="43.15117" lon="5.72164">
        <ele>132</ele>
        <time>2020-02-12T14:18:36Z</time>
      </trkpt>
      <trkpt lat="43.1512" lon="5.7217">
        <ele>131</ele>
        <time>2020-02-12T14:18:42Z</time>
      </trkpt>
      <trkpt lat="43.15125" lon="5.72175">
        <ele>134</ele>
        <time>2020-02-12T14:18:50Z</time>
      </trkpt>
      <trkpt lat="43.15129" lon="5.72178">
        <ele>135</ele>
        <time>2020-02-12T14:18:56Z</time>
      </trkpt>
      <trkpt lat="43.15134" lon="5.72183">
        <ele>137</ele>
        <time>2020-02-12T14:19:04Z</time>
      </trkpt>
      <trkpt lat="43.15138" lon="5.72186">
        <ele>138</ele>
        <time>2020-02-12T14:19:10Z</time>
      </trkpt>
      <trkpt lat="43.15142" lon="5.72189">
        <ele>138</ele>
        <time>2020-02-12T14:19:18Z</time>
      </trkpt>
      <trkpt lat="43.15146" lon="5.72193">
        <ele>140</ele>
        <time>2020-02-12T14:19:24Z</time>
      </trkpt>
      <trkpt lat="43.15153" lon="5.72194">
        <ele>142</ele>
        <time>2020-02-12T14:19:32Z</time>
      </trkpt>
      <trkpt lat="43.15158" lon="5.72196">
        <ele>143</ele>
        <time>2020-02-12T14:19:36Z</time>
      </trkpt>
      <trkpt lat="43.15163" lon="5.72199">
        <ele>146</ele>
        <time>2020-02-12T14:19:42Z</time>
      </trkpt>
      <trkpt lat="43.15167" lon="5.72201">
        <ele>144</ele>
        <time>2020-02-12T14:19:48Z</time>
      </trkpt>
      <trkpt lat="43.15172" lon="5.72206">
        <ele>144</ele>
        <time>2020-02-12T14:19:54Z</time>
      </trkpt>
      <trkpt lat="43.15177" lon="5.72207">
        <ele>145</ele>
        <time>2020-02-12T14:20:00Z</time>
      </trkpt>
      <trkpt lat="43.15181" lon="5.7221">
        <ele>144</ele>
        <time>2020-02-12T14:20:10Z</time>
      </trkpt>
      <trkpt lat="43.15187" lon="5.72212">
        <ele>145</ele>
        <time>2020-02-12T14:20:18Z</time>
      </trkpt>
      <trkpt lat="43.15192" lon="5.72215">
        <ele>144</ele>
        <time>2020-02-12T14:20:26Z</time>
      </trkpt>
      <trkpt lat="43.15197" lon="5.72217">
        <ele>145</ele>
        <time>2020-02-12T14:20:38Z</time>
      </trkpt>
      <trkpt lat="43.15202" lon="5.72219">
        <ele>145</ele>
        <time>2020-02-12T14:20:44Z</time>
      </trkpt>
      <trkpt lat="43.15206" lon="5.72221">
        <ele>144</ele>
        <time>2020-02-12T14:20:56Z</time>
      </trkpt>
      <trkpt lat="43.1521" lon="5.72224">
        <ele>145</ele>
        <time>2020-02-12T14:21:06Z</time>
      </trkpt>
      <trkpt lat="43.15215" lon="5.72226">
        <ele>147</ele>
        <time>2020-02-12T14:21:24Z</time>
      </trkpt>
      <trkpt lat="43.15219" lon="5.72226">
        <ele>146</ele>
        <time>2020-02-12T14:21:42Z</time>
      </trkpt>
      <trkpt lat="43.15225" lon="5.72228">
        <ele>145</ele>
        <time>2020-02-12T14:21:52Z</time>
      </trkpt>
      <trkpt lat="43.1523" lon="5.72228">
        <ele>144</ele>
        <time>2020-02-12T14:21:58Z</time>
      </trkpt>
      <trkpt lat="43.15235" lon="5.72228">
        <ele>144</ele>
        <time>2020-02-12T14:22:04Z</time>
      </trkpt>
      <trkpt lat="43.15241" lon="5.7223">
        <ele>144</ele>
        <time>2020-02-12T14:22:10Z</time>
      </trkpt>
      <trkpt lat="43.15247" lon="5.72231">
        <ele>143</ele>
        <time>2020-02-12T14:22:16Z</time>
      </trkpt>
      <trkpt lat="43.15252" lon="5.72232">
        <ele>144</ele>
        <time>2020-02-12T14:22:22Z</time>
      </trkpt>
      <trkpt lat="43.15258" lon="5.72234">
        <ele>145</ele>
        <time>2020-02-12T14:22:28Z</time>
      </trkpt>
      <trkpt lat="43.15263" lon="5.72234">
        <ele>144</ele>
        <time>2020-02-12T14:22:34Z</time>
      </trkpt>
      <trkpt lat="43.15269" lon="5.72235">
        <ele>145</ele>
        <time>2020-02-12T14:22:40Z</time>
      </trkpt>
      <trkpt lat="43.15274" lon="5.72237">
        <ele>145</ele>
        <time>2020-02-12T14:22:46Z</time>
      </trkpt>
      <trkpt lat="43.15281" lon="5.72238">
        <ele>145</ele>
        <time>2020-02-12T14:22:52Z</time>
      </trkpt>
      <trkpt lat="43.15287" lon="5.72238">
        <ele>145</ele>
        <time>2020-02-12T14:22:58Z</time>
      </trkpt>
      <trkpt lat="43.15292" lon="5.72239">
        <ele>146</ele>
        <time>2020-02-12T14:23:04Z</time>
      </trkpt>
      <trkpt lat="43.15297" lon="5.72241">
        <ele>148</ele>
        <time>2020-02-12T14:23:10Z</time>
      </trkpt>
      <trkpt lat="43.15302" lon="5.72243">
        <ele>147</ele>
        <time>2020-02-12T14:23:16Z</time>
      </trkpt>
      <trkpt lat="43.15308" lon="5.72243">
        <ele>148</ele>
        <time>2020-02-12T14:23:22Z</time>
      </trkpt>
      <trkpt lat="43.15313" lon="5.72241">
        <ele>148</ele>
        <time>2020-02-12T14:23:28Z</time>
      </trkpt>
      <trkpt lat="43.15318" lon="5.7224">
        <ele>149</ele>
        <time>2020-02-12T14:23:56Z</time>
      </trkpt>
      <trkpt lat="43.15321" lon="5.72235">
        <ele>145</ele>
        <time>2020-02-12T14:24:06Z</time>
      </trkpt>
      <trkpt lat="43.15321" lon="5.72228">
        <ele>139</ele>
        <time>2020-02-12T14:24:14Z</time>
      </trkpt>
      <trkpt lat="43.1532" lon="5.72221">
        <ele>138</ele>
        <time>2020-02-12T14:24:18Z</time>
      </trkpt>
      <trkpt lat="43.15321" lon="5.72214">
        <ele>138</ele>
        <time>2020-02-12T14:24:22Z</time>
      </trkpt>
      <trkpt lat="43.15325" lon="5.7221">
        <ele>137</ele>
        <time>2020-02-12T14:24:26Z</time>
      </trkpt>
      <trkpt lat="43.1533" lon="5.72207">
        <ele>138</ele>
        <time>2020-02-12T14:24:30Z</time>
      </trkpt>
      <trkpt lat="43.15335" lon="5.72205">
        <ele>138</ele>
        <time>2020-02-12T14:24:34Z</time>
      </trkpt>
      <trkpt lat="43.1534" lon="5.72204">
        <ele>139</ele>
        <time>2020-02-12T14:24:38Z</time>
      </trkpt>
      <trkpt lat="43.15346" lon="5.72202">
        <ele>140</ele>
        <time>2020-02-12T14:24:42Z</time>
      </trkpt>
      <trkpt lat="43.15351" lon="5.72201">
        <ele>141</ele>
        <time>2020-02-12T14:24:46Z</time>
      </trkpt>
      <trkpt lat="43.15356" lon="5.722">
        <ele>141</ele>
        <time>2020-02-12T14:24:50Z</time>
      </trkpt>
      <trkpt lat="43.15361" lon="5.72199">
        <ele>142</ele>
        <time>2020-02-12T14:24:54Z</time>
      </trkpt>
      <trkpt lat="43.15366" lon="5.72198">
        <ele>142</ele>
        <time>2020-02-12T14:24:58Z</time>
      </trkpt>
      <trkpt lat="43.15371" lon="5.72197">
        <ele>142</ele>
        <time>2020-02-12T14:25:02Z</time>
      </trkpt>
      <trkpt lat="43.15376" lon="5.72195">
        <ele>144</ele>
        <time>2020-02-12T14:25:06Z</time>
      </trkpt>
      <trkpt lat="43.15382" lon="5.72194">
        <ele>144</ele>
        <time>2020-02-12T14:25:10Z</time>
      </trkpt>
      <trkpt lat="43.15386" lon="5.72193">
        <ele>142</ele>
        <time>2020-02-12T14:25:14Z</time>
      </trkpt>
      <trkpt lat="43.15392" lon="5.72191">
        <ele>140</ele>
        <time>2020-02-12T14:25:20Z</time>
      </trkpt>
      <trkpt lat="43.15396" lon="5.72185">
        <ele>140</ele>
        <time>2020-02-12T14:25:26Z</time>
      </trkpt>
      <trkpt lat="43.154" lon="5.7218">
        <ele>139</ele>
        <time>2020-02-12T14:25:32Z</time>
      </trkpt>
      <trkpt lat="43.15404" lon="5.72176">
        <ele>136</ele>
        <time>2020-02-12T14:25:38Z</time>
      </trkpt>
      <trkpt lat="43.15408" lon="5.72172">
        <ele>135</ele>
        <time>2020-02-12T14:25:44Z</time>
      </trkpt>
      <trkpt lat="43.15407" lon="5.72164">
        <ele>135</ele>
        <time>2020-02-12T14:25:50Z</time>
      </trkpt>
      <trkpt lat="43.15406" lon="5.72157">
        <ele>134</ele>
        <time>2020-02-12T14:25:58Z</time>
      </trkpt>
      <trkpt lat="43.15404" lon="5.72149">
        <ele>136</ele>
        <time>2020-02-12T14:26:04Z</time>
      </trkpt>
      <trkpt lat="43.15409" lon="5.72147">
        <ele>140</ele>
        <time>2020-02-12T14:26:52Z</time>
      </trkpt>
      <trkpt lat="43.15414" lon="5.72149">
        <ele>139</ele>
        <time>2020-02-12T14:34:02Z</time>
      </trkpt>
      <trkpt lat="43.15419" lon="5.72149">
        <ele>138</ele>
        <time>2020-02-12T14:34:08Z</time>
      </trkpt>
      <trkpt lat="43.15424" lon="5.72149">
        <ele>139</ele>
        <time>2020-02-12T14:34:18Z</time>
      </trkpt>
      <trkpt lat="43.1543" lon="5.72148">
        <ele>140</ele>
        <time>2020-02-12T14:34:24Z</time>
      </trkpt>
      <trkpt lat="43.15435" lon="5.72153">
        <ele>140</ele>
        <time>2020-02-12T14:34:30Z</time>
      </trkpt>
      <trkpt lat="43.15439" lon="5.72156">
        <ele>142</ele>
        <time>2020-02-12T14:34:34Z</time>
      </trkpt>
      <trkpt lat="43.15444" lon="5.72157">
        <ele>142</ele>
        <time>2020-02-12T14:34:38Z</time>
      </trkpt>
      <trkpt lat="43.15448" lon="5.72157">
        <ele>144</ele>
        <time>2020-02-12T14:34:42Z</time>
      </trkpt>
      <trkpt lat="43.15455" lon="5.72155">
        <ele>143</ele>
        <time>2020-02-12T14:34:48Z</time>
      </trkpt>
      <trkpt lat="43.15459" lon="5.72153">
        <ele>144</ele>
        <time>2020-02-12T14:34:52Z</time>
      </trkpt>
      <trkpt lat="43.15465" lon="5.72151">
        <ele>143</ele>
        <time>2020-02-12T14:34:58Z</time>
      </trkpt>
      <trkpt lat="43.15471" lon="5.72151">
        <ele>143</ele>
        <time>2020-02-12T14:35:04Z</time>
      </trkpt>
      <trkpt lat="43.15477" lon="5.72149">
        <ele>143</ele>
        <time>2020-02-12T14:35:10Z</time>
      </trkpt>
      <trkpt lat="43.15482" lon="5.72148">
        <ele>142</ele>
        <time>2020-02-12T14:35:14Z</time>
      </trkpt>
      <trkpt lat="43.15487" lon="5.72148">
        <ele>143</ele>
        <time>2020-02-12T14:35:18Z</time>
      </trkpt>
      <trkpt lat="43.15493" lon="5.72149">
        <ele>142</ele>
        <time>2020-02-12T14:35:24Z</time>
      </trkpt>
      <trkpt lat="43.155" lon="5.72151">
        <ele>141</ele>
        <time>2020-02-12T14:35:30Z</time>
      </trkpt>
      <trkpt lat="43.15505" lon="5.72152">
        <ele>138</ele>
        <time>2020-02-12T14:35:36Z</time>
      </trkpt>
      <trkpt lat="43.15511" lon="5.72154">
        <ele>136</ele>
        <time>2020-02-12T14:35:42Z</time>
      </trkpt>
      <trkpt lat="43.15516" lon="5.72157">
        <ele>134</ele>
        <time>2020-02-12T14:35:48Z</time>
      </trkpt>
      <trkpt lat="43.15521" lon="5.72162">
        <ele>133</ele>
        <time>2020-02-12T14:35:54Z</time>
      </trkpt>
      <trkpt lat="43.15526" lon="5.72167">
        <ele>131</ele>
        <time>2020-02-12T14:36:00Z</time>
      </trkpt>
      <trkpt lat="43.1553" lon="5.72173">
        <ele>132</ele>
        <time>2020-02-12T14:36:06Z</time>
      </trkpt>
      <trkpt lat="43.15535" lon="5.72179">
        <ele>132</ele>
        <time>2020-02-12T14:36:12Z</time>
      </trkpt>
      <trkpt lat="43.15538" lon="5.72185">
        <ele>132</ele>
        <time>2020-02-12T14:36:18Z</time>
      </trkpt>
      <trkpt lat="43.15542" lon="5.7219">
        <ele>131</ele>
        <time>2020-02-12T14:36:24Z</time>
      </trkpt>
      <trkpt lat="43.15546" lon="5.72194">
        <ele>130</ele>
        <time>2020-02-12T14:36:30Z</time>
      </trkpt>
      <trkpt lat="43.15552" lon="5.72195">
        <ele>130</ele>
        <time>2020-02-12T14:36:36Z</time>
      </trkpt>
      <trkpt lat="43.15559" lon="5.72197">
        <ele>132</ele>
        <time>2020-02-12T14:36:42Z</time>
      </trkpt>
      <trkpt lat="43.15564" lon="5.72196">
        <ele>131</ele>
        <time>2020-02-12T14:36:46Z</time>
      </trkpt>
      <trkpt lat="43.15569" lon="5.72193">
        <ele>131</ele>
        <time>2020-02-12T14:36:50Z</time>
      </trkpt>
      <trkpt lat="43.15574" lon="5.7219">
        <ele>132</ele>
        <time>2020-02-12T14:36:54Z</time>
      </trkpt>
      <trkpt lat="43.15579" lon="5.72187">
        <ele>132</ele>
        <time>2020-02-12T14:36:58Z</time>
      </trkpt>
      <trkpt lat="43.15583" lon="5.72181">
        <ele>130</ele>
        <time>2020-02-12T14:37:04Z</time>
      </trkpt>
      <trkpt lat="43.15587" lon="5.72177">
        <ele>130</ele>
        <time>2020-02-12T14:37:08Z</time>
      </trkpt>
      <trkpt lat="43.15592" lon="5.72174">
        <ele>130</ele>
        <time>2020-02-12T14:37:12Z</time>
      </trkpt>
      <trkpt lat="43.15597" lon="5.72174">
        <ele>130</ele>
        <time>2020-02-12T14:37:16Z</time>
      </trkpt>
      <trkpt lat="43.15604" lon="5.72172">
        <ele>130</ele>
        <time>2020-02-12T14:37:22Z</time>
      </trkpt>
      <trkpt lat="43.1561" lon="5.72173">
        <ele>129</ele>
        <time>2020-02-12T14:37:28Z</time>
      </trkpt>
      <trkpt lat="43.15615" lon="5.72169">
        <ele>127</ele>
        <time>2020-02-12T14:37:32Z</time>
      </trkpt>
      <trkpt lat="43.1562" lon="5.72167">
        <ele>128</ele>
        <time>2020-02-12T14:37:38Z</time>
      </trkpt>
      <trkpt lat="43.15625" lon="5.72166">
        <ele>130</ele>
        <time>2020-02-12T14:37:44Z</time>
      </trkpt>
      <trkpt lat="43.15629" lon="5.72163">
        <ele>129</ele>
        <time>2020-02-12T14:37:50Z</time>
      </trkpt>
      <trkpt lat="43.15635" lon="5.72158">
        <ele>125</ele>
        <time>2020-02-12T14:37:56Z</time>
      </trkpt>
      <trkpt lat="43.15641" lon="5.72155">
        <ele>123</ele>
        <time>2020-02-12T14:38:02Z</time>
      </trkpt>
      <trkpt lat="43.15645" lon="5.72151">
        <ele>124</ele>
        <time>2020-02-12T14:38:08Z</time>
      </trkpt>
      <trkpt lat="43.15651" lon="5.72147">
        <ele>123</ele>
        <time>2020-02-12T14:38:14Z</time>
      </trkpt>
      <trkpt lat="43.15656" lon="5.72141">
        <ele>122</ele>
        <time>2020-02-12T14:38:20Z</time>
      </trkpt>
      <trkpt lat="43.1566" lon="5.72135">
        <ele>121</ele>
        <time>2020-02-12T14:38:24Z</time>
      </trkpt>
      <trkpt lat="43.15665" lon="5.72128">
        <ele>122</ele>
        <time>2020-02-12T14:38:30Z</time>
      </trkpt>
      <trkpt lat="43.15668" lon="5.7212">
        <ele>123</ele>
        <time>2020-02-12T14:38:36Z</time>
      </trkpt>
      <trkpt lat="43.15672" lon="5.72114">
        <ele>121</ele>
        <time>2020-02-12T14:38:42Z</time>
      </trkpt>
      <trkpt lat="43.15675" lon="5.72109">
        <ele>122</ele>
        <time>2020-02-12T14:38:46Z</time>
      </trkpt>
      <trkpt lat="43.15677" lon="5.72104">
        <ele>121</ele>
        <time>2020-02-12T14:38:50Z</time>
      </trkpt>
      <trkpt lat="43.1568" lon="5.72099">
        <ele>121</ele>
        <time>2020-02-12T14:38:54Z</time>
      </trkpt>
      <trkpt lat="43.15683" lon="5.72091">
        <ele>121</ele>
        <time>2020-02-12T14:39:00Z</time>
      </trkpt>
      <trkpt lat="43.15684" lon="5.72084">
        <ele>120</ele>
        <time>2020-02-12T14:39:06Z</time>
      </trkpt>
      <trkpt lat="43.15685" lon="5.72076">
        <ele>118</ele>
        <time>2020-02-12T14:39:12Z</time>
      </trkpt>
      <trkpt lat="43.15685" lon="5.72067">
        <ele>115</ele>
        <time>2020-02-12T14:39:18Z</time>
      </trkpt>
      <trkpt lat="43.15684" lon="5.72059">
        <ele>114</ele>
        <time>2020-02-12T14:39:24Z</time>
      </trkpt>
      <trkpt lat="43.15685" lon="5.72053">
        <ele>114</ele>
        <time>2020-02-12T14:39:28Z</time>
      </trkpt>
      <trkpt lat="43.15687" lon="5.72045">
        <ele>114</ele>
        <time>2020-02-12T14:39:34Z</time>
      </trkpt>
      <trkpt lat="43.15688" lon="5.72038">
        <ele>116</ele>
        <time>2020-02-12T14:39:38Z</time>
      </trkpt>
      <trkpt lat="43.15688" lon="5.72032">
        <ele>117</ele>
        <time>2020-02-12T14:39:42Z</time>
      </trkpt>
      <trkpt lat="43.1569" lon="5.72025">
        <ele>118</ele>
        <time>2020-02-12T14:39:46Z</time>
      </trkpt>
      <trkpt lat="43.15692" lon="5.72017">
        <ele>117</ele>
        <time>2020-02-12T14:39:52Z</time>
      </trkpt>
      <trkpt lat="43.15694" lon="5.72009">
        <ele>121</ele>
        <time>2020-02-12T14:39:56Z</time>
      </trkpt>
      <trkpt lat="43.15695" lon="5.72002">
        <ele>120</ele>
        <time>2020-02-12T14:40:00Z</time>
      </trkpt>
      <trkpt lat="43.15696" lon="5.71994">
        <ele>118</ele>
        <time>2020-02-12T14:40:06Z</time>
      </trkpt>
      <trkpt lat="43.15697" lon="5.71987">
        <ele>117</ele>
        <time>2020-02-12T14:40:12Z</time>
      </trkpt>
      <trkpt lat="43.15698" lon="5.71979">
        <ele>116</ele>
        <time>2020-02-12T14:40:18Z</time>
      </trkpt>
      <trkpt lat="43.15699" lon="5.71971">
        <ele>112</ele>
        <time>2020-02-12T14:40:26Z</time>
      </trkpt>
      <trkpt lat="43.15699" lon="5.71963">
        <ele>109</ele>
        <time>2020-02-12T14:40:34Z</time>
      </trkpt>
      <trkpt lat="43.15699" lon="5.71955">
        <ele>108</ele>
        <time>2020-02-12T14:40:40Z</time>
      </trkpt>
      <trkpt lat="43.15699" lon="5.71947">
        <ele>107</ele>
        <time>2020-02-12T14:40:46Z</time>
      </trkpt>
      <trkpt lat="43.15701" lon="5.71939">
        <ele>105</ele>
        <time>2020-02-12T14:40:52Z</time>
      </trkpt>
      <trkpt lat="43.15702" lon="5.71933">
        <ele>106</ele>
        <time>2020-02-12T14:40:56Z</time>
      </trkpt>
      <trkpt lat="43.15704" lon="5.71924">
        <ele>105</ele>
        <time>2020-02-12T14:41:02Z</time>
      </trkpt>
      <trkpt lat="43.15703" lon="5.71915">
        <ele>103</ele>
        <time>2020-02-12T14:41:08Z</time>
      </trkpt>
      <trkpt lat="43.15704" lon="5.71908">
        <ele>104</ele>
        <time>2020-02-12T14:41:12Z</time>
      </trkpt>
      <trkpt lat="43.15705" lon="5.71901">
        <ele>103</ele>
        <time>2020-02-12T14:41:18Z</time>
      </trkpt>
      <trkpt lat="43.15707" lon="5.71893">
        <ele>101</ele>
        <time>2020-02-12T14:41:24Z</time>
      </trkpt>
      <trkpt lat="43.15707" lon="5.71885">
        <ele>100</ele>
        <time>2020-02-12T14:41:30Z</time>
      </trkpt>
      <trkpt lat="43.15709" lon="5.71878">
        <ele>100</ele>
        <time>2020-02-12T14:41:36Z</time>
      </trkpt>
      <trkpt lat="43.1571" lon="5.71872">
        <ele>99</ele>
        <time>2020-02-12T14:41:40Z</time>
      </trkpt>
      <trkpt lat="43.15712" lon="5.71863">
        <ele>98</ele>
        <time>2020-02-12T14:41:46Z</time>
      </trkpt>
      <trkpt lat="43.15713" lon="5.71857">
        <ele>98</ele>
        <time>2020-02-12T14:41:50Z</time>
      </trkpt>
      <trkpt lat="43.15714" lon="5.71851">
        <ele>99</ele>
        <time>2020-02-12T14:41:54Z</time>
      </trkpt>
      <trkpt lat="43.15716" lon="5.71843">
        <ele>98</ele>
        <time>2020-02-12T14:42:00Z</time>
      </trkpt>
      <trkpt lat="43.15717" lon="5.71836">
        <ele>97</ele>
        <time>2020-02-12T14:42:06Z</time>
      </trkpt>
      <trkpt lat="43.15719" lon="5.71828">
        <ele>96</ele>
        <time>2020-02-12T14:42:12Z</time>
      </trkpt>
      <trkpt lat="43.15721" lon="5.71821">
        <ele>97</ele>
        <time>2020-02-12T14:42:16Z</time>
      </trkpt>
      <trkpt lat="43.15722" lon="5.71815">
        <ele>99</ele>
        <time>2020-02-12T14:42:20Z</time>
      </trkpt>
      <trkpt lat="43.15723" lon="5.71806">
        <ele>97</ele>
        <time>2020-02-12T14:42:28Z</time>
      </trkpt>
      <trkpt lat="43.15724" lon="5.71799">
        <ele>97</ele>
        <time>2020-02-12T14:42:34Z</time>
      </trkpt>
      <trkpt lat="43.15726" lon="5.71793">
        <ele>97</ele>
        <time>2020-02-12T14:42:38Z</time>
      </trkpt>
      <trkpt lat="43.15726" lon="5.71783">
        <ele>99</ele>
        <time>2020-02-12T14:42:44Z</time>
      </trkpt>
      <trkpt lat="43.15727" lon="5.71774">
        <ele>98</ele>
        <time>2020-02-12T14:42:50Z</time>
      </trkpt>
      <trkpt lat="43.15727" lon="5.71766">
        <ele>99</ele>
        <time>2020-02-12T14:42:54Z</time>
      </trkpt>
      <trkpt lat="43.15728" lon="5.71758">
        <ele>100</ele>
        <time>2020-02-12T14:42:58Z</time>
      </trkpt>
      <trkpt lat="43.15731" lon="5.71751">
        <ele>100</ele>
        <time>2020-02-12T14:43:04Z</time>
      </trkpt>
      <trkpt lat="43.15736" lon="5.71749">
        <ele>98</ele>
        <time>2020-02-12T14:43:08Z</time>
      </trkpt>
      <trkpt lat="43.15739" lon="5.71743">
        <ele>97</ele>
        <time>2020-02-12T14:43:14Z</time>
      </trkpt>
      <trkpt lat="43.1574" lon="5.71736">
        <ele>96</ele>
        <time>2020-02-12T14:43:20Z</time>
      </trkpt>
      <trkpt lat="43.15738" lon="5.71729">
        <ele>96</ele>
        <time>2020-02-12T14:43:24Z</time>
      </trkpt>
      <trkpt lat="43.15738" lon="5.71722">
        <ele>97</ele>
        <time>2020-02-12T14:43:28Z</time>
      </trkpt>
      <trkpt lat="43.15736" lon="5.71715">
        <ele>96</ele>
        <time>2020-02-12T14:43:34Z</time>
      </trkpt>
      <trkpt lat="43.15733" lon="5.71709">
        <ele>95</ele>
        <time>2020-02-12T14:43:40Z</time>
      </trkpt>
      <trkpt lat="43.1573" lon="5.71703">
        <ele>96</ele>
        <time>2020-02-12T14:43:46Z</time>
      </trkpt>
      <trkpt lat="43.15726" lon="5.71698">
        <ele>96</ele>
        <time>2020-02-12T14:43:52Z</time>
      </trkpt>
      <trkpt lat="43.15723" lon="5.71693">
        <ele>95</ele>
        <time>2020-02-12T14:43:56Z</time>
      </trkpt>
      <trkpt lat="43.15719" lon="5.7169">
        <ele>94</ele>
        <time>2020-02-12T14:44:00Z</time>
      </trkpt>
      <trkpt lat="43.15715" lon="5.71684">
        <ele>93</ele>
        <time>2020-02-12T14:44:06Z</time>
      </trkpt>
      <trkpt lat="43.15711" lon="5.71677">
        <ele>94</ele>
        <time>2020-02-12T14:44:12Z</time>
      </trkpt>
      <trkpt lat="43.15706" lon="5.71671">
        <ele>93</ele>
        <time>2020-02-12T14:44:18Z</time>
      </trkpt>
      <trkpt lat="43.15702" lon="5.71667">
        <ele>92</ele>
        <time>2020-02-12T14:44:22Z</time>
      </trkpt>
      <trkpt lat="43.15698" lon="5.71662">
        <ele>92</ele>
        <time>2020-02-12T14:44:28Z</time>
      </trkpt>
      <trkpt lat="43.15694" lon="5.71659">
        <ele>91</ele>
        <time>2020-02-12T14:44:34Z</time>
      </trkpt>
      <trkpt lat="43.15689" lon="5.71653">
        <ele>91</ele>
        <time>2020-02-12T14:44:40Z</time>
      </trkpt>
      <trkpt lat="43.15685" lon="5.71647">
        <ele>90</ele>
        <time>2020-02-12T14:44:46Z</time>
      </trkpt>
      <trkpt lat="43.15681" lon="5.71641">
        <ele>90</ele>
        <time>2020-02-12T14:44:52Z</time>
      </trkpt>
      <trkpt lat="43.15677" lon="5.71637">
        <ele>89</ele>
        <time>2020-02-12T14:44:56Z</time>
      </trkpt>
      <trkpt lat="43.15674" lon="5.71631">
        <ele>90</ele>
        <time>2020-02-12T14:45:00Z</time>
      </trkpt>
      <trkpt lat="43.15671" lon="5.71626">
        <ele>90</ele>
        <time>2020-02-12T14:45:04Z</time>
      </trkpt>
      <trkpt lat="43.15666" lon="5.71621">
        <ele>91</ele>
        <time>2020-02-12T14:45:10Z</time>
      </trkpt>
      <trkpt lat="43.15661" lon="5.71616">
        <ele>90</ele>
        <time>2020-02-12T14:45:16Z</time>
      </trkpt>
      <trkpt lat="43.15657" lon="5.7161">
        <ele>88</ele>
        <time>2020-02-12T14:45:24Z</time>
      </trkpt>
      <trkpt lat="43.15655" lon="5.71603">
        <ele>87</ele>
        <time>2020-02-12T14:45:30Z</time>
      </trkpt>
      <trkpt lat="43.15653" lon="5.71596">
        <ele>88</ele>
        <time>2020-02-12T14:45:36Z</time>
      </trkpt>
      <trkpt lat="43.15651" lon="5.71589">
        <ele>88</ele>
        <time>2020-02-12T14:45:44Z</time>
      </trkpt>
      <trkpt lat="43.15649" lon="5.71583">
        <ele>88</ele>
        <time>2020-02-12T14:45:58Z</time>
      </trkpt>
      <trkpt lat="43.15647" lon="5.71576">
        <ele>88</ele>
        <time>2020-02-12T14:46:08Z</time>
      </trkpt>
      <trkpt lat="43.15645" lon="5.71569">
        <ele>88</ele>
        <time>2020-02-12T14:46:23Z</time>
      </trkpt>
      <trkpt lat="43.15643" lon="5.7156">
        <ele>87</ele>
        <time>2020-02-12T14:46:31Z</time>
      </trkpt>
      <trkpt lat="43.15638" lon="5.71552">
        <ele>80</ele>
        <time>2020-02-12T14:46:36Z</time>
      </trkpt>
      <trkpt lat="43.15639" lon="5.7154">
        <ele>84</ele>
        <time>2020-02-12T14:46:38Z</time>
      </trkpt>
      <trkpt lat="43.15646" lon="5.71502">
        <ele>85</ele>
        <time>2020-02-12T14:46:42Z</time>
      </trkpt>
      <trkpt lat="43.15652" lon="5.7149">
        <ele>82</ele>
        <time>2020-02-12T14:46:50Z</time>
      </trkpt>
      <trkpt lat="43.15657" lon="5.71487">
        <ele>80</ele>
        <time>2020-02-12T14:46:55Z</time>
      </trkpt>
      <trkpt lat="43.15657" lon="5.71481">
        <ele>80</ele>
        <time>2020-02-12T14:47:38Z</time>
      </trkpt>
      <trkpt lat="43.15659" lon="5.71474">
        <ele>81</ele>
        <time>2020-02-12T14:47:46Z</time>
      </trkpt>
      <trkpt lat="43.15664" lon="5.71471">
        <ele>82</ele>
        <time>2020-02-12T14:47:52Z</time>
      </trkpt>
      <trkpt lat="43.15669" lon="5.71468">
        <ele>81</ele>
        <time>2020-02-12T14:47:58Z</time>
      </trkpt>
      <trkpt lat="43.15666" lon="5.71462">
        <ele>84</ele>
        <time>2020-02-12T14:50:36Z</time>
      </trkpt>
      <trkpt lat="43.15669" lon="5.71456">
        <ele>81</ele>
        <time>2020-02-12T14:51:10Z</time>
      </trkpt>
      <trkpt lat="43.1567" lon="5.71447">
        <ele>83</ele>
        <time>2020-02-12T14:51:18Z</time>
      </trkpt>
      <trkpt lat="43.15672" lon="5.7144">
        <ele>84</ele>
        <time>2020-02-12T14:51:24Z</time>
      </trkpt>
      <trkpt lat="43.15674" lon="5.71433">
        <ele>85</ele>
        <time>2020-02-12T14:51:32Z</time>
      </trkpt>
      <trkpt lat="43.15677" lon="5.71428">
        <ele>83</ele>
        <time>2020-02-12T14:51:42Z</time>
      </trkpt>
      <trkpt lat="43.15679" lon="5.7142">
        <ele>84</ele>
        <time>2020-02-12T14:51:50Z</time>
      </trkpt>
      <trkpt lat="43.15681" lon="5.71413">
        <ele>86</ele>
        <time>2020-02-12T14:51:56Z</time>
      </trkpt>
      <trkpt lat="43.15683" lon="5.71406">
        <ele>87</ele>
        <time>2020-02-12T14:52:02Z</time>
      </trkpt>
      <trkpt lat="43.15686" lon="5.71399">
        <ele>88</ele>
        <time>2020-02-12T14:52:08Z</time>
      </trkpt>
      <trkpt lat="43.15689" lon="5.71392">
        <ele>86</ele>
        <time>2020-02-12T14:52:14Z</time>
      </trkpt>
      <trkpt lat="43.1569" lon="5.71385">
        <ele>87</ele>
        <time>2020-02-12T14:52:20Z</time>
      </trkpt>
      <trkpt lat="43.15689" lon="5.71378">
        <ele>87</ele>
        <time>2020-02-12T14:52:28Z</time>
      </trkpt>
      <trkpt lat="43.15689" lon="5.7137">
        <ele>90</ele>
        <time>2020-02-12T14:52:34Z</time>
      </trkpt>
      <trkpt lat="43.1569" lon="5.71363">
        <ele>90</ele>
        <time>2020-02-12T14:52:38Z</time>
      </trkpt>
      <trkpt lat="43.15692" lon="5.71354">
        <ele>90</ele>
        <time>2020-02-12T14:52:44Z</time>
      </trkpt>
      <trkpt lat="43.15693" lon="5.71347">
        <ele>90</ele>
        <time>2020-02-12T14:52:50Z</time>
      </trkpt>
      <trkpt lat="43.15695" lon="5.71341">
        <ele>90</ele>
        <time>2020-02-12T14:52:56Z</time>
      </trkpt>
      <trkpt lat="43.15696" lon="5.71332">
        <ele>90</ele>
        <time>2020-02-12T14:53:08Z</time>
      </trkpt>
      <trkpt lat="43.15698" lon="5.71325">
        <ele>90</ele>
        <time>2020-02-12T14:53:14Z</time>
      </trkpt>
      <trkpt lat="43.157" lon="5.71317">
        <ele>89</ele>
        <time>2020-02-12T14:53:20Z</time>
      </trkpt>
      <trkpt lat="43.157" lon="5.7131">
        <ele>90</ele>
        <time>2020-02-12T14:53:26Z</time>
      </trkpt>
      <trkpt lat="43.157" lon="5.71303">
        <ele>89</ele>
        <time>2020-02-12T14:53:32Z</time>
      </trkpt>
      <trkpt lat="43.15699" lon="5.71294">
        <ele>90</ele>
        <time>2020-02-12T14:53:38Z</time>
      </trkpt>
      <trkpt lat="43.15699" lon="5.71287">
        <ele>90</ele>
        <time>2020-02-12T14:53:44Z</time>
      </trkpt>
      <trkpt lat="43.15699" lon="5.7128">
        <ele>87</ele>
        <time>2020-02-12T14:53:50Z</time>
      </trkpt>
      <trkpt lat="43.157" lon="5.71273">
        <ele>86</ele>
        <time>2020-02-12T14:53:56Z</time>
      </trkpt>
      <trkpt lat="43.157" lon="5.71265">
        <ele>87</ele>
        <time>2020-02-12T14:54:00Z</time>
      </trkpt>
      <trkpt lat="43.15701" lon="5.71258">
        <ele>87</ele>
        <time>2020-02-12T14:54:04Z</time>
      </trkpt>
      <trkpt lat="43.157" lon="5.71249">
        <ele>87</ele>
        <time>2020-02-12T14:54:10Z</time>
      </trkpt>
      <trkpt lat="43.15701" lon="5.71241">
        <ele>86</ele>
        <time>2020-02-12T14:54:16Z</time>
      </trkpt>
      <trkpt lat="43.15701" lon="5.71234">
        <ele>86</ele>
        <time>2020-02-12T14:54:20Z</time>
      </trkpt>
      <trkpt lat="43.15701" lon="5.71227">
        <ele>86</ele>
        <time>2020-02-12T14:54:24Z</time>
      </trkpt>
      <trkpt lat="43.15702" lon="5.71218">
        <ele>87</ele>
        <time>2020-02-12T14:54:30Z</time>
      </trkpt>
      <trkpt lat="43.15702" lon="5.71211">
        <ele>87</ele>
        <time>2020-02-12T14:54:34Z</time>
      </trkpt>
      <trkpt lat="43.15703" lon="5.71203">
        <ele>87</ele>
        <time>2020-02-12T14:54:40Z</time>
      </trkpt>
      <trkpt lat="43.15704" lon="5.71196">
        <ele>90</ele>
        <time>2020-02-12T14:54:44Z</time>
      </trkpt>
      <trkpt lat="43.15706" lon="5.7119">
        <ele>89</ele>
        <time>2020-02-12T14:54:48Z</time>
      </trkpt>
      <trkpt lat="43.15707" lon="5.71182">
        <ele>89</ele>
        <time>2020-02-12T14:54:54Z</time>
      </trkpt>
      <trkpt lat="43.15707" lon="5.71175">
        <ele>86</ele>
        <time>2020-02-12T14:55:00Z</time>
      </trkpt>
      <trkpt lat="43.15708" lon="5.71167">
        <ele>86</ele>
        <time>2020-02-12T14:55:06Z</time>
      </trkpt>
      <trkpt lat="43.15709" lon="5.71161">
        <ele>86</ele>
        <time>2020-02-12T14:55:10Z</time>
      </trkpt>
      <trkpt lat="43.1571" lon="5.71154">
        <ele>88</ele>
        <time>2020-02-12T14:55:14Z</time>
      </trkpt>
      <trkpt lat="43.1571" lon="5.71147">
        <ele>88</ele>
        <time>2020-02-12T14:55:18Z</time>
      </trkpt>
      <trkpt lat="43.15712" lon="5.7114">
        <ele>89</ele>
        <time>2020-02-12T14:55:22Z</time>
      </trkpt>
      <trkpt lat="43.15713" lon="5.71134">
        <ele>88</ele>
        <time>2020-02-12T14:55:26Z</time>
      </trkpt>
      <trkpt lat="43.15715" lon="5.71127">
        <ele>88</ele>
        <time>2020-02-12T14:55:30Z</time>
      </trkpt>
      <trkpt lat="43.15716" lon="5.71121">
        <ele>89</ele>
        <time>2020-02-12T14:55:34Z</time>
      </trkpt>
      <trkpt lat="43.15718" lon="5.71115">
        <ele>89</ele>
        <time>2020-02-12T14:55:38Z</time>
      </trkpt>
      <trkpt lat="43.1572" lon="5.71106">
        <ele>90</ele>
        <time>2020-02-12T14:55:44Z</time>
      </trkpt>
      <trkpt lat="43.15721" lon="5.71099">
        <ele>90</ele>
        <time>2020-02-12T14:55:48Z</time>
      </trkpt>
      <trkpt lat="43.15721" lon="5.71093">
        <ele>90</ele>
        <time>2020-02-12T14:55:52Z</time>
      </trkpt>
      <trkpt lat="43.15723" lon="5.71086">
        <ele>89</ele>
        <time>2020-02-12T14:55:58Z</time>
      </trkpt>
      <trkpt lat="43.15724" lon="5.71077">
        <ele>90</ele>
        <time>2020-02-12T14:56:04Z</time>
      </trkpt>
      <trkpt lat="43.15724" lon="5.7107">
        <ele>92</ele>
        <time>2020-02-12T14:56:08Z</time>
      </trkpt>
      <trkpt lat="43.15726" lon="5.71061">
        <ele>90</ele>
        <time>2020-02-12T14:56:14Z</time>
      </trkpt>
      <trkpt lat="43.15729" lon="5.71053">
        <ele>89</ele>
        <time>2020-02-12T14:56:20Z</time>
      </trkpt>
      <trkpt lat="43.15731" lon="5.71045">
        <ele>89</ele>
        <time>2020-02-12T14:56:26Z</time>
      </trkpt>
      <trkpt lat="43.15732" lon="5.71037">
        <ele>87</ele>
        <time>2020-02-12T14:56:32Z</time>
      </trkpt>
      <trkpt lat="43.15733" lon="5.7103">
        <ele>88</ele>
        <time>2020-02-12T14:56:36Z</time>
      </trkpt>
      <trkpt lat="43.15735" lon="5.71022">
        <ele>87</ele>
        <time>2020-02-12T14:56:42Z</time>
      </trkpt>
      <trkpt lat="43.15736" lon="5.71015">
        <ele>87</ele>
        <time>2020-02-12T14:56:46Z</time>
      </trkpt>
      <trkpt lat="43.15738" lon="5.71008">
        <ele>86</ele>
        <time>2020-02-12T14:56:52Z</time>
      </trkpt>
      <trkpt lat="43.15741" lon="5.71001">
        <ele>86</ele>
        <time>2020-02-12T14:56:58Z</time>
      </trkpt>
      <trkpt lat="43.15744" lon="5.70996">
        <ele>87</ele>
        <time>2020-02-12T14:57:02Z</time>
      </trkpt>
      <trkpt lat="43.15749" lon="5.70989">
        <ele>87</ele>
        <time>2020-02-12T14:57:08Z</time>
      </trkpt>
      <trkpt lat="43.15755" lon="5.70986">
        <ele>84</ele>
        <time>2020-02-12T14:57:16Z</time>
      </trkpt>
      <trkpt lat="43.15761" lon="5.70981">
        <ele>85</ele>
        <time>2020-02-12T14:57:22Z</time>
      </trkpt>
      <trkpt lat="43.15764" lon="5.70976">
        <ele>85</ele>
        <time>2020-02-12T14:57:26Z</time>
      </trkpt>
      <trkpt lat="43.15768" lon="5.70971">
        <ele>86</ele>
        <time>2020-02-12T14:57:30Z</time>
      </trkpt>
      <trkpt lat="43.15771" lon="5.70964">
        <ele>85</ele>
        <time>2020-02-12T14:57:36Z</time>
      </trkpt>
      <trkpt lat="43.15774" lon="5.70958">
        <ele>86</ele>
        <time>2020-02-12T14:57:40Z</time>
      </trkpt>
      <trkpt lat="43.15776" lon="5.70953">
        <ele>86</ele>
        <time>2020-02-12T14:57:44Z</time>
      </trkpt>
      <trkpt lat="43.15779" lon="5.70948">
        <ele>88</ele>
        <time>2020-02-12T14:57:54Z</time>
      </trkpt>
      <trkpt lat="43.15781" lon="5.70942">
        <ele>90</ele>
        <time>2020-02-12T14:58:02Z</time>
      </trkpt>
      <trkpt lat="43.15786" lon="5.70939">
        <ele>87</ele>
        <time>2020-02-12T14:58:10Z</time>
      </trkpt>
      <trkpt lat="43.15789" lon="5.70932">
        <ele>89</ele>
        <time>2020-02-12T14:58:16Z</time>
      </trkpt>
      <trkpt lat="43.15792" lon="5.70927">
        <ele>88</ele>
        <time>2020-02-12T14:58:20Z</time>
      </trkpt>
      <trkpt lat="43.15795" lon="5.70919">
        <ele>87</ele>
        <time>2020-02-12T14:58:26Z</time>
      </trkpt>
      <trkpt lat="43.15798" lon="5.70913">
        <ele>88</ele>
        <time>2020-02-12T14:58:32Z</time>
      </trkpt>
      <trkpt lat="43.15801" lon="5.70907">
        <ele>88</ele>
        <time>2020-02-12T14:58:38Z</time>
      </trkpt>
      <trkpt lat="43.15805" lon="5.70901">
        <ele>88</ele>
        <time>2020-02-12T14:58:46Z</time>
      </trkpt>
      <trkpt lat="43.15809" lon="5.70894">
        <ele>88</ele>
        <time>2020-02-12T14:58:52Z</time>
      </trkpt>
      <trkpt lat="43.15812" lon="5.70886">
        <ele>90</ele>
        <time>2020-02-12T14:58:58Z</time>
      </trkpt>
      <trkpt lat="43.15814" lon="5.70881">
        <ele>90</ele>
        <time>2020-02-12T14:59:04Z</time>
      </trkpt>
      <trkpt lat="43.15816" lon="5.70873">
        <ele>91</ele>
        <time>2020-02-12T14:59:10Z</time>
      </trkpt>
      <trkpt lat="43.15819" lon="5.70866">
        <ele>90</ele>
        <time>2020-02-12T14:59:16Z</time>
      </trkpt>
      <trkpt lat="43.15822" lon="5.70858">
        <ele>90</ele>
        <time>2020-02-12T14:59:22Z</time>
      </trkpt>
      <trkpt lat="43.15825" lon="5.7085">
        <ele>92</ele>
        <time>2020-02-12T14:59:28Z</time>
      </trkpt>
      <trkpt lat="43.15827" lon="5.70844">
        <ele>91</ele>
        <time>2020-02-12T14:59:34Z</time>
      </trkpt>
      <trkpt lat="43.15829" lon="5.70838">
        <ele>90</ele>
        <time>2020-02-12T14:59:40Z</time>
      </trkpt>
      <trkpt lat="43.15831" lon="5.7083">
        <ele>89</ele>
        <time>2020-02-12T14:59:46Z</time>
      </trkpt>
      <trkpt lat="43.15833" lon="5.70824">
        <ele>91</ele>
        <time>2020-02-12T14:59:52Z</time>
      </trkpt>
      <trkpt lat="43.15836" lon="5.70818">
        <ele>90</ele>
        <time>2020-02-12T14:59:58Z</time>
      </trkpt>
      <trkpt lat="43.15839" lon="5.70811">
        <ele>93</ele>
        <time>2020-02-12T15:00:04Z</time>
      </trkpt>
      <trkpt lat="43.15841" lon="5.70806">
        <ele>93</ele>
        <time>2020-02-12T15:00:08Z</time>
      </trkpt>
      <trkpt lat="43.15845" lon="5.70801">
        <ele>91</ele>
        <time>2020-02-12T15:00:14Z</time>
      </trkpt>
      <trkpt lat="43.15849" lon="5.70796">
        <ele>93</ele>
        <time>2020-02-12T15:00:20Z</time>
      </trkpt>
      <trkpt lat="43.15851" lon="5.70791">
        <ele>94</ele>
        <time>2020-02-12T15:00:24Z</time>
      </trkpt>
      <trkpt lat="43.15854" lon="5.70785">
        <ele>93</ele>
        <time>2020-02-12T15:00:30Z</time>
      </trkpt>
      <trkpt lat="43.15859" lon="5.7078">
        <ele>95</ele>
        <time>2020-02-12T15:00:38Z</time>
      </trkpt>
      <trkpt lat="43.15864" lon="5.70773">
        <ele>92</ele>
        <time>2020-02-12T15:00:44Z</time>
      </trkpt>
      <trkpt lat="43.15869" lon="5.70771">
        <ele>95</ele>
        <time>2020-02-12T15:00:52Z</time>
      </trkpt>
      <trkpt lat="43.15873" lon="5.70776">
        <ele>97</ele>
        <time>2020-02-12T15:01:00Z</time>
      </trkpt>
      <trkpt lat="43.15875" lon="5.70783">
        <ele>98</ele>
        <time>2020-02-12T15:01:06Z</time>
      </trkpt>
      <trkpt lat="43.15879" lon="5.70786">
        <ele>98</ele>
        <time>2020-02-12T15:01:12Z</time>
      </trkpt>
      <trkpt lat="43.15884" lon="5.70787">
        <ele>98</ele>
        <time>2020-02-12T15:01:18Z</time>
      </trkpt>
      <trkpt lat="43.15889" lon="5.70791">
        <ele>103</ele>
        <time>2020-02-12T15:01:26Z</time>
      </trkpt>
      <trkpt lat="43.15896" lon="5.70792">
        <ele>106</ele>
        <time>2020-02-12T15:01:32Z</time>
      </trkpt>
      <trkpt lat="43.159" lon="5.70787">
        <ele>106</ele>
        <time>2020-02-12T15:01:38Z</time>
      </trkpt>
      <trkpt lat="43.15902" lon="5.70781">
        <ele>105</ele>
        <time>2020-02-12T15:01:46Z</time>
      </trkpt>
      <trkpt lat="43.15905" lon="5.70774">
        <ele>104</ele>
        <time>2020-02-12T15:01:52Z</time>
      </trkpt>
      <trkpt lat="43.15906" lon="5.70767">
        <ele>103</ele>
        <time>2020-02-12T15:01:58Z</time>
      </trkpt>
      <trkpt lat="43.15909" lon="5.70758">
        <ele>105</ele>
        <time>2020-02-12T15:02:04Z</time>
      </trkpt>
      <trkpt lat="43.1591" lon="5.70752">
        <ele>107</ele>
        <time>2020-02-12T15:02:08Z</time>
      </trkpt>
      <trkpt lat="43.15913" lon="5.70746">
        <ele>107</ele>
        <time>2020-02-12T15:02:12Z</time>
      </trkpt>
      <trkpt lat="43.15915" lon="5.70739">
        <ele>109</ele>
        <time>2020-02-12T15:02:18Z</time>
      </trkpt>
      <trkpt lat="43.15918" lon="5.70733">
        <ele>111</ele>
        <time>2020-02-12T15:02:24Z</time>
      </trkpt>
      <trkpt lat="43.15922" lon="5.70727">
        <ele>108</ele>
        <time>2020-02-12T15:02:30Z</time>
      </trkpt>
      <trkpt lat="43.15926" lon="5.70724">
        <ele>109</ele>
        <time>2020-02-12T15:02:36Z</time>
      </trkpt>
      <trkpt lat="43.15932" lon="5.7072">
        <ele>108</ele>
        <time>2020-02-12T15:02:44Z</time>
      </trkpt>
      <trkpt lat="43.15934" lon="5.70714">
        <ele>108</ele>
        <time>2020-02-12T15:02:48Z</time>
      </trkpt>
      <trkpt lat="43.15937" lon="5.70707">
        <ele>110</ele>
        <time>2020-02-12T15:02:54Z</time>
      </trkpt>
      <trkpt lat="43.15941" lon="5.707">
        <ele>110</ele>
        <time>2020-02-12T15:03:00Z</time>
      </trkpt>
      <trkpt lat="43.15945" lon="5.70694">
        <ele>109</ele>
        <time>2020-02-12T15:03:06Z</time>
      </trkpt>
      <trkpt lat="43.1595" lon="5.70689">
        <ele>109</ele>
        <time>2020-02-12T15:03:12Z</time>
      </trkpt>
      <trkpt lat="43.15954" lon="5.70684">
        <ele>110</ele>
        <time>2020-02-12T15:03:18Z</time>
      </trkpt>
      <trkpt lat="43.1596" lon="5.70683">
        <ele>111</ele>
        <time>2020-02-12T15:03:26Z</time>
      </trkpt>
      <trkpt lat="43.15964" lon="5.70683">
        <ele>111</ele>
        <time>2020-02-12T15:03:32Z</time>
      </trkpt>
      <trkpt lat="43.15969" lon="5.70681">
        <ele>111</ele>
        <time>2020-02-12T15:03:38Z</time>
      </trkpt>
      <trkpt lat="43.15975" lon="5.7068">
        <ele>111</ele>
        <time>2020-02-12T15:03:44Z</time>
      </trkpt>
      <trkpt lat="43.15979" lon="5.70684">
        <ele>110</ele>
        <time>2020-02-12T15:03:52Z</time>
      </trkpt>
      <trkpt lat="43.15984" lon="5.70686">
        <ele>113</ele>
        <time>2020-02-12T15:03:58Z</time>
      </trkpt>
      <trkpt lat="43.15989" lon="5.70684">
        <ele>115</ele>
        <time>2020-02-12T15:04:02Z</time>
      </trkpt>
      <trkpt lat="43.15993" lon="5.70681">
        <ele>114</ele>
        <time>2020-02-12T15:04:08Z</time>
      </trkpt>
      <trkpt lat="43.15997" lon="5.70678">
        <ele>115</ele>
        <time>2020-02-12T15:04:12Z</time>
      </trkpt>
      <trkpt lat="43.16003" lon="5.70674">
        <ele>118</ele>
        <time>2020-02-12T15:04:18Z</time>
      </trkpt>
      <trkpt lat="43.16007" lon="5.70671">
        <ele>119</ele>
        <time>2020-02-12T15:04:22Z</time>
      </trkpt>
      <trkpt lat="43.1601" lon="5.70664">
        <ele>119</ele>
        <time>2020-02-12T15:04:30Z</time>
      </trkpt>
      <trkpt lat="43.16009" lon="5.70657">
        <ele>118</ele>
        <time>2020-02-12T15:04:40Z</time>
      </trkpt>
      <trkpt lat="43.16008" lon="5.70649">
        <ele>117</ele>
        <time>2020-02-12T15:05:04Z</time>
      </trkpt>
      <trkpt lat="43.16008" lon="5.70643">
        <ele>116</ele>
        <time>2020-02-12T15:05:10Z</time>
      </trkpt>
      <trkpt lat="43.16007" lon="5.70636">
        <ele>114</ele>
        <time>2020-02-12T15:05:18Z</time>
      </trkpt>
      <trkpt lat="43.1601" lon="5.70631">
        <ele>118</ele>
        <time>2020-02-12T15:06:16Z</time>
      </trkpt>
      <trkpt lat="43.16008" lon="5.70623">
        <ele>117</ele>
        <time>2020-02-12T15:07:46Z</time>
      </trkpt>
      <trkpt lat="43.16008" lon="5.70616">
        <ele>117</ele>
        <time>2020-02-12T15:07:52Z</time>
      </trkpt>
      <trkpt lat="43.16008" lon="5.70608">
        <ele>118</ele>
        <time>2020-02-12T15:07:58Z</time>
      </trkpt>
      <trkpt lat="43.16008" lon="5.70601">
        <ele>118</ele>
        <time>2020-02-12T15:08:04Z</time>
      </trkpt>
      <trkpt lat="43.16008" lon="5.70592">
        <ele>118</ele>
        <time>2020-02-12T15:08:12Z</time>
      </trkpt>
      <trkpt lat="43.16008" lon="5.70584">
        <ele>117</ele>
        <time>2020-02-12T15:08:18Z</time>
      </trkpt>
      <trkpt lat="43.16008" lon="5.70576">
        <ele>117</ele>
        <time>2020-02-12T15:08:24Z</time>
      </trkpt>
      <trkpt lat="43.16008" lon="5.70567">
        <ele>118</ele>
        <time>2020-02-12T15:08:30Z</time>
      </trkpt>
      <trkpt lat="43.1601" lon="5.70559">
        <ele>119</ele>
        <time>2020-02-12T15:08:36Z</time>
      </trkpt>
      <trkpt lat="43.1601" lon="5.70551">
        <ele>119</ele>
        <time>2020-02-12T15:08:42Z</time>
      </trkpt>
      <trkpt lat="43.16011" lon="5.70543">
        <ele>119</ele>
        <time>2020-02-12T15:08:48Z</time>
      </trkpt>
      <trkpt lat="43.16011" lon="5.70534">
        <ele>118</ele>
        <time>2020-02-12T15:08:54Z</time>
      </trkpt>
      <trkpt lat="43.16012" lon="5.70526">
        <ele>119</ele>
        <time>2020-02-12T15:09:00Z</time>
      </trkpt>
      <trkpt lat="43.16014" lon="5.7052">
        <ele>119</ele>
        <time>2020-02-12T15:09:04Z</time>
      </trkpt>
      <trkpt lat="43.16014" lon="5.70512">
        <ele>119</ele>
        <time>2020-02-12T15:09:10Z</time>
      </trkpt>
      <trkpt lat="43.16015" lon="5.70505">
        <ele>120</ele>
        <time>2020-02-12T15:09:16Z</time>
      </trkpt>
      <trkpt lat="43.16014" lon="5.70497">
        <ele>121</ele>
        <time>2020-02-12T15:09:22Z</time>
      </trkpt>
      <trkpt lat="43.16014" lon="5.70489">
        <ele>121</ele>
        <time>2020-02-12T15:09:28Z</time>
      </trkpt>
      <trkpt lat="43.16014" lon="5.7048">
        <ele>120</ele>
        <time>2020-02-12T15:09:34Z</time>
      </trkpt>
      <trkpt lat="43.16015" lon="5.70471">
        <ele>120</ele>
        <time>2020-02-12T15:09:40Z</time>
      </trkpt>
      <trkpt lat="43.16016" lon="5.70462">
        <ele>119</ele>
        <time>2020-02-12T15:09:46Z</time>
      </trkpt>
      <trkpt lat="43.16016" lon="5.70455">
        <ele>118</ele>
        <time>2020-02-12T15:09:52Z</time>
      </trkpt>
      <trkpt lat="43.16016" lon="5.70446">
        <ele>118</ele>
        <time>2020-02-12T15:09:58Z</time>
      </trkpt>
      <trkpt lat="43.16016" lon="5.70439">
        <ele>117</ele>
        <time>2020-02-12T15:10:04Z</time>
      </trkpt>
      <trkpt lat="43.16018" lon="5.70431">
        <ele>117</ele>
        <time>2020-02-12T15:10:10Z</time>
      </trkpt>
      <trkpt lat="43.16021" lon="5.70424">
        <ele>117</ele>
        <time>2020-02-12T15:10:16Z</time>
      </trkpt>
      <trkpt lat="43.16027" lon="5.70419">
        <ele>118</ele>
        <time>2020-02-12T15:10:22Z</time>
      </trkpt>
      <trkpt lat="43.16031" lon="5.70417">
        <ele>120</ele>
        <time>2020-02-12T15:10:26Z</time>
      </trkpt>
      <trkpt lat="43.16037" lon="5.70417">
        <ele>120</ele>
        <time>2020-02-12T15:10:32Z</time>
      </trkpt>
      <trkpt lat="43.16042" lon="5.70421">
        <ele>121</ele>
        <time>2020-02-12T15:10:38Z</time>
      </trkpt>
      <trkpt lat="43.16046" lon="5.70424">
        <ele>122</ele>
        <time>2020-02-12T15:10:44Z</time>
      </trkpt>
      <trkpt lat="43.1605" lon="5.70428">
        <ele>124</ele>
        <time>2020-02-12T15:10:56Z</time>
      </trkpt>
    </trkseg>
  </trk>
</gpx>